| time (UTC) | temp F | wind direction | speed MPH | gust MPH | rain 1hr in | rain 24hr in | rain mn in | humidity % | barometer mb |
| 20260507083032 | 59 | 266 | 5.0 | 10.0 | 0.00 | 0.00 | 0.00 | 62 | 1012.4 |
| 20260507082930 | 59 | 246 | 5.0 | 8.0 | 0.00 | 0.00 | 0.00 | 63 | 1012.3 |
| 20260507082814 | 59 | 237 | 6.0 | 8.0 | 0.00 | 0.00 | 0.00 | 62 | 1012.3 |
| 20260507082741 | 59 | 239 | 6.0 | 8.0 | 0.00 | 0.00 | 0.00 | 62 | 1012.3 |
| 20260507082615 | 59 | 239 | 4.0 | 8.0 | 0.00 | 0.00 | 0.00 | 62 | 1012.3 |
| 20260507082517 | 59 | 252 | 2.0 | 10.0 | 0.00 | 0.00 | 0.00 | 62 | 1012.3 |
| 20260507082444 | 59 | 253 | 2.0 | 10.0 | 0.00 | 0.00 | 0.00 | 62 | 1012.2 |
| 20260507082326 | 59 | 253 | 2.0 | 10.0 | 0.00 | 0.00 | 0.00 | 61 | 1012.2 |
| 20260507082223 | 59 | 253 | 2.0 | 10.0 | 0.00 | 0.00 | 0.00 | 61 | 1012.3 |
| 20260507082132 | 59 | 253 | 3.0 | 10.0 | 0.00 | 0.00 | 0.00 | 61 | 1012.3 |
| 20260507082046 | 59 | 252 | 3.0 | 10.0 | 0.00 | 0.00 | 0.00 | 60 | 1012.3 |
| 20260507081931 | 59 | 253 | 5.0 | 10.0 | 0.00 | 0.00 | 0.00 | 60 | 1012.3 |
| 20260507081827 | 59 | 253 | 5.0 | 10.0 | 0.00 | 0.00 | 0.00 | 60 | 1012.2 |
| 20260507081716 | 59 | 224 | 4.0 | 10.0 | 0.00 | 0.00 | 0.00 | 60 | 1012.3 |
| 20260507081641 | 59 | 245 | 3.0 | 9.0 | 0.00 | 0.00 | 0.00 | 59 | 1012.3 |
| 20260507081516 | 59 | 245 | 3.0 | 9.0 | 0.00 | 0.00 | 0.00 | 59 | 1012.2 |
| 20260507081422 | 59 | 245 | 4.0 | 9.0 | 0.00 | 0.00 | 0.00 | 59 | 1012.3 |
| 20260507081320 | 59 | 246 | 3.0 | 9.0 | 0.00 | 0.00 | 0.00 | 58 | 1012.3 |
| 20260507081228 | 59 | 246 | 4.0 | 9.0 | 0.00 | 0.00 | 0.00 | 58 | 1012.3 |
| 20260507081124 | 59 | 243 | 5.0 | 9.0 | 0.00 | 0.00 | 0.00 | 58 | 1012.3 |
| 20260507081034 | 59 | 243 | 6.0 | 9.0 | 0.00 | 0.00 | 0.00 | 58 | 1012.3 |
| 20260507080950 | 59 | 242 | 7.0 | 10.0 | 0.00 | 0.00 | 0.00 | 58 | 1012.3 |
| 20260507080834 | 59 | 259 | 7.0 | 10.0 | 0.00 | 0.00 | 0.00 | 58 | 1012.3 |
| 20260507080733 | 59 | 277 | 5.0 | 10.0 | 0.00 | 0.00 | 0.00 | 58 | 1012.3 |
| 20260507080641 | 60 | 273 | 5.0 | 10.0 | 0.00 | 0.00 | 0.00 | 57 | 1012.3 |
| 20260507080536 | 60 | 227 | 6.0 | 10.0 | 0.00 | 0.00 | 0.00 | 57 | 1012.3 |
| 20260507080440 | 60 | 225 | 6.0 | 10.0 | 0.00 | 0.00 | 0.00 | 57 | 1012.3 |
| 20260507080321 | 59 | 292 | 5.0 | 10.0 | 0.00 | 0.00 | 0.00 | 57 | 1012.3 |
| 20260507080220 | 60 | 254 | 5.0 | 8.0 | 0.00 | 0.00 | 0.00 | 56 | 1012.4 |
| 20260507080123 | 60 | 260 | 5.0 | 8.0 | 0.00 | 0.00 | 0.00 | 56 | 1012.3 |
| 20260507080020 | 60 | 261 | 5.0 | 8.0 | 0.00 | 0.00 | 0.00 | 56 | 1012.3 |
| 20260507075926 | 60 | 259 | 5.0 | 8.0 | 0.00 | 0.00 | 0.00 | 57 | 1012.3 |
| 20260507075843 | 60 | 255 | 5.0 | 8.0 | 0.00 | 0.00 | 0.00 | 57 | 1012.4 |
| 20260507075748 | 60 | 239 | 4.0 | 8.0 | 0.00 | 0.00 | 0.00 | 57 | 1012.4 |
| 20260507075636 | 60 | 238 | 5.0 | 8.0 | 0.00 | 0.00 | 0.00 | 56 | 1012.4 |
| 20260507075550 | 60 | 238 | 5.0 | 8.0 | 0.00 | 0.00 | 0.00 | 56 | 1012.4 |
| 20260507075420 | 60 | 248 | 5.0 | 9.0 | 0.00 | 0.00 | 0.00 | 55 | 1012.4 |
| 20260507075317 | 60 | 247 | 5.0 | 9.0 | 0.00 | 0.00 | 0.00 | 56 | 1012.5 |
| 20260507075217 | 60 | 252 | 3.0 | 9.0 | 0.00 | 0.00 | 0.00 | 55 | 1012.4 |
| 20260507075122 | 60 | 266 | 3.0 | 9.0 | 0.00 | 0.00 | 0.00 | 55 | 1012.4 |
| 20260507075020 | 60 | 271 | 3.0 | 9.0 | 0.00 | 0.00 | 0.00 | 55 | 1012.5 |
| 20260507074926 | 60 | 271 | 3.0 | 9.0 | 0.00 | 0.00 | 0.00 | 55 | 1012.5 |
| 20260507074828 | 60 | 292 | 2.0 | 17.0 | 0.00 | 0.00 | 0.00 | 55 | 1012.5 |
| 20260507074755 | 60 | 293 | 4.0 | 17.0 | 0.00 | 0.00 | 0.00 | 55 | 1012.4 |
| 20260507074642 | 60 | 293 | 6.0 | 17.0 | 0.00 | 0.00 | 0.00 | 55 | 1012.5 |
| 20260507074517 | 60 | 267 | 6.0 | 17.0 | 0.00 | 0.00 | 0.00 | 55 | 1012.5 |
| 20260507074415 | 60 | 258 | 6.0 | 17.0 | 0.00 | 0.00 | 0.00 | 55 | 1012.6 |
| 20260507074341 | 60 | 289 | 6.0 | 17.0 | 0.00 | 0.00 | 0.00 | 55 | 1012.6 |
| 20260507074216 | 60 | 317 | 7.0 | 17.0 | 0.00 | 0.00 | 0.00 | 55 | 1012.5 |
| 20260507074128 | 60 | 306 | 9.0 | 17.0 | 0.00 | 0.00 | 0.00 | 55 | 1012.5 |
| 20260507074021 | 60 | 282 | 9.0 | 17.0 | 0.00 | 0.00 | 0.00 | 55 | 1012.5 |
| 20260507073917 | 60 | 264 | 7.0 | 13.0 | 0.00 | 0.00 | 0.00 | 55 | 1012.4 |
| 20260507073822 | 60 | 273 | 6.0 | 13.0 | 0.00 | 0.00 | 0.00 | 56 | 1012.4 |
| 20260507073721 | 60 | 261 | 7.0 | 13.0 | 0.00 | 0.00 | 0.00 | 56 | 1012.4 |
| 20260507073625 | 60 | 254 | 8.0 | 13.0 | 0.00 | 0.00 | 0.00 | 56 | 1012.4 |
| 20260507073523 | 60 | 276 | 8.0 | 13.0 | 0.00 | 0.00 | 0.00 | 56 | 1012.5 |
| 20260507073452 | 60 | 268 | 7.0 | 13.0 | 0.00 | 0.00 | 0.00 | 57 | 1012.5 |
| 20260507073329 | 60 | 252 | 5.0 | 9.0 | 0.00 | 0.00 | 0.00 | 57 | 1012.5 |
| 20260507073234 | 60 | 241 | 5.0 | 9.0 | 0.00 | 0.00 | 0.00 | 57 | 1012.4 |
| 20260507073134 | 60 | 231 | 6.0 | 9.0 | 0.00 | 0.00 | 0.00 | 56 | 1012.4 |
| 20260507073035 | 60 | 239 | 6.0 | 9.0 | 0.00 | 0.00 | 0.00 | 56 | 1012.4 |
| 20260507073001 | 60 | 253 | 6.0 | 9.0 | 0.00 | 0.00 | 0.00 | 56 | 1012.5 |
| 20260507072817 | 60 | 241 | 7.0 | 10.0 | 0.00 | 0.00 | 0.00 | 57 | 1012.4 |
| 20260507072720 | 60 | 259 | 6.0 | 10.0 | 0.00 | 0.00 | 0.00 | 57 | 1012.5 |
| 20260507072625 | 60 | 255 | 6.0 | 10.0 | 0.00 | 0.00 | 0.00 | 57 | 1012.4 |
| 20260507072522 | 60 | 254 | 5.0 | 10.0 | 0.00 | 0.00 | 0.00 | 57 | 1012.5 |
| 20260507072419 | 60 | 257 | 5.0 | 10.0 | 0.00 | 0.00 | 0.00 | 57 | 1012.5 |
| 20260507072326 | 60 | 256 | 4.0 | 10.0 | 0.00 | 0.00 | 0.00 | 57 | 1012.5 |
| 20260507072225 | 60 | 259 | 5.0 | 10.0 | 0.00 | 0.00 | 0.00 | 57 | 1012.4 |
| 20260507072132 | 60 | 259 | 7.0 | 10.0 | 0.00 | 0.00 | 0.00 | 57 | 1012.4 |
| 20260507072031 | 60 | 265 | 7.0 | 11.0 | 0.00 | 0.00 | 0.00 | 57 | 1012.4 |
| 20260507071939 | 60 | 256 | 5.0 | 11.0 | 0.00 | 0.00 | 0.00 | 57 | 1012.4 |
| 20260507071814 | 60 | 231 | 6.0 | 11.0 | 0.00 | 0.00 | 0.00 | 57 | 1012.4 |
| 20260507071742 | 60 | 239 | 6.0 | 11.0 | 0.00 | 0.00 | 0.00 | 56 | 1012.4 |
| 20260507071617 | 60 | 254 | 7.0 | 11.0 | 0.00 | 0.00 | 0.00 | 56 | 1012.4 |
| 20260507071515 | 60 | 262 | 7.0 | 11.0 | 0.00 | 0.00 | 0.00 | 56 | 1012.4 |
| 20260507071424 | 60 | 248 | 7.0 | 11.0 | 0.00 | 0.00 | 0.00 | 56 | 1012.4 |
| 20260507071322 | 60 | 233 | 7.0 | 11.0 | 0.00 | 0.00 | 0.00 | 56 | 1012.4 |
| 20260507071220 | 60 | 260 | 7.0 | 13.0 | 0.00 | 0.00 | 0.00 | 57 | 1012.6 |
| 20260507071126 | 60 | 267 | 7.0 | 13.0 | 0.00 | 0.00 | 0.00 | 57 | 1012.6 |
| 20260507071024 | 60 | 246 | 7.0 | 13.0 | 0.00 | 0.00 | 0.00 | 57 | 1012.5 |
| 20260507070930 | 61 | 247 | 7.0 | 13.0 | 0.00 | 0.00 | 0.00 | 57 | 1012.5 |
| 20260507070845 | 61 | 250 | 8.0 | 13.0 | 0.00 | 0.00 | 0.00 | 57 | 1012.5 |
| 20260507070733 | 61 | 264 | 8.0 | 13.0 | 0.00 | 0.00 | 0.00 | 57 | 1012.5 |
| 20260507070700 | 61 | 248 | 7.0 | 13.0 | 0.00 | 0.00 | 0.00 | 57 | 1012.5 |
| 20260507070622 | 61 | 262 | 7.0 | 15.0 | 0.00 | 0.00 | 0.00 | 57 | 1012.5 |
| 20260507070418 | 61 | 275 | 8.0 | 15.0 | 0.00 | 0.00 | 0.00 | 57 | 1012.5 |
| 20260507070315 | 61 | 262 | 8.0 | 15.0 | 0.00 | 0.00 | 0.00 | 57 | 1012.5 |
| 20260507070223 | 61 | 253 | 8.0 | 15.0 | 0.00 | 0.00 | 0.00 | 57 | 1012.6 |
| 20260507070119 | 61 | 255 | 9.0 | 15.0 | 0.00 | 0.00 | 0.00 | 57 | 1012.5 |
| 20260507070021 | 61 | 258 | 10.0 | 15.0 | 0.00 | 0.00 | 0.00 | 57 | 1012.5 |
| 20260507065926 | 61 | 269 | 10.0 | 15.0 | 0.00 | 0.00 | 0.00 | 57 | 1012.5 |
| 20260507065824 | 61 | 246 | 11.0 | 16.0 | 0.00 | 0.00 | 0.00 | 58 | 1012.6 |
| 20260507065731 | 61 | 264 | 10.0 | 16.0 | 0.00 | 0.00 | 0.00 | 58 | 1012.6 |
| 20260507065628 | 61 | 257 | 8.0 | 16.0 | 0.00 | 0.00 | 0.00 | 58 | 1012.6 |
| 20260507065553 | 61 | 277 | 7.0 | 16.0 | 0.00 | 0.00 | 0.00 | 58 | 1012.6 |
| 20260507065429 | 61 | 270 | 8.0 | 16.0 | 0.00 | 0.00 | 0.00 | 58 | 1012.6 |
| 20260507065339 | 61 | 259 | 8.0 | 16.0 | 0.00 | 0.00 | 0.00 | 58 | 1012.6 |
| 20260507065235 | 61 | 271 | 10.0 | 16.0 | 0.00 | 0.00 | 0.00 | 58 | 1012.6 |
| 20260507065142 | 61 | 261 | 10.0 | 16.0 | 0.00 | 0.00 | 0.00 | 58 | 1012.6 |
| 20260507065018 | 61 | 282 | 9.0 | 14.0 | 0.00 | 0.00 | 0.00 | 58 | 1012.6 |
| 20260507064916 | 61 | 278 | 8.0 | 14.0 | 0.00 | 0.00 | 0.00 | 58 | 1012.6 |
| 20260507064823 | 61 | 262 | 8.0 | 14.0 | 0.00 | 0.00 | 0.00 | 58 | 1012.6 |
| 20260507064721 | 61 | 265 | 8.0 | 14.0 | 0.00 | 0.00 | 0.00 | 58 | 1012.6 |
| 20260507064633 | 61 | 243 | 8.0 | 15.0 | 0.00 | 0.00 | 0.00 | 58 | 1012.6 |
| 20260507064529 | 61 | 295 | 8.0 | 17.0 | 0.00 | 0.00 | 0.00 | 57 | 1012.6 |
| 20260507064436 | 61 | 277 | 9.0 | 19.0 | 0.00 | 0.00 | 0.00 | 57 | 1012.6 |
| 20260507064314 | 61 | 246 | 10.0 | 19.0 | 0.00 | 0.00 | 0.00 | 57 | 1012.7 |
| 20260507064242 | 61 | 294 | 9.0 | 19.0 | 0.00 | 0.00 | 0.00 | 57 | 1012.7 |
| 20260507064116 | 61 | 262 | 11.0 | 19.0 | 0.00 | 0.00 | 0.00 | 57 | 1012.7 |
| 20260507064017 | 61 | 252 | 10.0 | 19.0 | 0.00 | 0.00 | 0.00 | 57 | 1012.7 |
| 20260507063924 | 61 | 252 | 12.0 | 19.0 | 0.00 | 0.00 | 0.00 | 57 | 1012.7 |
| 20260507063842 | 61 | 255 | 13.0 | 19.0 | 0.00 | 0.00 | 0.00 | 57 | 1012.7 |
| 20260507063728 | 61 | 254 | 14.0 | 19.0 | 0.00 | 0.00 | 0.00 | 57 | 1012.7 |
| 20260507063623 | 61 | 260 | 13.0 | 19.0 | 0.00 | 0.00 | 0.00 | 57 | 1012.7 |
| 20260507063529 | 61 | 248 | 12.0 | 19.0 | 0.00 | 0.00 | 0.00 | 57 | 1012.7 |
| 20260507063445 | 61 | 255 | 12.0 | 19.0 | 0.00 | 0.00 | 0.00 | 57 | 1012.7 |
| 20260507063331 | 61 | 247 | 11.0 | 19.0 | 0.00 | 0.00 | 0.00 | 56 | 1012.7 |
| 20260507063232 | 61 | 264 | 12.0 | 18.0 | 0.00 | 0.00 | 0.00 | 56 | 1012.7 |
| 20260507063141 | 61 | 232 | 11.0 | 18.0 | 0.00 | 0.00 | 0.00 | 56 | 1012.7 |
| 20260507063036 | 61 | 246 | 10.0 | 16.0 | 0.00 | 0.00 | 0.00 | 56 | 1012.6 |
| 20260507062913 | 61 | 256 | 10.0 | 16.0 | 0.00 | 0.00 | 0.00 | 56 | 1012.6 |
| 20260507062821 | 61 | 268 | 11.0 | 16.0 | 0.00 | 0.00 | 0.00 | 56 | 1012.7 |
| 20260507062720 | 61 | 244 | 10.0 | 16.0 | 0.00 | 0.00 | 0.00 | 56 | 1012.7 |
| 20260507062644 | 61 | 258 | 8.0 | 14.0 | 0.00 | 0.00 | 0.00 | 55 | 1012.6 |
| 20260507062524 | 61 | 247 | 8.0 | 14.0 | 0.00 | 0.00 | 0.00 | 55 | 1012.6 |
| 20260507062431 | 61 | 253 | 8.0 | 14.0 | 0.00 | 0.00 | 0.00 | 55 | 1012.6 |
| 20260507062329 | 62 | 232 | 7.0 | 14.0 | 0.00 | 0.00 | 0.00 | 55 | 1012.7 |
| 20260507062235 | 62 | 231 | 6.0 | 11.0 | 0.00 | 0.00 | 0.00 | 55 | 1012.7 |
| 20260507062132 | 62 | 268 | 8.0 | 11.0 | 0.00 | 0.00 | 0.00 | 55 | 1012.7 |
| 20260507062029 | 62 | 262 | 8.0 | 10.0 | 0.00 | 0.00 | 0.00 | 55 | 1012.7 |
| 20260507061940 | 62 | 237 | 7.0 | 10.0 | 0.00 | 0.00 | 0.00 | 55 | 1012.7 |
| 20260507061817 | 62 | 239 | 5.0 | 12.0 | 0.00 | 0.00 | 0.00 | 55 | 1012.7 |
| 20260507061744 | 62 | 275 | 7.0 | 12.0 | 0.00 | 0.00 | 0.00 | 54 | 1012.7 |
| 20260507061631 | 62 | 262 | 7.0 | 12.0 | 0.00 | 0.00 | 0.00 | 54 | 1012.7 |
| 20260507061523 | 62 | 252 | 7.0 | 12.0 | 0.00 | 0.00 | 0.00 | 54 | 1012.7 |
| 20260507061420 | 62 | 264 | 8.0 | 12.0 | 0.00 | 0.00 | 0.00 | 54 | 1012.7 |
| 20260507061347 | 62 | 252 | 7.0 | 12.0 | 0.00 | 0.00 | 0.00 | 54 | 1012.7 |
| 20260507061234 | 62 | 246 | 7.0 | 12.0 | 0.00 | 0.00 | 0.00 | 54 | 1012.7 |
| 20260507061114 | 62 | 246 | 8.0 | 12.0 | 0.00 | 0.00 | 0.00 | 54 | 1012.7 |
| 20260507061031 | 62 | 257 | 8.0 | 12.0 | 0.00 | 0.00 | 0.00 | 54 | 1012.7 |
| 20260507060938 | 62 | 256 | 8.0 | 12.0 | 0.00 | 0.00 | 0.00 | 54 | 1012.7 |
| 20260507060815 | 62 | 235 | 9.0 | 12.0 | 0.00 | 0.00 | 0.00 | 53 | 1012.7 |
| 20260507060721 | 62 | 250 | 7.0 | 12.0 | 0.00 | 0.00 | 0.00 | 53 | 1012.7 |
| 20260507060616 | 62 | 245 | 5.0 | 9.0 | 0.00 | 0.00 | 0.00 | 53 | 1012.7 |
| 20260507060528 | 62 | 239 | 4.0 | 9.0 | 0.00 | 0.00 | 0.00 | 53 | 1012.7 |
| 20260507060425 | 62 | 239 | 5.0 | 9.0 | 0.00 | 0.00 | 0.00 | 53 | 1012.7 |
| 20260507060351 | 62 | 241 | 6.0 | 9.0 | 0.00 | 0.00 | 0.00 | 52 | 1012.7 |
| 20260507060227 | 62 | 241 | 5.0 | 10.0 | 0.00 | 0.00 | 0.00 | 52 | 1012.7 |
| 20260507060135 | 62 | 243 | 4.0 | 10.0 | 0.00 | 0.00 | 0.00 | 52 | 1012.7 |
| 20260507060042 | 62 | 243 | 5.0 | 11.0 | 0.00 | 0.00 | 0.00 | 52 | 1012.7 |
| 20260507055927 | 62 | 248 | 4.0 | 11.0 | 0.00 | 0.00 | 0.00 | 52 | 1012.7 |
| 20260507055825 | 62 | 246 | 4.0 | 11.0 | 0.00 | 0.00 | 0.00 | 52 | 1012.8 |
| 20260507055734 | 62 | 246 | 5.0 | 11.0 | 0.00 | 0.00 | 0.00 | 52 | 1012.8 |
| 20260507055632 | 62 | 248 | 6.0 | 11.0 | 0.00 | 0.00 | 0.00 | 52 | 1012.8 |
| 20260507055526 | 62 | 248 | 6.0 | 11.0 | 0.00 | 0.00 | 0.00 | 52 | 1012.7 |
| 20260507055432 | 62 | 265 | 5.0 | 11.0 | 0.00 | 0.00 | 0.00 | 52 | 1012.8 |
| 20260507055329 | 62 | 262 | 6.0 | 11.0 | 0.00 | 0.00 | 0.00 | 52 | 1012.8 |
| 20260507055233 | 63 | 273 | 7.0 | 11.0 | 0.00 | 0.00 | 0.00 | 52 | 1012.8 |
| 20260507055140 | 63 | 275 | 5.0 | 11.0 | 0.00 | 0.00 | 0.00 | 52 | 1012.8 |
| 20260507055021 | 63 | 262 | 4.0 | 9.0 | 0.00 | 0.00 | 0.00 | 51 | 1012.7 |
| 20260507054918 | 63 | 246 | 6.0 | 9.0 | 0.00 | 0.00 | 0.00 | 51 | 1012.7 |
| 20260507054826 | 63 | 232 | 6.0 | 9.0 | 0.00 | 0.00 | 0.00 | 51 | 1012.7 |
| 20260507054722 | 63 | 231 | 4.0 | 8.0 | 0.00 | 0.00 | 0.00 | 51 | 1012.7 |
| 20260507054631 | 63 | 223 | 3.0 | 6.0 | 0.00 | 0.00 | 0.00 | 51 | 1012.7 |
| 20260507054524 | 63 | 210 | 3.0 | 9.0 | 0.00 | 0.00 | 0.00 | 51 | 1012.8 |
| 20260507054426 | 63 | 206 | 3.0 | 9.0 | 0.00 | 0.00 | 0.00 | 51 | 1012.8 |
| 20260507054330 | 63 | 206 | 3.0 | 9.0 | 0.00 | 0.00 | 0.00 | 51 | 1012.7 |
| 20260507054235 | 63 | 196 | 3.0 | 9.0 | 0.00 | 0.00 | 0.00 | 51 | 1012.7 |
| 20260507054133 | 63 | 196 | 3.0 | 9.0 | 0.00 | 0.00 | 0.00 | 51 | 1012.7 |
| 20260507054035 | 63 | 194 | 2.0 | 11.0 | 0.00 | 0.00 | 0.00 | 51 | 1012.7 |
| 20260507053932 | 63 | 195 | 3.0 | 11.0 | 0.00 | 0.00 | 0.00 | 51 | 1012.7 |
| 20260507053838 | 63 | 194 | 5.0 | 11.0 | 0.00 | 0.00 | 0.00 | 51 | 1012.8 |
| 20260507053720 | 63 | 234 | 5.0 | 11.0 | 0.00 | 0.00 | 0.00 | 51 | 1012.8 |
| 20260507053614 | 63 | 240 | 4.0 | 11.0 | 0.00 | 0.00 | 0.00 | 51 | 1012.8 |
| 20260507053540 | 63 | 258 | 4.0 | 11.0 | 0.00 | 0.00 | 0.00 | 51 | 1012.8 |
| 20260507053416 | 63 | 245 | 4.0 | 11.0 | 0.00 | 0.00 | 0.00 | 51 | 1012.8 |
| 20260507053341 | 63 | 245 | 6.0 | 11.0 | 0.00 | 0.00 | 0.00 | 51 | 1012.8 |
| 20260507053220 | 63 | 248 | 6.0 | 11.0 | 0.00 | 0.00 | 0.00 | 52 | 1012.8 |
| 20260507053125 | 63 | 254 | 5.0 | 12.0 | 0.00 | 0.00 | 0.00 | 52 | 1012.8 |
| 20260507053021 | 63 | 254 | 6.0 | 12.0 | 0.00 | 0.00 | 0.00 | 52 | 1012.8 |
| 20260507052930 | 63 | 246 | 6.0 | 12.0 | 0.00 | 0.00 | 0.00 | 52 | 1012.8 |
| 20260507052827 | 63 | 229 | 4.0 | 12.0 | 0.00 | 0.00 | 0.00 | 52 | 1012.7 |
| 20260507052724 | 63 | 256 | 5.0 | 12.0 | 0.00 | 0.00 | 0.00 | 52 | 1012.7 |
| 20260507052631 | 63 | 246 | 4.0 | 12.0 | 0.00 | 0.00 | 0.00 | 52 | 1012.7 |
| 20260507052535 | 63 | 250 | 5.0 | 12.0 | 0.00 | 0.00 | 0.00 | 52 | 1012.8 |
| 20260507052432 | 63 | 240 | 7.0 | 12.0 | 0.00 | 0.00 | 0.00 | 52 | 1012.8 |
| 20260507052328 | 63 | 251 | 8.0 | 12.0 | 0.00 | 0.00 | 0.00 | 52 | 1012.8 |
| 20260507052219 | 63 | 248 | 6.0 | 10.0 | 0.00 | 0.00 | 0.00 | 52 | 1012.8 |
| 20260507052115 | 63 | 269 | 6.0 | 10.0 | 0.00 | 0.00 | 0.00 | 52 | 1012.8 |
| 20260507052042 | 63 | 268 | 7.0 | 10.0 | 0.00 | 0.00 | 0.00 | 52 | 1012.8 |
| 20260507051940 | 63 | 242 | 6.0 | 10.0 | 0.00 | 0.00 | 0.00 | 52 | 1012.8 |
| 20260507051826 | 63 | 283 | 6.0 | 10.0 | 0.00 | 0.00 | 0.00 | 52 | 1012.8 |
| 20260507051724 | 63 | 254 | 7.0 | 10.0 | 0.00 | 0.00 | 0.00 | 52 | 1012.8 |
| 20260507051652 | 63 | 274 | 6.0 | 10.0 | 0.00 | 0.00 | 0.00 | 52 | 1012.8 |
| 20260507051530 | 63 | 251 | 5.0 | 9.0 | 0.00 | 0.00 | 0.00 | 52 | 1012.8 |
| 20260507051437 | 64 | 262 | 5.0 | 9.0 | 0.00 | 0.00 | 0.00 | 52 | 1012.8 |
| 20260507051332 | 64 | 264 | 5.0 | 9.0 | 0.00 | 0.00 | 0.00 | 52 | 1012.8 |
| 20260507051222 | 64 | 249 | 5.0 | 10.0 | 0.00 | 0.00 | 0.00 | 52 | 1012.8 |
| 20260507051117 | 64 | 262 | 5.0 | 10.0 | 0.00 | 0.00 | 0.00 | 52 | 1012.8 |
| 20260507051013 | 64 | 267 | 7.0 | 10.0 | 0.00 | 0.00 | 0.00 | 52 | 1012.8 |
| 20260507050923 | 64 | 271 | 6.0 | 10.0 | 0.00 | 0.00 | 0.00 | 52 | 1012.8 |
| 20260507050840 | 64 | 242 | 5.0 | 10.0 | 0.00 | 0.00 | 0.00 | 52 | 1012.8 |
| 20260507050725 | 64 | 248 | 5.0 | 10.0 | 0.00 | 0.00 | 0.00 | 52 | 1012.8 |
| 20260507050653 | 64 | 242 | 5.0 | 10.0 | 0.00 | 0.00 | 0.00 | 52 | 1012.8 |
| 20260507050528 | 64 | 246 | 5.0 | 10.0 | 0.00 | 0.00 | 0.00 | 52 | 1012.8 |
| 20260507050426 | 64 | 247 | 5.0 | 11.0 | 0.00 | 0.00 | 0.00 | 52 | 1012.8 |
| 20260507050332 | 64 | 242 | 5.0 | 14.0 | 0.00 | 0.00 | 0.00 | 52 | 1012.8 |
| 20260507050300 | 64 | 241 | 6.0 | 14.0 | 0.00 | 0.00 | 0.00 | 52 | 1012.8 |
| 20260507050118 | 64 | 257 | 6.0 | 14.0 | 0.00 | 0.00 | 0.00 | 52 | 1012.8 |
| 20260507050016 | 64 | 229 | 5.0 | 14.0 | 0.00 | 0.00 | 0.00 | 52 | 1012.8 |
| 20260507045922 | 64 | 253 | 5.0 | 14.0 | 0.00 | 0.00 | 0.00 | 52 | 1012.8 |
| 20260507045819 | 64 | 254 | 6.0 | 14.0 | 0.00 | 0.00 | 0.00 | 52 | 1012.8 |
| 20260507045717 | 64 | 256 | 7.0 | 14.0 | 0.00 | 0.00 | 0.00 | 52 | 1012.9 |
| 20260507045620 | 64 | 264 | 8.0 | 14.0 | 0.00 | 0.00 | 0.00 | 52 | 1012.9 |
| 20260507045521 | 64 | 249 | 8.0 | 14.0 | 0.00 | 0.00 | 0.00 | 52 | 1012.9 |
| 20260507045427 | 64 | 244 | 7.0 | 14.0 | 0.00 | 0.00 | 0.00 | 52 | 1012.9 |
| 20260507045324 | 64 | 240 | 5.0 | 13.0 | 0.00 | 0.00 | 0.00 | 52 | 1012.8 |
| 20260507045221 | 64 | 233 | 5.0 | 13.0 | 0.00 | 0.00 | 0.00 | 52 | 1012.8 |
| 20260507045129 | 64 | 262 | 6.0 | 13.0 | 0.00 | 0.00 | 0.00 | 51 | 1012.8 |
| 20260507045052 | 64 | 259 | 7.0 | 13.0 | 0.00 | 0.00 | 0.00 | 51 | 1012.7 |
| 20260507044929 | 64 | 242 | 8.0 | 13.0 | 0.00 | 0.00 | 0.00 | 51 | 1012.8 |
| 20260507044835 | 65 | 265 | 8.0 | 12.0 | 0.00 | 0.00 | 0.00 | 51 | 1012.7 |
| 20260507044715 | 65 | 252 | 7.0 | 12.0 | 0.00 | 0.00 | 0.00 | 51 | 1012.7 |
| 20260507044619 | 65 | 233 | 6.0 | 12.0 | 0.00 | 0.00 | 0.00 | 51 | 1012.7 |
| 20260507044517 | 65 | 251 | 7.0 | 12.0 | 0.00 | 0.00 | 0.00 | 51 | 1012.7 |
| 20260507044442 | 65 | 269 | 8.0 | 12.0 | 0.00 | 0.00 | 0.00 | 51 | 1012.7 |
| 20260507044348 | 65 | 275 | 6.0 | 12.0 | 0.00 | 0.00 | 0.00 | 51 | 1012.7 |
| 20260507044221 | 65 | 231 | 5.0 | 12.0 | 0.00 | 0.00 | 0.00 | 50 | 1012.7 |
| 20260507044123 | 65 | 244 | 6.0 | 12.0 | 0.00 | 0.00 | 0.00 | 50 | 1012.7 |
| 20260507044024 | 65 | 260 | 7.0 | 12.0 | 0.00 | 0.00 | 0.00 | 50 | 1012.7 |
| 20260507043823 | 65 | 262 | 8.0 | 12.0 | 0.00 | 0.00 | 0.00 | 50 | 1012.7 |
| 20260507043724 | 65 | 259 | 7.0 | 11.0 | 0.00 | 0.00 | 0.00 | 50 | 1012.7 |
| 20260507043619 | 65 | 253 | 6.0 | 11.0 | 0.00 | 0.00 | 0.00 | 49 | 1012.8 |
| 20260507043516 | 65 | 271 | 6.0 | 11.0 | 0.00 | 0.00 | 0.00 | 49 | 1012.8 |
| 20260507043421 | 65 | 269 | 7.0 | 12.0 | 0.00 | 0.00 | 0.00 | 49 | 1012.7 |
| 20260507043348 | 65 | 257 | 7.0 | 12.0 | 0.00 | 0.00 | 0.00 | 49 | 1012.7 |
| 20260507043229 | 65 | 256 | 6.0 | 12.0 | 0.00 | 0.00 | 0.00 | 49 | 1012.7 |
| 20260507043124 | 65 | 268 | 6.0 | 12.0 | 0.00 | 0.00 | 0.00 | 49 | 1012.7 |
| 20260507043051 | 65 | 252 | 6.0 | 12.0 | 0.00 | 0.00 | 0.00 | 49 | 1012.7 |
| 20260507042934 | 65 | 256 | 7.0 | 13.0 | 0.00 | 0.00 | 0.00 | 49 | 1012.8 |
| 20260507042852 | 65 | 244 | 7.0 | 13.0 | 0.00 | 0.00 | 0.00 | 49 | 1012.7 |
| 20260507042740 | 65 | 255 | 8.0 | 13.0 | 0.00 | 0.00 | 0.00 | 49 | 1012.7 |
| 20260507042635 | 66 | 260 | 7.0 | 13.0 | 0.00 | 0.00 | 0.00 | 49 | 1012.7 |
| 20260507042540 | 66 | 252 | 6.0 | 13.0 | 0.00 | 0.00 | 0.00 | 49 | 1012.7 |
| 20260507042419 | 66 | 256 | 6.0 | 13.0 | 0.00 | 0.00 | 0.00 | 49 | 1012.7 |
| 20260507042344 | 66 | 250 | 6.0 | 13.0 | 0.00 | 0.00 | 0.00 | 49 | 1012.7 |
| 20260507042230 | 66 | 250 | 6.0 | 13.0 | 0.00 | 0.00 | 0.00 | 48 | 1012.7 |
| 20260507042122 | 66 | 258 | 8.0 | 13.0 | 0.00 | 0.00 | 0.00 | 48 | 1012.7 |
| 20260507042028 | 66 | 261 | 7.0 | 13.0 | 0.00 | 0.00 | 0.00 | 48 | 1012.7 |
| 20260507041924 | 66 | 255 | 6.0 | 11.0 | 0.00 | 0.00 | 0.00 | 48 | 1012.7 |
| 20260507041829 | 66 | 247 | 8.0 | 11.0 | 0.00 | 0.00 | 0.00 | 48 | 1012.7 |
| 20260507041729 | 66 | 262 | 8.0 | 11.0 | 0.00 | 0.00 | 0.00 | 48 | 1012.7 |
| 20260507041628 | 66 | 259 | 6.0 | 10.0 | 0.00 | 0.00 | 0.00 | 48 | 1012.6 |
| 20260507041532 | 66 | 256 | 5.0 | 12.0 | 0.00 | 0.00 | 0.00 | 48 | 1012.7 |
| 20260507041430 | 66 | 256 | 6.0 | 12.0 | 0.00 | 0.00 | 0.00 | 48 | 1012.6 |
| 20260507041335 | 66 | 245 | 7.0 | 12.0 | 0.00 | 0.00 | 0.00 | 48 | 1012.6 |
| 20260507041252 | 66 | 239 | 7.0 | 13.0 | 0.00 | 0.00 | 0.00 | 47 | 1012.6 |
| 20260507041138 | 66 | 250 | 7.0 | 13.0 | 0.00 | 0.00 | 0.00 | 47 | 1012.6 |
| 20260507041018 | 67 | 244 | 7.0 | 13.0 | 0.00 | 0.00 | 0.00 | 47 | 1012.5 |
| 20260507040945 | 67 | 256 | 6.0 | 13.0 | 0.00 | 0.00 | 0.00 | 47 | 1012.5 |
| 20260507040822 | 67 | 254 | 7.0 | 13.0 | 0.00 | 0.00 | 0.00 | 46 | 1012.5 |
| 20260507040730 | 67 | 260 | 8.0 | 13.0 | 0.00 | 0.00 | 0.00 | 46 | 1012.5 |
| 20260507040624 | 67 | 246 | 7.0 | 13.0 | 0.00 | 0.00 | 0.00 | 46 | 1012.5 |
| 20260507040522 | 67 | 247 | 9.0 | 13.0 | 0.00 | 0.00 | 0.00 | 46 | 1012.5 |
| 20260507040429 | 67 | 259 | 9.0 | 13.0 | 0.00 | 0.00 | 0.00 | 46 | 1012.5 |
| 20260507040328 | 67 | 251 | 8.0 | 13.0 | 0.00 | 0.00 | 0.00 | 46 | 1012.4 |
| 20260507040235 | 67 | 244 | 8.0 | 13.0 | 0.00 | 0.00 | 0.00 | 45 | 1012.5 |
| 20260507040134 | 67 | 237 | 7.0 | 13.0 | 0.00 | 0.00 | 0.00 | 45 | 1012.4 |
| 20260507040029 | 67 | 245 | 7.0 | 13.0 | 0.00 | 0.00 | 0.00 | 45 | 1012.4 |
| 20260507035936 | 67 | 234 | 7.0 | 13.0 | 0.00 | 0.00 | 0.00 | 44 | 1012.4 |
| 20260507035833 | 68 | 258 | 8.0 | 13.0 | 0.00 | 0.00 | 0.00 | 44 | 1012.4 |
| 20260507035743 | 68 | 244 | 9.0 | 13.0 | 0.00 | 0.00 | 0.00 | 44 | 1012.3 |
| 20260507035618 | 68 | 238 | 9.0 | 12.0 | 0.00 | 0.00 | 0.00 | 43 | 1012.3 |
| 20260507035515 | 68 | 237 | 9.0 | 13.0 | 0.00 | 0.00 | 0.00 | 43 | 1012.3 |
| 20260507035419 | 68 | 252 | 8.0 | 13.0 | 0.00 | 0.00 | 0.00 | 42 | 1012.4 |
| 20260507035316 | 68 | 249 | 6.0 | 13.0 | 0.00 | 0.00 | 0.00 | 40 | 1012.3 |
| 20260507035244 | 68 | 239 | 6.0 | 13.0 | 0.00 | 0.00 | 0.00 | 40 | 1012.3 |
| 20260507035122 | 68 | 257 | 5.0 | 13.0 | 0.00 | 0.00 | 0.00 | 40 | 1012.4 |
| 20260507035020 | 68 | 275 | 6.0 | 13.0 | 0.00 | 0.00 | 0.00 | 40 | 1012.3 |
| 20260507034926 | 68 | 278 | 7.0 | 13.0 | 0.00 | 0.00 | 0.00 | 40 | 1012.3 |
| 20260507034822 | 68 | 262 | 9.0 | 14.0 | 0.00 | 0.00 | 0.00 | 39 | 1012.3 |
| 20260507034749 | 68 | 270 | 8.0 | 14.0 | 0.00 | 0.00 | 0.00 | 39 | 1012.3 |
| 20260507034623 | 68 | 267 | 8.0 | 14.0 | 0.00 | 0.00 | 0.00 | 39 | 1012.3 |
| 20260507034529 | 68 | 278 | 8.0 | 14.0 | 0.00 | 0.00 | 0.00 | 39 | 1012.3 |
| 20260507034445 | 68 | 297 | 7.0 | 14.0 | 0.00 | 0.00 | 0.00 | 39 | 1012.3 |
| 20260507034334 | 68 | 292 | 6.0 | 14.0 | 0.00 | 0.00 | 0.00 | 39 | 1012.3 |
| 20260507034300 | 68 | 296 | 6.0 | 14.0 | 0.00 | 0.00 | 0.00 | 39 | 1012.3 |
| 20260507034134 | 68 | 283 | 8.0 | 14.0 | 0.00 | 0.00 | 0.00 | 39 | 1012.2 |
| 20260507034030 | 69 | 300 | 8.0 | 14.0 | 0.00 | 0.00 | 0.00 | 39 | 1012.3 |
| 20260507033936 | 69 | 268 | 7.0 | 11.0 | 0.00 | 0.00 | 0.00 | 38 | 1012.2 |
| 20260507033833 | 69 | 265 | 8.0 | 11.0 | 0.00 | 0.00 | 0.00 | 38 | 1012.2 |
| 20260507033740 | 69 | 281 | 7.0 | 11.0 | 0.00 | 0.00 | 0.00 | 38 | 1012.2 |
| 20260507033640 | 69 | 267 | 5.0 | 11.0 | 0.00 | 0.00 | 0.00 | 38 | 1012.2 |
| 20260507033545 | 69 | 259 | 6.0 | 11.0 | 0.00 | 0.00 | 0.00 | 38 | 1012.2 |
| 20260507033449 | 69 | 270 | 7.0 | 12.0 | 0.00 | 0.00 | 0.00 | 38 | 1012.2 |
| 20260507033324 | 69 | 289 | 7.0 | 14.0 | 0.00 | 0.00 | 0.00 | 38 | 1012.2 |
| 20260507033221 | 69 | 277 | 6.0 | 14.0 | 0.00 | 0.00 | 0.00 | 38 | 1012.2 |
| 20260507033128 | 69 | 284 | 7.0 | 14.0 | 0.00 | 0.00 | 0.00 | 37 | 1012.2 |
| 20260507033023 | 69 | 289 | 7.0 | 14.0 | 0.00 | 0.00 | 0.00 | 37 | 1012.2 |
| 20260507032928 | 69 | 269 | 7.0 | 14.0 | 0.00 | 0.00 | 0.00 | 37 | 1012.2 |
| 20260507032828 | 69 | 271 | 7.0 | 14.0 | 0.00 | 0.00 | 0.00 | 37 | 1012.1 |
| 20260507032735 | 69 | 295 | 8.0 | 14.0 | 0.00 | 0.00 | 0.00 | 38 | 1012.1 |
| 20260507032642 | 69 | 250 | 8.0 | 14.0 | 0.00 | 0.00 | 0.00 | 37 | 1012.1 |
| 20260507032536 | 69 | 289 | 10.0 | 14.0 | 0.00 | 0.00 | 0.00 | 38 | 1012.1 |
| 20260507032502 | 69 | 264 | 10.0 | 14.0 | 0.00 | 0.00 | 0.00 | 38 | 1012.1 |
| 20260507032317 | 69 | 273 | 9.0 | 16.0 | 0.00 | 0.00 | 0.00 | 38 | 1012.1 |
| 20260507032222 | 70 | 283 | 8.0 | 16.0 | 0.00 | 0.00 | 0.00 | 38 | 1012.1 |
| 20260507032138 | 70 | 277 | 7.0 | 16.0 | 0.00 | 0.00 | 0.00 | 37 | 1012.1 |
| 20260507032028 | 70 | 281 | 8.0 | 16.0 | 0.00 | 0.00 | 0.00 | 37 | 1012.1 |
| 20260507031926 | 70 | 281 | 8.0 | 16.0 | 0.00 | 0.00 | 0.00 | 37 | 1012.0 |
| 20260507031833 | 70 | 283 | 7.0 | 16.0 | 0.00 | 0.00 | 0.00 | 37 | 1012.0 |
| 20260507031725 | 70 | 306 | 8.0 | 16.0 | 0.00 | 0.00 | 0.00 | 37 | 1012.0 |
| 20260507031652 | 70 | 304 | 10.0 | 16.0 | 0.00 | 0.00 | 0.00 | 37 | 1012.0 |
| 20260507031555 | 70 | 290 | 10.0 | 16.0 | 0.00 | 0.00 | 0.00 | 37 | 1012.0 |
| 20260507031430 | 70 | 272 | 9.0 | 16.0 | 0.00 | 0.00 | 0.00 | 38 | 1011.9 |
| 20260507031336 | 70 | 294 | 10.0 | 16.0 | 0.00 | 0.00 | 0.00 | 37 | 1012.0 |
| 20260507031216 | 70 | 279 | 10.0 | 18.0 | 0.00 | 0.00 | 0.00 | 38 | 1011.9 |
| 20260507031142 | 70 | 302 | 10.0 | 18.0 | 0.00 | 0.00 | 0.00 | 38 | 1011.9 |
| 20260507031016 | 70 | 271 | 9.0 | 18.0 | 0.00 | 0.00 | 0.00 | 38 | 1011.9 |
| 20260507030914 | 70 | 294 | 10.0 | 18.0 | 0.00 | 0.00 | 0.00 | 38 | 1011.9 |
| 20260507030819 | 70 | 291 | 9.0 | 18.0 | 0.00 | 0.00 | 0.00 | 38 | 1011.9 |
| 20260507030747 | 70 | 294 | 10.0 | 18.0 | 0.00 | 0.00 | 0.00 | 37 | 1011.9 |
| 20260507030619 | 70 | 265 | 11.0 | 18.0 | 0.00 | 0.00 | 0.00 | 37 | 1011.9 |
| 20260507030529 | 70 | 296 | 11.0 | 18.0 | 0.00 | 0.00 | 0.00 | 38 | 1011.9 |
| 20260507030426 | 70 | 304 | 9.0 | 17.0 | 0.00 | 0.00 | 0.00 | 38 | 1011.9 |
| 20260507030324 | 70 | 257 | 9.0 | 19.0 | 0.00 | 0.00 | 0.00 | 37 | 1011.9 |
| 20260507030230 | 71 | 302 | 9.0 | 19.0 | 0.00 | 0.00 | 0.00 | 37 | 1011.9 |
| 20260507030128 | 71 | 295 | 8.0 | 19.0 | 0.00 | 0.00 | 0.00 | 37 | 1011.9 |
| 20260507030034 | 71 | 284 | 10.0 | 19.0 | 0.00 | 0.00 | 0.00 | 37 | 1011.9 |
| 20260507025948 | 71 | 300 | 9.0 | 19.0 | 0.00 | 0.00 | 0.00 | 37 | 1011.9 |
| 20260507025837 | 71 | 312 | 8.0 | 19.0 | 0.00 | 0.00 | 0.00 | 37 | 1011.9 |
| 20260507025714 | 71 | 300 | 10.0 | 19.0 | 0.00 | 0.00 | 0.00 | 36 | 1011.9 |
| 20260507025641 | 71 | 301 | 10.0 | 19.0 | 0.00 | 0.00 | 0.00 | 36 | 1011.9 |
| 20260507025517 | 71 | 276 | 12.0 | 19.0 | 0.00 | 0.00 | 0.00 | 36 | 1011.9 |
| 20260507025433 | 71 | 314 | 11.0 | 17.0 | 0.00 | 0.00 | 0.00 | 36 | 1011.9 |
| 20260507025338 | 71 | 285 | 10.0 | 17.0 | 0.00 | 0.00 | 0.00 | 37 | 1011.9 |
| 20260507025222 | 71 | 297 | 9.0 | 17.0 | 0.00 | 0.00 | 0.00 | 37 | 1011.8 |
| 20260507025118 | 71 | 318 | 10.0 | 17.0 | 0.00 | 0.00 | 0.00 | 37 | 1011.9 |
| 20260507025044 | 71 | 312 | 10.0 | 16.0 | 0.00 | 0.00 | 0.00 | 37 | 1011.8 |
| 20260507024948 | 71 | 292 | 9.0 | 14.0 | 0.00 | 0.00 | 0.00 | 37 | 1011.8 |
| 20260507024825 | 71 | 316 | 9.0 | 16.0 | 0.00 | 0.00 | 0.00 | 37 | 1011.8 |
| 20260507024731 | 71 | 291 | 9.0 | 16.0 | 0.00 | 0.00 | 0.00 | 37 | 1011.8 |
| 20260507024631 | 71 | 278 | 8.0 | 16.0 | 0.00 | 0.00 | 0.00 | 37 | 1011.8 |
| 20260507024538 | 71 | 323 | 8.0 | 16.0 | 0.00 | 0.00 | 0.00 | 37 | 1011.8 |
| 20260507024433 | 71 | 296 | 7.0 | 16.0 | 0.00 | 0.00 | 0.00 | 37 | 1011.8 |
| 20260507024338 | 72 | 268 | 7.0 | 16.0 | 0.00 | 0.00 | 0.00 | 37 | 1011.8 |
| 20260507024216 | 72 | 304 | 9.0 | 16.0 | 0.00 | 0.00 | 0.00 | 37 | 1011.8 |
| 20260507024121 | 72 | 289 | 9.0 | 16.0 | 0.00 | 0.00 | 0.00 | 37 | 1011.8 |
| 20260507024018 | 72 | 292 | 8.0 | 15.0 | 0.00 | 0.00 | 0.00 | 37 | 1011.8 |
| 20260507023914 | 72 | 350 | 8.0 | 16.0 | 0.00 | 0.00 | 0.00 | 37 | 1011.8 |
| 20260507023840 | 72 | 267 | 8.0 | 16.0 | 0.00 | 0.00 | 0.00 | 37 | 1011.8 |
| 20260507023732 | 72 | 295 | 9.0 | 16.0 | 0.00 | 0.00 | 0.00 | 37 | 1011.8 |
| 20260507023626 | 72 | 305 | 10.0 | 16.0 | 0.00 | 0.00 | 0.00 | 37 | 1011.8 |
| 20260507023532 | 72 | 316 | 9.0 | 16.0 | 0.00 | 0.00 | 0.00 | 37 | 1011.8 |
| 20260507023429 | 72 | 287 | 8.0 | 16.0 | 0.00 | 0.00 | 0.00 | 37 | 1011.8 |
| 20260507023336 | 72 | 303 | 8.0 | 16.0 | 0.00 | 0.00 | 0.00 | 36 | 1011.8 |
| 20260507023232 | 72 | 285 | 9.0 | 16.0 | 0.00 | 0.00 | 0.00 | 36 | 1011.8 |
| 20260507023136 | 72 | 325 | 9.0 | 16.0 | 0.00 | 0.00 | 0.00 | 36 | 1011.7 |
| 20260507023016 | 72 | 348 | 7.0 | 16.0 | 0.00 | 0.00 | 0.00 | 37 | 1011.7 |
| 20260507022923 | 72 | 316 | 7.0 | 16.0 | 0.00 | 0.00 | 0.00 | 37 | 1011.7 |
| 20260507022820 | 72 | 323 | 9.0 | 16.0 | 0.00 | 0.00 | 0.00 | 37 | 1011.7 |
| 20260507022748 | 72 | 314 | 10.0 | 16.0 | 0.00 | 0.00 | 0.00 | 37 | 1011.7 |
| 20260507022623 | 72 | 303 | 11.0 | 16.0 | 0.00 | 0.00 | 0.00 | 37 | 1011.7 |
| 20260507022530 | 72 | 297 | 12.0 | 16.0 | 0.00 | 0.00 | 0.00 | 36 | 1011.7 |
| 20260507022447 | 72 | 325 | 11.0 | 16.0 | 0.00 | 0.00 | 0.00 | 37 | 1011.7 |
| 20260507022331 | 72 | 316 | 9.0 | 16.0 | 0.00 | 0.00 | 0.00 | 37 | 1011.6 |
| 20260507022242 | 72 | 303 | 7.0 | 14.0 | 0.00 | 0.00 | 0.00 | 37 | 1011.6 |
| 20260507022140 | 72 | 292 | 7.0 | 14.0 | 0.00 | 0.00 | 0.00 | 37 | 1011.6 |
| 20260507022103 | 72 | 277 | 8.0 | 14.0 | 0.00 | 0.00 | 0.00 | 37 | 1011.7 |
| 20260507021940 | 72 | 312 | 8.0 | 14.0 | 0.00 | 0.00 | 0.00 | 37 | 1011.6 |
| 20260507021824 | 72 | 314 | 9.0 | 14.0 | 0.00 | 0.00 | 0.00 | 37 | 1011.6 |
| 20260507021723 | 72 | 321 | 9.0 | 14.0 | 0.00 | 0.00 | 0.00 | 37 | 1011.6 |
| 20260507021617 | 72 | 312 | 10.0 | 14.0 | 0.00 | 0.00 | 0.00 | 37 | 1011.6 |
| 20260507021528 | 72 | 304 | 10.0 | 14.0 | 0.00 | 0.00 | 0.00 | 37 | 1011.6 |
| 20260507021454 | 72 | 317 | 9.0 | 14.0 | 0.00 | 0.00 | 0.00 | 37 | 1011.6 |
| 20260507021329 | 72 | 333 | 9.0 | 14.0 | 0.00 | 0.00 | 0.00 | 37 | 1011.7 |
| 20260507021236 | 72 | 306 | 8.0 | 14.0 | 0.00 | 0.00 | 0.00 | 37 | 1011.6 |
| 20260507021133 | 72 | 300 | 7.0 | 14.0 | 0.00 | 0.00 | 0.00 | 37 | 1011.6 |
| 20260507021037 | 72 | 316 | 7.0 | 12.0 | 0.00 | 0.00 | 0.00 | 37 | 1011.5 |
| 20260507021003 | 72 | 330 | 7.0 | 12.0 | 0.00 | 0.00 | 0.00 | 37 | 1011.6 |
| 20260507020818 | 72 | 314 | 6.0 | 12.0 | 0.00 | 0.00 | 0.00 | 38 | 1011.6 |
| 20260507020720 | 72 | 296 | 7.0 | 12.0 | 0.00 | 0.00 | 0.00 | 38 | 1011.5 |
| 20260507020614 | 72 | 300 | 8.0 | 13.0 | 0.00 | 0.00 | 0.00 | 37 | 1011.5 |
| 20260507020521 | 72 | 266 | 8.0 | 16.0 | 0.00 | 0.00 | 0.00 | 37 | 1011.6 |
| 20260507020419 | 73 | 304 | 6.0 | 16.0 | 0.00 | 0.00 | 0.00 | 37 | 1011.6 |
| 20260507020325 | 73 | 333 | 6.0 | 16.0 | 0.00 | 0.00 | 0.00 | 37 | 1011.6 |
| 20260507020222 | 73 | 308 | 8.0 | 16.0 | 0.00 | 0.00 | 0.00 | 37 | 1011.6 |
| 20260507020149 | 73 | 346 | 8.0 | 16.0 | 0.00 | 0.00 | 0.00 | 37 | 1011.6 |
| 20260507020027 | 73 | 283 | 7.0 | 16.0 | 0.00 | 0.00 | 0.00 | 37 | 1011.6 |
| 20260507015931 | 73 | 312 | 9.0 | 16.0 | 0.00 | 0.00 | 0.00 | 36 | 1011.6 |
| 20260507015826 | 73 | 295 | 11.0 | 16.0 | 0.00 | 0.00 | 0.00 | 36 | 1011.6 |
| 20260507015753 | 73 | 310 | 10.0 | 16.0 | 0.00 | 0.00 | 0.00 | 36 | 1011.6 |
| 20260507015625 | 73 | 312 | 9.0 | 17.0 | 0.00 | 0.00 | 0.00 | 36 | 1011.6 |
| 20260507015530 | 73 | 325 | 9.0 | 17.0 | 0.00 | 0.00 | 0.00 | 36 | 1011.6 |
| 20260507015428 | 73 | 276 | 7.0 | 17.0 | 0.00 | 0.00 | 0.00 | 36 | 1011.6 |
| 20260507015319 | 73 | 294 | 6.0 | 17.0 | 0.00 | 0.00 | 0.00 | 36 | 1011.5 |
| 20260507015216 | 73 | 323 | 10.0 | 17.0 | 0.00 | 0.00 | 0.00 | 35 | 1011.5 |
| 20260507015143 | 73 | 299 | 11.0 | 17.0 | 0.00 | 0.00 | 0.00 | 35 | 1011.5 |
| 20260507015016 | 73 | 279 | 11.0 | 17.0 | 0.00 | 0.00 | 0.00 | 35 | 1011.5 |
| 20260507014920 | 73 | 283 | 10.0 | 17.0 | 0.00 | 0.00 | 0.00 | 35 | 1011.5 |
| 20260507014845 | 73 | 285 | 10.0 | 16.0 | 0.00 | 0.00 | 0.00 | 35 | 1011.4 |
| 20260507014720 | 73 | 302 | 12.0 | 16.0 | 0.00 | 0.00 | 0.00 | 35 | 1011.5 |
| 20260507014629 | 73 | 307 | 11.0 | 16.0 | 0.00 | 0.00 | 0.00 | 36 | 1011.5 |
| 20260507014529 | 74 | 299 | 10.0 | 16.0 | 0.00 | 0.00 | 0.00 | 36 | 1011.5 |
| 20260507014426 | 74 | 264 | 9.0 | 16.0 | 0.00 | 0.00 | 0.00 | 35 | 1011.6 |
| 20260507014332 | 74 | 280 | 10.0 | 16.0 | 0.00 | 0.00 | 0.00 | 35 | 1011.6 |
| 20260507014240 | 74 | 295 | 9.0 | 16.0 | 0.00 | 0.00 | 0.00 | 35 | 1011.6 |
| 20260507014115 | 74 | 314 | 10.0 | 16.0 | 0.00 | 0.00 | 0.00 | 35 | 1011.5 |
| 20260507014043 | 74 | 302 | 9.0 | 16.0 | 0.00 | 0.00 | 0.00 | 35 | 1011.6 |
| 20260507013918 | 74 | 304 | 9.0 | 16.0 | 0.00 | 0.00 | 0.00 | 35 | 1011.5 |
| 20260507013820 | 74 | 333 | 9.0 | 16.0 | 0.00 | 0.00 | 0.00 | 35 | 1011.6 |
| 20260507013725 | 74 | 307 | 8.0 | 16.0 | 0.00 | 0.00 | 0.00 | 35 | 1011.6 |
| 20260507013632 | 74 | 336 | 8.0 | 16.0 | 0.00 | 0.00 | 0.00 | 35 | 1011.6 |
| 20260507013527 | 74 | 308 | 7.0 | 14.0 | 0.00 | 0.00 | 0.00 | 36 | 1011.5 |
| 20260507013454 | 74 | 310 | 6.0 | 14.0 | 0.00 | 0.00 | 0.00 | 36 | 1011.4 |
| 20260507013348 | 74 | 310 | 6.0 | 14.0 | 0.00 | 0.00 | 0.00 | 36 | 1011.4 |
| 20260507013232 | 74 | 275 | 7.0 | 14.0 | 0.00 | 0.00 | 0.00 | 36 | 1011.4 |
| 20260507013128 | 74 | 291 | 7.0 | 14.0 | 0.00 | 0.00 | 0.00 | 36 | 1011.5 |
| 20260507013037 | 74 | 274 | 7.0 | 14.0 | 0.00 | 0.00 | 0.00 | 36 | 1011.5 |
| 20260507012914 | 74 | 310 | 8.0 | 14.0 | 0.00 | 0.00 | 0.00 | 36 | 1011.5 |
| 20260507012819 | 74 | 283 | 8.0 | 14.0 | 0.00 | 0.00 | 0.00 | 36 | 1011.5 |
| 20260507012719 | 74 | 280 | 7.0 | 15.0 | 0.00 | 0.00 | 0.00 | 36 | 1011.4 |
| 20260507012615 | 74 | 294 | 7.0 | 15.0 | 0.00 | 0.00 | 0.00 | 36 | 1011.5 |
| 20260507012522 | 74 | 283 | 8.0 | 15.0 | 0.00 | 0.00 | 0.00 | 36 | 1011.5 |
| 20260507012422 | 74 | 270 | 9.0 | 15.0 | 0.00 | 0.00 | 0.00 | 35 | 1011.4 |
| 20260507012329 | 74 | 275 | 10.0 | 15.0 | 0.00 | 0.00 | 0.00 | 36 | 1011.4 |
| 20260507012227 | 74 | 284 | 10.0 | 18.0 | 0.00 | 0.00 | 0.00 | 35 | 1011.6 |
| 20260507012135 | 74 | 262 | 10.0 | 18.0 | 0.00 | 0.00 | 0.00 | 35 | 1011.5 |
| 20260507012029 | 74 | 281 | 10.0 | 18.0 | 0.00 | 0.00 | 0.00 | 35 | 1011.5 |
| 20260507011926 | 74 | 286 | 10.0 | 18.0 | 0.00 | 0.00 | 0.00 | 35 | 1011.4 |
| 20260507011832 | 74 | 271 | 10.0 | 18.0 | 0.00 | 0.00 | 0.00 | 35 | 1011.4 |
| 20260507011735 | 74 | 285 | 10.0 | 18.0 | 0.00 | 0.00 | 0.00 | 34 | 1011.4 |
| 20260507011639 | 74 | 312 | 11.0 | 19.0 | 0.00 | 0.00 | 0.00 | 34 | 1011.4 |
| 20260507011515 | 74 | 285 | 11.0 | 19.0 | 0.00 | 0.00 | 0.00 | 34 | 1011.4 |
| 20260507011420 | 74 | 301 | 9.0 | 19.0 | 0.00 | 0.00 | 0.00 | 34 | 1011.4 |
| 20260507011318 | 74 | 283 | 10.0 | 19.0 | 0.00 | 0.00 | 0.00 | 34 | 1011.4 |
| 20260507011227 | 74 | 279 | 11.0 | 19.0 | 0.00 | 0.00 | 0.00 | 34 | 1011.4 |
| 20260507011123 | 74 | 318 | 11.0 | 19.0 | 0.00 | 0.00 | 0.00 | 34 | 1011.4 |
| 20260507011034 | 74 | 272 | 12.0 | 19.0 | 0.00 | 0.00 | 0.00 | 33 | 1011.4 |
| 20260507010932 | 74 | 288 | 14.0 | 19.0 | 0.00 | 0.00 | 0.00 | 33 | 1011.4 |
| 20260507010830 | 74 | 280 | 12.0 | 19.0 | 0.00 | 0.00 | 0.00 | 33 | 1011.5 |
| 20260507010736 | 75 | 258 | 11.0 | 18.0 | 0.00 | 0.00 | 0.00 | 33 | 1011.5 |
| 20260507010704 | 75 | 258 | 10.0 | 17.0 | 0.00 | 0.00 | 0.00 | 33 | 1011.4 |
| 20260507010518 | 75 | 283 | 11.0 | 17.0 | 0.00 | 0.00 | 0.00 | 33 | 1011.4 |
| 20260507010418 | 75 | 291 | 9.0 | 17.0 | 0.00 | 0.00 | 0.00 | 33 | 1011.4 |
| 20260507010342 | 75 | 256 | 7.0 | 17.0 | 0.00 | 0.00 | 0.00 | 33 | 1011.4 |
| 20260507010221 | 75 | 286 | 7.0 | 17.0 | 0.00 | 0.00 | 0.00 | 33 | 1011.4 |
| 20260507010116 | 75 | 306 | 11.0 | 18.0 | 0.00 | 0.00 | 0.00 | 33 | 1011.4 |
| 20260507010019 | 75 | 304 | 12.0 | 18.0 | 0.00 | 0.00 | 0.00 | 33 | 1011.5 |
| 20260507005916 | 75 | 285 | 12.0 | 18.0 | 0.00 | 0.00 | 0.00 | 32 | 1011.5 |
| 20260507005821 | 75 | 302 | 12.0 | 18.0 | 0.00 | 0.00 | 0.00 | 32 | 1011.5 |
| 20260507005723 | 75 | 275 | 12.0 | 18.0 | 0.00 | 0.00 | 0.00 | 32 | 1011.5 |
| 20260507005629 | 75 | 274 | 13.0 | 18.0 | 0.00 | 0.00 | 0.00 | 32 | 1011.5 |
| 20260507005523 | 75 | 279 | 12.0 | 18.0 | 0.00 | 0.00 | 0.00 | 31 | 1011.4 |
| 20260507005426 | 75 | 283 | 12.0 | 18.0 | 0.00 | 0.00 | 0.00 | 31 | 1011.4 |
| 20260507005323 | 75 | 296 | 12.0 | 18.0 | 0.00 | 0.00 | 0.00 | 31 | 1011.5 |
| 20260507005220 | 75 | 286 | 10.0 | 17.0 | 0.00 | 0.00 | 0.00 | 31 | 1011.4 |
| 20260507005128 | 75 | 277 | 11.0 | 17.0 | 0.00 | 0.00 | 0.00 | 31 | 1011.4 |
| 20260507005028 | 75 | 270 | 10.0 | 17.0 | 0.00 | 0.00 | 0.00 | 31 | 1011.4 |
| 20260507004934 | 75 | 276 | 10.0 | 18.0 | 0.00 | 0.00 | 0.00 | 30 | 1011.5 |
| 20260507004850 | 76 | 294 | 11.0 | 23.0 | 0.00 | 0.00 | 0.00 | 30 | 1011.4 |
| 20260507004733 | 76 | 291 | 11.0 | 23.0 | 0.00 | 0.00 | 0.00 | 30 | 1011.4 |
| 20260507004633 | 76 | 295 | 11.0 | 23.0 | 0.00 | 0.00 | 0.00 | 30 | 1011.3 |
| 20260507004537 | 76 | 262 | 11.0 | 23.0 | 0.00 | 0.00 | 0.00 | 30 | 1011.3 |
| 20260507004419 | 76 | 288 | 12.0 | 23.0 | 0.00 | 0.00 | 0.00 | 30 | 1011.4 |
| 20260507004316 | 76 | 285 | 11.0 | 23.0 | 0.00 | 0.00 | 0.00 | 29 | 1011.3 |
| 20260507004224 | 76 | 269 | 12.0 | 23.0 | 0.00 | 0.00 | 0.00 | 30 | 1011.4 |
| 20260507004118 | 76 | 282 | 14.0 | 23.0 | 0.00 | 0.00 | 0.00 | 30 | 1011.3 |
| 20260507004023 | 76 | 281 | 14.0 | 23.0 | 0.00 | 0.00 | 0.00 | 30 | 1011.3 |
| 20260507003920 | 76 | 256 | 13.0 | 23.0 | 0.00 | 0.00 | 0.00 | 30 | 1011.3 |
| 20260507003825 | 76 | 310 | 15.0 | 23.0 | 0.00 | 0.00 | 0.00 | 30 | 1011.4 |
| 20260507003722 | 77 | 288 | 16.0 | 23.0 | 0.00 | 0.00 | 0.00 | 30 | 1011.4 |
| 20260507003634 | 77 | 291 | 16.0 | 23.0 | 0.00 | 0.00 | 0.00 | 30 | 1011.4 |
| 20260507003530 | 77 | 300 | 14.0 | 21.0 | 0.00 | 0.00 | 0.00 | 29 | 1011.3 |
| 20260507003436 | 77 | 261 | 14.0 | 21.0 | 0.00 | 0.00 | 0.00 | 29 | 1011.3 |
| 20260507003334 | 77 | 272 | 12.0 | 21.0 | 0.00 | 0.00 | 0.00 | 30 | 1011.3 |
| 20260507003302 | 77 | 260 | 12.0 | 20.0 | 0.00 | 0.00 | 0.00 | 30 | 1011.3 |
| 20260507003135 | 77 | 281 | 12.0 | 22.0 | 0.00 | 0.00 | 0.00 | 30 | 1011.3 |
| 20260507003019 | 77 | 294 | 10.0 | 22.0 | 0.00 | 0.00 | 0.00 | 31 | 1011.3 |
| 20260507002920 | 77 | 278 | 10.0 | 22.0 | 0.00 | 0.00 | 0.00 | 31 | 1011.2 |
| 20260507002815 | 77 | 291 | 11.0 | 22.0 | 0.00 | 0.00 | 0.00 | 31 | 1011.2 |
| 20260507002723 | 77 | 277 | 12.0 | 22.0 | 0.00 | 0.00 | 0.00 | 31 | 1011.2 |
| 20260507002618 | 78 | 314 | 14.0 | 22.0 | 0.00 | 0.00 | 0.00 | 31 | 1011.2 |
| 20260507002524 | 78 | 281 | 15.0 | 24.0 | 0.00 | 0.00 | 0.00 | 31 | 1011.2 |
| 20260507002422 | 78 | 280 | 15.0 | 24.0 | 0.00 | 0.00 | 0.00 | 31 | 1011.2 |
| 20260507002322 | 78 | 324 | 15.0 | 24.0 | 0.00 | 0.00 | 0.00 | 31 | 1011.2 |
| 20260507002231 | 78 | 294 | 13.0 | 24.0 | 0.00 | 0.00 | 0.00 | 31 | 1011.2 |
| 20260507002124 | 78 | 293 | 13.0 | 24.0 | 0.00 | 0.00 | 0.00 | 31 | 1011.2 |
| 20260507002030 | 78 | 298 | 13.0 | 24.0 | 0.00 | 0.00 | 0.00 | 30 | 1011.2 |
| 20260507001926 | 78 | 283 | 14.0 | 24.0 | 0.00 | 0.00 | 0.00 | 30 | 1011.2 |
| 20260507001830 | 79 | 301 | 15.0 | 24.0 | 0.00 | 0.00 | 0.00 | 30 | 1011.2 |
| 20260507001754 | 79 | 296 | 14.0 | 24.0 | 0.00 | 0.00 | 0.00 | 30 | 1011.1 |
| 20260507001640 | 79 | 303 | 15.0 | 24.0 | 0.00 | 0.00 | 0.00 | 31 | 1011.1 |
| 20260507001536 | 79 | 272 | 13.0 | 19.0 | 0.00 | 0.00 | 0.00 | 31 | 1011.1 |
| 20260507001426 | 79 | 284 | 13.0 | 18.0 | 0.00 | 0.00 | 0.00 | 31 | 1011.1 |
| 20260507001322 | 79 | 296 | 11.0 | 18.0 | 0.00 | 0.00 | 0.00 | 31 | 1011.1 |
| 20260507001229 | 79 | 308 | 10.0 | 18.0 | 0.00 | 0.00 | 0.00 | 31 | 1011.1 |
| 20260507001123 | 79 | 273 | 12.0 | 23.0 | 0.00 | 0.00 | 0.00 | 30 | 1011.1 |
| 20260507001028 | 79 | 289 | 11.0 | 23.0 | 0.00 | 0.00 | 0.00 | 31 | 1011.1 |
| 20260507000924 | 79 | 265 | 10.0 | 23.0 | 0.00 | 0.00 | 0.00 | 30 | 1011.0 |
| 20260507000850 | 79 | 299 | 11.0 | 23.0 | 0.00 | 0.00 | 0.00 | 31 | 1011.0 |
| 20260507000737 | 79 | 265 | 11.0 | 23.0 | 0.00 | 0.00 | 0.00 | 31 | 1011.0 |
| 20260507000616 | 79 | 281 | 11.0 | 23.0 | 0.00 | 0.00 | 0.00 | 30 | 1011.0 |
| 20260507000543 | 79 | 246 | 13.0 | 23.0 | 0.00 | 0.00 | 0.00 | 30 | 1011.0 |
| 20260507000420 | 79 | 275 | 14.0 | 23.0 | 0.00 | 0.00 | 0.00 | 29 | 1011.0 |
| 20260507000325 | 79 | 264 | 16.0 | 24.0 | 0.00 | 0.00 | 0.00 | 29 | 1011.1 |
| 20260507000224 | 79 | 307 | 16.0 | 23.0 | 0.00 | 0.00 | 0.00 | 30 | 1011.1 |
| 20260507000117 | 79 | 294 | 14.0 | 23.0 | 0.00 | 0.00 | 0.00 | 29 | 1011.0 |
| 20260507000023 | 79 | 258 | 14.0 | 21.0 | 0.00 | 0.00 | 0.00 | 29 | 1011.0 |
| 20260506235924 | 79 | 283 | 12.0 | 21.0 | 0.00 | 0.00 | 0.00 | 29 | 1010.9 |
| 20260506235830 | 79 | 291 | 10.0 | 21.0 | 0.00 | 0.00 | 0.00 | 29 | 1010.9 |
| 20260506235749 | 79 | 295 | 12.0 | 21.0 | 0.00 | 0.00 | 0.00 | 28 | 1011.0 |
| 20260506235613 | 79 | 303 | 13.0 | 21.0 | 0.00 | 0.00 | 0.00 | 28 | 1011.0 |
| 20260506235529 | 79 | 309 | 12.0 | 21.0 | 0.00 | 0.00 | 0.00 | 28 | 1011.0 |
| 20260506235435 | 79 | 294 | 11.0 | 21.0 | 0.00 | 0.00 | 0.00 | 28 | 1011.0 |
| 20260506235315 | 79 | 275 | 13.0 | 26.0 | 0.00 | 0.00 | 0.00 | 29 | 1011.0 |
| 20260506235241 | 79 | 288 | 14.0 | 26.0 | 0.00 | 0.00 | 0.00 | 29 | 1011.0 |
| 20260506235138 | 79 | 281 | 15.0 | 26.0 | 0.00 | 0.00 | 0.00 | 28 | 1011.0 |
| 20260506235014 | 79 | 253 | 14.0 | 26.0 | 0.00 | 0.00 | 0.00 | 27 | 1011.0 |
| 20260506234920 | 79 | 287 | 14.0 | 26.0 | 0.00 | 0.00 | 0.00 | 28 | 1010.9 |
| 20260506234817 | 80 | 284 | 16.0 | 26.0 | 0.00 | 0.00 | 0.00 | 28 | 1011.0 |
| 20260506234725 | 80 | 264 | 15.0 | 26.0 | 0.00 | 0.00 | 0.00 | 28 | 1010.9 |
| 20260506234618 | 80 | 302 | 13.0 | 26.0 | 0.00 | 0.00 | 0.00 | 29 | 1010.9 |
| 20260506234548 | 80 | 260 | 11.0 | 26.0 | 0.00 | 0.00 | 0.00 | 29 | 1010.9 |
| 20260506234432 | 80 | 308 | 11.0 | 25.0 | 0.00 | 0.00 | 0.00 | 30 | 1010.9 |
| 20260506234328 | 80 | 269 | 14.0 | 25.0 | 0.00 | 0.00 | 0.00 | 31 | 1010.8 |
| 20260506234234 | 80 | 289 | 13.0 | 25.0 | 0.00 | 0.00 | 0.00 | 32 | 1010.9 |
| 20260506234132 | 80 | 273 | 12.0 | 22.0 | 0.00 | 0.00 | 0.00 | 33 | 1010.9 |
| 20260506234028 | 80 | 273 | 14.0 | 22.0 | 0.00 | 0.00 | 0.00 | 33 | 1010.8 |
| 20260506233934 | 80 | 283 | 13.0 | 22.0 | 0.00 | 0.00 | 0.00 | 33 | 1010.8 |
| 20260506233815 | 80 | 283 | 15.0 | 26.0 | 0.00 | 0.00 | 0.00 | 33 | 1010.8 |
| 20260506233743 | 80 | 299 | 16.0 | 26.0 | 0.00 | 0.00 | 0.00 | 33 | 1010.8 |
| 20260506233618 | 80 | 296 | 11.0 | 26.0 | 0.00 | 0.00 | 0.00 | 33 | 1010.9 |
| 20260506233536 | 80 | 293 | 10.0 | 26.0 | 0.00 | 0.00 | 0.00 | 34 | 1010.8 |
| 20260506233420 | 80 | 270 | 12.0 | 26.0 | 0.00 | 0.00 | 0.00 | 33 | 1010.9 |
| 20260506233316 | 80 | 343 | 14.0 | 26.0 | 0.00 | 0.00 | 0.00 | 33 | 1010.9 |
| 20260506233227 | 80 | 288 | 14.0 | 26.0 | 0.00 | 0.00 | 0.00 | 33 | 1010.9 |
| 20260506233123 | 80 | 338 | 16.0 | 26.0 | 0.00 | 0.00 | 0.00 | 33 | 1010.9 |
| 20260506233028 | 80 | 284 | 17.0 | 26.0 | 0.00 | 0.00 | 0.00 | 33 | 1010.9 |
| 20260506232925 | 81 | 291 | 14.0 | 27.0 | 0.00 | 0.00 | 0.00 | 32 | 1010.8 |
| 20260506232820 | 81 | 314 | 13.0 | 20.0 | 0.00 | 0.00 | 0.00 | 32 | 1010.8 |
| 20260506232727 | 81 | 296 | 13.0 | 20.0 | 0.00 | 0.00 | 0.00 | 31 | 1010.8 |
| 20260506232654 | 81 | 300 | 13.0 | 20.0 | 0.00 | 0.00 | 0.00 | 31 | 1010.8 |
| 20260506232532 | 81 | 317 | 14.0 | 20.0 | 0.00 | 0.00 | 0.00 | 31 | 1010.8 |
| 20260506232429 | 81 | 303 | 15.0 | 20.0 | 0.00 | 0.00 | 0.00 | 30 | 1010.8 |
| 20260506232334 | 81 | 310 | 14.0 | 20.0 | 0.00 | 0.00 | 0.00 | 30 | 1010.8 |
| 20260506232306 | 82 | 283 | 13.0 | 20.0 | 0.00 | 0.00 | 0.00 | 30 | 1010.8 |
| 20260506232118 | 82 | 280 | 13.0 | 20.0 | 0.00 | 0.00 | 0.00 | 30 | 1010.8 |
| 20260506232015 | 82 | 264 | 13.0 | 20.0 | 0.00 | 0.00 | 0.00 | 30 | 1010.7 |
| 20260506231923 | 82 | 268 | 14.0 | 20.0 | 0.00 | 0.00 | 0.00 | 30 | 1010.7 |
| 20260506231843 | 81 | 261 | 15.0 | 20.0 | 0.00 | 0.00 | 0.00 | 30 | 1010.8 |
| 20260506231728 | 81 | 296 | 12.0 | 20.0 | 0.00 | 0.00 | 0.00 | 30 | 1010.8 |
| 20260506231620 | 81 | 258 | 12.0 | 19.0 | 0.00 | 0.00 | 0.00 | 29 | 1010.7 |
| 20260506231526 | 81 | 307 | 14.0 | 19.0 | 0.00 | 0.00 | 0.00 | 29 | 1010.7 |
| 20260506231423 | 82 | 277 | 13.0 | 24.0 | 0.00 | 0.00 | 0.00 | 29 | 1010.7 |
| 20260506231328 | 82 | 282 | 12.0 | 24.0 | 0.00 | 0.00 | 0.00 | 28 | 1010.7 |
| 20260506231225 | 82 | 294 | 12.0 | 24.0 | 0.00 | 0.00 | 0.00 | 28 | 1010.7 |
| 20260506231138 | 82 | 287 | 11.0 | 24.0 | 0.00 | 0.00 | 0.00 | 28 | 1010.7 |
| 20260506231031 | 82 | 308 | 10.0 | 24.0 | 0.00 | 0.00 | 0.00 | 28 | 1010.7 |
| 20260506230927 | 82 | 275 | 11.0 | 24.0 | 0.00 | 0.00 | 0.00 | 28 | 1010.7 |
| 20260506230834 | 82 | 293 | 13.0 | 24.0 | 0.00 | 0.00 | 0.00 | 28 | 1010.7 |
| 20260506230802 | 82 | 280 | 14.0 | 24.0 | 0.00 | 0.00 | 0.00 | 28 | 1010.8 |
| 20260506230615 | 82 | 269 | 14.0 | 24.0 | 0.00 | 0.00 | 0.00 | 29 | 1010.8 |
| 20260506230532 | 82 | 238 | 13.0 | 24.0 | 0.00 | 0.00 | 0.00 | 28 | 1010.8 |
| 20260506230422 | 82 | 229 | 12.0 | 20.0 | 0.00 | 0.00 | 0.00 | 28 | 1010.7 |
| 20260506230317 | 82 | 252 | 12.0 | 19.0 | 0.00 | 0.00 | 0.00 | 28 | 1010.7 |
| 20260506230242 | 82 | 269 | 11.0 | 17.0 | 0.00 | 0.00 | 0.00 | 28 | 1010.7 |
| 20260506230129 | 82 | 292 | 10.0 | 16.0 | 0.00 | 0.00 | 0.00 | 28 | 1010.7 |
| 20260506230024 | 82 | 308 | 11.0 | 16.0 | 0.00 | 0.00 | 0.00 | 28 | 1010.7 |
| 20260506225931 | 82 | 279 | 11.0 | 20.0 | 0.00 | 0.00 | 0.00 | 28 | 1010.7 |
| 20260506225827 | 82 | 285 | 8.0 | 20.0 | 0.00 | 0.00 | 0.00 | 29 | 1010.6 |
| 20260506225736 | 82 | 272 | 8.0 | 25.0 | 0.00 | 0.00 | 0.00 | 28 | 1010.7 |
| 20260506225614 | 83 | 291 | 10.0 | 25.0 | 0.00 | 0.00 | 0.00 | 28 | 1010.7 |
| 20260506225520 | 83 | 319 | 11.0 | 25.0 | 0.00 | 0.00 | 0.00 | 28 | 1010.8 |
| 20260506225425 | 83 | 291 | 11.0 | 25.0 | 0.00 | 0.00 | 0.00 | 28 | 1010.7 |
| 20260506225342 | 83 | 285 | 11.0 | 25.0 | 0.00 | 0.00 | 0.00 | 28 | 1010.7 |
| 20260506225228 | 83 | 294 | 12.0 | 25.0 | 0.00 | 0.00 | 0.00 | 28 | 1010.7 |
| 20260506225122 | 83 | 265 | 13.0 | 25.0 | 0.00 | 0.00 | 0.00 | 27 | 1010.8 |
| 20260506225028 | 84 | 247 | 13.0 | 25.0 | 0.00 | 0.00 | 0.00 | 28 | 1010.8 |
| 20260506224924 | 84 | 283 | 13.0 | 25.0 | 0.00 | 0.00 | 0.00 | 27 | 1010.7 |
| 20260506224855 | 84 | 234 | 11.0 | 25.0 | 0.00 | 0.00 | 0.00 | 28 | 1010.7 |
| 20260506224730 | 84 | 271 | 10.0 | 21.0 | 0.00 | 0.00 | 0.00 | 28 | 1010.7 |
| 20260506224639 | 84 | 260 | 12.0 | 21.0 | 0.00 | 0.00 | 0.00 | 28 | 1010.7 |
| 20260506224515 | 84 | 286 | 11.0 | 21.0 | 0.00 | 0.00 | 0.00 | 27 | 1010.8 |
| 20260506224431 | 84 | 271 | 9.0 | 17.0 | 0.00 | 0.00 | 0.00 | 27 | 1010.8 |
| 20260506224336 | 84 | 283 | 10.0 | 17.0 | 0.00 | 0.00 | 0.00 | 27 | 1010.8 |
| 20260506224304 | 84 | 256 | 12.0 | 17.0 | 0.00 | 0.00 | 0.00 | 27 | 1010.8 |
| 20260506224123 | 84 | 256 | 11.0 | 17.0 | 0.00 | 0.00 | 0.00 | 27 | 1010.7 |
| 20260506224020 | 84 | 283 | 10.0 | 17.0 | 0.00 | 0.00 | 0.00 | 27 | 1010.7 |
| 20260506223927 | 84 | 284 | 9.0 | 17.0 | 0.00 | 0.00 | 0.00 | 28 | 1010.7 |
| 20260506223822 | 84 | 272 | 7.0 | 17.0 | 0.00 | 0.00 | 0.00 | 28 | 1010.8 |
| 20260506223728 | 84 | 282 | 9.0 | 17.0 | 0.00 | 0.00 | 0.00 | 27 | 1010.8 |
| 20260506223622 | 84 | 292 | 11.0 | 17.0 | 0.00 | 0.00 | 0.00 | 27 | 1010.7 |
| 20260506223529 | 84 | 321 | 11.0 | 17.0 | 0.00 | 0.00 | 0.00 | 28 | 1010.7 |
| 20260506223430 | 84 | 287 | 12.0 | 17.0 | 0.00 | 0.00 | 0.00 | 27 | 1010.7 |
| 20260506223314 | 84 | 311 | 10.0 | 17.0 | 0.00 | 0.00 | 0.00 | 27 | 1010.8 |
| 20260506223233 | 84 | 256 | 9.0 | 17.0 | 0.00 | 0.00 | 0.00 | 27 | 1010.8 |
| 20260506223117 | 84 | 295 | 8.0 | 16.0 | 0.00 | 0.00 | 0.00 | 27 | 1010.8 |
| 20260506223014 | 84 | 242 | 10.0 | 16.0 | 0.00 | 0.00 | 0.00 | 27 | 1010.9 |
| 20260506222937 | 84 | 304 | 10.0 | 16.0 | 0.00 | 0.00 | 0.00 | 27 | 1010.9 |
| 20260506222834 | 85 | 286 | 10.0 | 16.0 | 0.00 | 0.00 | 0.00 | 27 | 1010.8 |
| 20260506222737 | 85 | 290 | 11.0 | 16.0 | 0.00 | 0.00 | 0.00 | 27 | 1010.9 |
| 20260506222629 | 85 | 269 | 12.0 | 16.0 | 0.00 | 0.00 | 0.00 | 27 | 1010.9 |
| 20260506222544 | 85 | 307 | 10.0 | 15.0 | 0.00 | 0.00 | 0.00 | 27 | 1010.9 |
| 20260506222429 | 85 | 283 | 8.0 | 15.0 | 0.00 | 0.00 | 0.00 | 28 | 1010.9 |
| 20260506222355 | 85 | 289 | 7.0 | 15.0 | 0.00 | 0.00 | 0.00 | 27 | 1010.9 |
| 20260506222232 | 84 | 317 | 7.0 | 15.0 | 0.00 | 0.00 | 0.00 | 27 | 1010.8 |
| 20260506222129 | 84 | 302 | 8.0 | 15.0 | 0.00 | 0.00 | 0.00 | 27 | 1010.9 |
| 20260506222054 | 84 | 311 | 9.0 | 16.0 | 0.00 | 0.00 | 0.00 | 28 | 1010.9 |
| 20260506221938 | 84 | 298 | 9.0 | 16.0 | 0.00 | 0.00 | 0.00 | 28 | 1010.9 |
| 20260506221820 | 84 | 282 | 9.0 | 16.0 | 0.00 | 0.00 | 0.00 | 27 | 1010.8 |
| 20260506221719 | 84 | 299 | 9.0 | 16.0 | 0.00 | 0.00 | 0.00 | 27 | 1010.8 |
| 20260506221624 | 84 | 301 | 10.0 | 16.0 | 0.00 | 0.00 | 0.00 | 28 | 1010.8 |
| 20260506221522 | 84 | 285 | 9.0 | 16.0 | 0.00 | 0.00 | 0.00 | 28 | 1010.9 |
| 20260506221419 | 84 | 275 | 10.0 | 16.0 | 0.00 | 0.00 | 0.00 | 27 | 1010.9 |
| 20260506221326 | 84 | 271 | 12.0 | 19.0 | 0.00 | 0.00 | 0.00 | 27 | 1010.9 |
| 20260506221228 | 84 | 299 | 12.0 | 20.0 | 0.00 | 0.00 | 0.00 | 28 | 1010.9 |
| 20260506221135 | 84 | 312 | 9.0 | 20.0 | 0.00 | 0.00 | 0.00 | 27 | 1010.8 |
| 20260506221029 | 84 | 287 | 8.0 | 20.0 | 0.00 | 0.00 | 0.00 | 27 | 1010.9 |
| 20260506220926 | 84 | 307 | 10.0 | 20.0 | 0.00 | 0.00 | 0.00 | 27 | 1010.8 |
| 20260506220833 | 84 | 293 | 11.0 | 20.0 | 0.00 | 0.00 | 0.00 | 28 | 1010.9 |
| 20260506220759 | 84 | 317 | 10.0 | 21.0 | 0.00 | 0.00 | 0.00 | 28 | 1010.8 |
| 20260506220614 | 84 | 289 | 10.0 | 21.0 | 0.00 | 0.00 | 0.00 | 28 | 1010.8 |
| 20260506220516 | 84 | 275 | 12.0 | 21.0 | 0.00 | 0.00 | 0.00 | 27 | 1010.8 |
| 20260506220423 | 84 | 316 | 13.0 | 21.0 | 0.00 | 0.00 | 0.00 | 27 | 1010.9 |
| 20260506220320 | 84 | 285 | 12.0 | 21.0 | 0.00 | 0.00 | 0.00 | 27 | 1010.8 |
| 20260506220219 | 84 | 275 | 12.0 | 21.0 | 0.00 | 0.00 | 0.00 | 28 | 1010.8 |
| 20260506220124 | 84 | 235 | 14.0 | 21.0 | 0.00 | 0.00 | 0.00 | 27 | 1010.8 |
| 20260506220021 | 85 | 273 | 15.0 | 21.0 | 0.00 | 0.00 | 0.00 | 27 | 1010.8 |
| 20260506215930 | 85 | 275 | 14.0 | 21.0 | 0.00 | 0.00 | 0.00 | 27 | 1010.8 |
| 20260506215825 | 85 | 287 | 13.0 | 21.0 | 0.00 | 0.00 | 0.00 | 27 | 1010.8 |
| 20260506215751 | 85 | 258 | 12.0 | 18.0 | 0.00 | 0.00 | 0.00 | 27 | 1010.8 |
| 20260506215638 | 84 | 277 | 12.0 | 18.0 | 0.00 | 0.00 | 0.00 | 27 | 1010.8 |
| 20260506215514 | 85 | 323 | 9.0 | 18.0 | 0.00 | 0.00 | 0.00 | 26 | 1010.8 |
| 20260506215431 | 85 | 262 | 8.0 | 18.0 | 0.00 | 0.00 | 0.00 | 26 | 1010.8 |
| 20260506215315 | 85 | 334 | 9.0 | 16.0 | 0.00 | 0.00 | 0.00 | 26 | 1010.8 |
| 20260506215242 | 85 | 298 | 9.0 | 16.0 | 0.00 | 0.00 | 0.00 | 26 | 1010.8 |
| 20260506215122 | 85 | 303 | 8.0 | 16.0 | 0.00 | 0.00 | 0.00 | 26 | 1010.7 |
| 20260506215019 | 85 | 276 | 10.0 | 16.0 | 0.00 | 0.00 | 0.00 | 26 | 1010.8 |
| 20260506214946 | 85 | 289 | 10.0 | 16.0 | 0.00 | 0.00 | 0.00 | 26 | 1010.8 |
| 20260506214819 | 85 | 335 | 9.0 | 16.0 | 0.00 | 0.00 | 0.00 | 25 | 1010.8 |
| 20260506214727 | 85 | 303 | 10.0 | 16.0 | 0.00 | 0.00 | 0.00 | 25 | 1010.8 |
| 20260506214643 | 85 | 302 | 9.0 | 16.0 | 0.00 | 0.00 | 0.00 | 25 | 1010.8 |
| 20260506214527 | 85 | 326 | 5.0 | 20.0 | 0.00 | 0.00 | 0.00 | 25 | 1010.8 |
| 20260506214429 | 85 | 360 | 5.0 | 20.0 | 0.00 | 0.00 | 0.00 | 26 | 1010.7 |
| 20260506214336 | 85 | 308 | 4.0 | 20.0 | 0.00 | 0.00 | 0.00 | 25 | 1010.8 |
| 20260506214221 | 85 | 229 | 3.0 | 20.0 | 0.00 | 0.00 | 0.00 | 24 | 1010.8 |
| 20260506214116 | 85 | 291 | 5.0 | 20.0 | 0.00 | 0.00 | 0.00 | 24 | 1010.8 |
| 20260506214014 | 85 | 294 | 9.0 | 21.0 | 0.00 | 0.00 | 0.00 | 24 | 1010.9 |
| 20260506213919 | 85 | 300 | 12.0 | 21.0 | 0.00 | 0.00 | 0.00 | 25 | 1010.8 |
| 20260506213845 | 85 | 274 | 13.0 | 21.0 | 0.00 | 0.00 | 0.00 | 26 | 1010.8 |
| 20260506213721 | 85 | 221 | 14.0 | 21.0 | 0.00 | 0.00 | 0.00 | 26 | 1010.7 |
| 20260506213633 | 85 | 254 | 13.0 | 21.0 | 0.00 | 0.00 | 0.00 | 26 | 1010.7 |
| 20260506213528 | 85 | 262 | 12.0 | 21.0 | 0.00 | 0.00 | 0.00 | 26 | 1010.7 |
| 20260506213435 | 85 | 249 | 13.0 | 21.0 | 0.00 | 0.00 | 0.00 | 26 | 1010.8 |
| 20260506213352 | 85 | 247 | 15.0 | 21.0 | 0.00 | 0.00 | 0.00 | 26 | 1010.7 |
| 20260506213216 | 85 | 239 | 14.0 | 20.0 | 0.00 | 0.00 | 0.00 | 27 | 1010.7 |
| 20260506213134 | 85 | 231 | 13.0 | 20.0 | 0.00 | 0.00 | 0.00 | 27 | 1010.7 |
| 20260506213019 | 85 | 241 | 12.0 | 20.0 | 0.00 | 0.00 | 0.00 | 26 | 1010.8 |
| 20260506212921 | 85 | 297 | 13.0 | 20.0 | 0.00 | 0.00 | 0.00 | 26 | 1010.8 |
| 20260506212818 | 85 | 262 | 12.0 | 20.0 | 0.00 | 0.00 | 0.00 | 27 | 1010.9 |
| 20260506212727 | 85 | 269 | 11.0 | 20.0 | 0.00 | 0.00 | 0.00 | 27 | 1010.9 |
| 20260506212623 | 85 | 281 | 11.0 | 18.0 | 0.00 | 0.00 | 0.00 | 27 | 1010.8 |
| 20260506212549 | 85 | 239 | 11.0 | 18.0 | 0.00 | 0.00 | 0.00 | 27 | 1010.8 |
| 20260506212453 | 85 | 232 | 12.0 | 18.0 | 0.00 | 0.00 | 0.00 | 26 | 1010.9 |
| 20260506212400 | 85 | 233 | 12.0 | 18.0 | 0.00 | 0.00 | 0.00 | 26 | 1010.8 |
| 20260506212237 | 85 | 263 | 11.0 | 18.0 | 0.00 | 0.00 | 0.00 | 27 | 1010.8 |
| 20260506212115 | 85 | 258 | 12.0 | 18.0 | 0.00 | 0.00 | 0.00 | 27 | 1010.8 |
| 20260506212020 | 85 | 240 | 12.0 | 18.0 | 0.00 | 0.00 | 0.00 | 27 | 1010.8 |
| 20260506211945 | 85 | 264 | 12.0 | 18.0 | 0.00 | 0.00 | 0.00 | 26 | 1010.8 |
| 20260506211819 | 85 | 273 | 10.0 | 18.0 | 0.00 | 0.00 | 0.00 | 26 | 1010.8 |
| 20260506211718 | 85 | 280 | 9.0 | 18.0 | 0.00 | 0.00 | 0.00 | 25 | 1010.9 |
| 20260506211643 | 85 | 298 | 11.0 | 18.0 | 0.00 | 0.00 | 0.00 | 26 | 1010.9 |
| 20260506211529 | 84 | 258 | 10.0 | 18.0 | 0.00 | 0.00 | 0.00 | 27 | 1010.9 |
| 20260506211425 | 84 | 238 | 8.0 | 14.0 | 0.00 | 0.00 | 0.00 | 25 | 1010.9 |
| 20260506211324 | 84 | 285 | 9.0 | 12.0 | 0.00 | 0.00 | 0.00 | 25 | 1010.8 |
| 20260506211230 | 84 | 257 | 8.0 | 12.0 | 0.00 | 0.00 | 0.00 | 25 | 1010.8 |
| 20260506211129 | 84 | 138 | 6.0 | 12.0 | 0.00 | 0.00 | 0.00 | 24 | 1010.7 |
| 20260506211033 | 84 | 309 | 6.0 | 9.0 | 0.00 | 0.00 | 0.00 | 24 | 1010.8 |
| 20260506210931 | 84 | 277 | 6.0 | 9.0 | 0.00 | 0.00 | 0.00 | 25 | 1010.8 |
| 20260506210828 | 83 | 274 | 4.0 | 8.0 | 0.00 | 0.00 | 0.00 | 26 | 1010.9 |
| 20260506210721 | 83 | 283 | 3.0 | 9.0 | 0.00 | 0.00 | 0.00 | 24 | 1010.8 |
| 20260506210616 | 83 | 314 | 2.0 | 9.0 | 0.00 | 0.00 | 0.00 | 24 | 1010.9 |
| 20260506210514 | 83 | 314 | 3.0 | 9.0 | 0.00 | 0.00 | 0.00 | 24 | 1010.9 |
| 20260506210440 | 83 | 314 | 3.0 | 9.0 | 0.00 | 0.00 | 0.00 | 24 | 1010.9 |
| 20260506210326 | 83 | 302 | 2.0 | 9.0 | 0.00 | 0.00 | 0.00 | 25 | 1010.9 |
| 20260506210222 | 83 | 283 | 1.0 | 9.0 | 0.00 | 0.00 | 0.00 | 25 | 1010.9 |
| 20260506210118 | 83 | 286 | 3.0 | 9.0 | 0.00 | 0.00 | 0.00 | 24 | 1011.0 |
| 20260506210028 | 83 | 286 | 5.0 | 9.0 | 0.00 | 0.00 | 0.00 | 24 | 1011.0 |
| 20260506205926 | 83 | 316 | 6.0 | 9.0 | 0.00 | 0.00 | 0.00 | 24 | 1011.0 |
| 20260506205832 | 83 | 291 | 5.0 | 9.0 | 0.00 | 0.00 | 0.00 | 24 | 1010.9 |
| 20260506205731 | 83 | 318 | 4.0 | 9.0 | 0.00 | 0.00 | 0.00 | 24 | 1010.9 |
| 20260506205615 | 83 | 5 | 5.0 | 9.0 | 0.00 | 0.00 | 0.00 | 25 | 1011.0 |
| 20260506205531 | 83 | 29 | 6.0 | 9.0 | 0.00 | 0.00 | 0.00 | 25 | 1011.0 |
| 20260506205436 | 83 | 5 | 6.0 | 9.0 | 0.00 | 0.00 | 0.00 | 25 | 1010.9 |
| 20260506205317 | 83 | 356 | 6.0 | 9.0 | 0.00 | 0.00 | 0.00 | 25 | 1011.0 |
| 20260506205216 | 84 | 15 | 6.0 | 9.0 | 0.00 | 0.00 | 0.00 | 25 | 1010.9 |
| 20260506205121 | 84 | 354 | 5.0 | 9.0 | 0.00 | 0.00 | 0.00 | 26 | 1011.0 |
| 20260506205017 | 84 | 354 | 5.0 | 8.0 | 0.00 | 0.00 | 0.00 | 25 | 1010.9 |
| 20260506204923 | 84 | 5 | 5.0 | 9.0 | 0.00 | 0.00 | 0.00 | 25 | 1010.9 |
| 20260506204850 | 84 | 19 | 4.0 | 10.0 | 0.00 | 0.00 | 0.00 | 25 | 1010.9 |
| 20260506204726 | 84 | 10 | 3.0 | 10.0 | 0.00 | 0.00 | 0.00 | 25 | 1010.9 |
| 20260506204625 | 84 | 25 | 2.0 | 10.0 | 0.00 | 0.00 | 0.00 | 25 | 1010.9 |
| 20260506204529 | 84 | 5 | 2.0 | 10.0 | 0.00 | 0.00 | 0.00 | 24 | 1010.9 |
| 20260506204455 | 84 | 5 | 2.0 | 10.0 | 0.00 | 0.00 | 0.00 | 24 | 1010.9 |
| 20260506204351 | 84 | 60 | 2.0 | 10.0 | 0.00 | 0.00 | 0.00 | 24 | 1010.9 |
| 20260506204238 | 84 | 53 | 4.0 | 10.0 | 0.00 | 0.00 | 0.00 | 24 | 1011.0 |
| 20260506204113 | 84 | 50 | 6.0 | 10.0 | 0.00 | 0.00 | 0.00 | 24 | 1011.0 |
| 20260506204019 | 84 | 40 | 6.0 | 10.0 | 0.00 | 0.00 | 0.00 | 24 | 1011.0 |
| 20260506203921 | 84 | 360 | 6.0 | 10.0 | 0.00 | 0.00 | 0.00 | 24 | 1011.0 |
| 20260506203818 | 84 | 5 | 4.0 | 8.0 | 0.00 | 0.00 | 0.00 | 24 | 1011.0 |
| 20260506203721 | 85 | 344 | 3.0 | 12.0 | 0.00 | 0.00 | 0.00 | 23 | 1011.1 |
| 20260506203617 | 85 | 308 | 4.0 | 15.0 | 0.00 | 0.00 | 0.00 | 23 | 1011.1 |
| 20260506203521 | 85 | 315 | 3.0 | 15.0 | 0.00 | 0.00 | 0.00 | 23 | 1011.1 |
| 20260506203419 | 85 | 299 | 2.0 | 15.0 | 0.00 | 0.00 | 0.00 | 23 | 1011.1 |
| 20260506203325 | 85 | 180 | 2.0 | 15.0 | 0.00 | 0.00 | 0.00 | 24 | 1011.1 |
| 20260506203226 | 85 | 259 | 3.0 | 15.0 | 0.00 | 0.00 | 0.00 | 24 | 1011.1 |
| 20260506203134 | 85 | 263 | 5.0 | 15.0 | 0.00 | 0.00 | 0.00 | 24 | 1011.2 |
| 20260506203028 | 85 | 273 | 8.0 | 15.0 | 0.00 | 0.00 | 0.00 | 24 | 1011.2 |
| 20260506202935 | 85 | 251 | 7.0 | 15.0 | 0.00 | 0.00 | 0.00 | 24 | 1011.2 |
| 20260506202832 | 85 | 275 | 6.0 | 15.0 | 0.00 | 0.00 | 0.00 | 24 | 1011.2 |
| 20260506202739 | 85 | 267 | 6.0 | 10.0 | 0.00 | 0.00 | 0.00 | 24 | 1011.2 |
| 20260506202614 | 85 | 239 | 4.0 | 10.0 | 0.00 | 0.00 | 0.00 | 26 | 1011.2 |
| 20260506202520 | 85 | 238 | 3.0 | 12.0 | 0.00 | 0.00 | 0.00 | 24 | 1011.2 |
| 20260506202421 | 85 | 233 | 5.0 | 16.0 | 0.00 | 0.00 | 0.00 | 25 | 1011.2 |
| 20260506202328 | 85 | 233 | 6.0 | 16.0 | 0.00 | 0.00 | 0.00 | 24 | 1011.2 |
| 20260506202223 | 85 | 227 | 6.0 | 16.0 | 0.00 | 0.00 | 0.00 | 24 | 1011.2 |
| 20260506202133 | 85 | 221 | 5.0 | 16.0 | 0.00 | 0.00 | 0.00 | 24 | 1011.2 |
| 20260506202026 | 85 | 232 | 7.0 | 16.0 | 0.00 | 0.00 | 0.00 | 25 | 1011.2 |
| 20260506201952 | 85 | 237 | 8.0 | 16.0 | 0.00 | 0.00 | 0.00 | 24 | 1011.2 |
| 20260506201828 | 85 | 248 | 8.0 | 16.0 | 0.00 | 0.00 | 0.00 | 24 | 1011.1 |
| 20260506201758 | 85 | 243 | 10.0 | 16.0 | 0.00 | 0.00 | 0.00 | 25 | 1011.2 |
| 20260506201644 | 85 | 273 | 10.0 | 16.0 | 0.00 | 0.00 | 0.00 | 25 | 1011.1 |
| 20260506201520 | 85 | 276 | 4.0 | 13.0 | 0.00 | 0.00 | 0.00 | 25 | 1011.1 |
| 20260506201424 | 85 | 215 | 3.0 | 14.0 | 0.00 | 0.00 | 0.00 | 25 | 1011.2 |
| 20260506201319 | 85 | 203 | 6.0 | 15.0 | 0.00 | 0.00 | 0.00 | 25 | 1011.2 |
| 20260506201217 | 85 | 229 | 5.0 | 15.0 | 0.00 | 0.00 | 0.00 | 25 | 1011.2 |
| 20260506201120 | 85 | 241 | 4.0 | 15.0 | 0.00 | 0.00 | 0.00 | 25 | 1011.2 |
| 20260506201021 | 85 | 254 | 6.0 | 15.0 | 0.00 | 0.00 | 0.00 | 26 | 1011.2 |
| 20260506200945 | 84 | 235 | 7.0 | 15.0 | 0.00 | 0.00 | 0.00 | 25 | 1011.2 |
| 20260506200820 | 84 | 231 | 8.0 | 15.0 | 0.00 | 0.00 | 0.00 | 25 | 1011.2 |
| 20260506200727 | 84 | 244 | 8.0 | 15.0 | 0.00 | 0.00 | 0.00 | 25 | 1011.2 |
| 20260506200621 | 84 | 246 | 9.0 | 15.0 | 0.00 | 0.00 | 0.00 | 25 | 1011.2 |
| 20260506200527 | 84 | 258 | 9.0 | 15.0 | 0.00 | 0.00 | 0.00 | 26 | 1011.2 |
| 20260506200424 | 84 | 231 | 6.0 | 15.0 | 0.00 | 0.00 | 0.00 | 27 | 1011.2 |
| 20260506200327 | 84 | 232 | 4.0 | 14.0 | 0.00 | 0.00 | 0.00 | 26 | 1011.2 |
| 20260506200229 | 84 | 275 | 5.0 | 14.0 | 0.00 | 0.00 | 0.00 | 26 | 1011.2 |
| 20260506200136 | 83 | 227 | 7.0 | 14.0 | 0.00 | 0.00 | 0.00 | 26 | 1011.2 |
| 20260506200032 | 83 | 247 | 9.0 | 14.0 | 0.00 | 0.00 | 0.00 | 26 | 1011.2 |
| 20260506195959 | 83 | 244 | 9.0 | 14.0 | 0.00 | 0.00 | 0.00 | 26 | 1011.2 |
| 20260506195815 | 83 | 265 | 7.0 | 14.0 | 0.00 | 0.00 | 0.00 | 26 | 1011.2 |
| 20260506195715 | 83 | 250 | 7.0 | 11.0 | 0.00 | 0.00 | 0.00 | 27 | 1011.2 |
| 20260506195617 | 83 | 262 | 6.0 | 10.0 | 0.00 | 0.00 | 0.00 | 28 | 1011.2 |
| 20260506195529 | 83 | 263 | 3.0 | 9.0 | 0.00 | 0.00 | 0.00 | 28 | 1011.2 |
| 20260506195444 | 83 | 206 | 1.0 | 8.0 | 0.00 | 0.00 | 0.00 | 28 | 1011.2 |
| 20260506195326 | 82 | 206 | 2.0 | 8.0 | 0.00 | 0.00 | 0.00 | 28 | 1011.2 |
| 20260506195224 | 82 | 259 | 3.0 | 8.0 | 0.00 | 0.00 | 0.00 | 28 | 1011.2 |
| 20260506195131 | 82 | 260 | 4.0 | 8.0 | 0.00 | 0.00 | 0.00 | 29 | 1011.2 |
| 20260506195027 | 82 | 257 | 5.0 | 8.0 | 0.00 | 0.00 | 0.00 | 28 | 1011.3 |
| 20260506194932 | 82 | 269 | 5.0 | 8.0 | 0.00 | 0.00 | 0.00 | 28 | 1011.3 |
| 20260506194827 | 82 | 243 | 4.0 | 7.0 | 0.00 | 0.00 | 0.00 | 29 | 1011.3 |
| 20260506194737 | 81 | 271 | 4.0 | 7.0 | 0.00 | 0.00 | 0.00 | 29 | 1011.3 |
| 20260506194644 | 81 | 244 | 5.0 | 7.0 | 0.00 | 0.00 | 0.00 | 29 | 1011.3 |
| 20260506194539 | 81 | 242 | 4.0 | 7.0 | 0.00 | 0.00 | 0.00 | 29 | 1011.3 |
| 20260506194424 | 81 | 250 | 4.0 | 9.0 | 0.00 | 0.00 | 0.00 | 30 | 1011.3 |
| 20260506194340 | 81 | 143 | 4.0 | 10.0 | 0.00 | 0.00 | 0.00 | 30 | 1011.3 |
| 20260506194225 | 81 | 137 | 4.0 | 10.0 | 0.00 | 0.00 | 0.00 | 30 | 1011.4 |
| 20260506194119 | 81 | 133 | 5.0 | 10.0 | 0.00 | 0.00 | 0.00 | 30 | 1011.4 |
| 20260506194029 | 81 | 160 | 5.0 | 10.0 | 0.00 | 0.00 | 0.00 | 29 | 1011.4 |
| 20260506193926 | 81 | 169 | 4.0 | 10.0 | 0.00 | 0.00 | 0.00 | 29 | 1011.3 |
| 20260506193822 | 81 | 134 | 4.0 | 10.0 | 0.00 | 0.00 | 0.00 | 29 | 1011.4 |
| 20260506193729 | 81 | 134 | 5.0 | 10.0 | 0.00 | 0.00 | 0.00 | 29 | 1011.4 |
| 20260506193629 | 81 | 126 | 6.0 | 10.0 | 0.00 | 0.00 | 0.00 | 30 | 1011.4 |
| 20260506193534 | 81 | 127 | 6.0 | 10.0 | 0.00 | 0.00 | 0.00 | 30 | 1011.4 |
| 20260506193414 | 81 | 92 | 4.0 | 8.0 | 0.00 | 0.00 | 0.00 | 31 | 1011.5 |
| 20260506193330 | 81 | 130 | 3.0 | 8.0 | 0.00 | 0.00 | 0.00 | 31 | 1011.5 |
| 20260506193215 | 81 | 135 | 3.0 | 8.0 | 0.00 | 0.00 | 0.00 | 31 | 1011.5 |
| 20260506193142 | 81 | 135 | 4.0 | 8.0 | 0.00 | 0.00 | 0.00 | 32 | 1011.5 |
| 20260506193018 | 80 | 131 | 5.0 | 7.0 | 0.00 | 0.00 | 0.00 | 31 | 1011.5 |
| 20260506192915 | 80 | 161 | 3.0 | 7.0 | 0.00 | 0.00 | 0.00 | 31 | 1011.6 |
| 20260506192841 | 80 | 160 | 3.0 | 7.0 | 0.00 | 0.00 | 0.00 | 30 | 1011.6 |
| 20260506192723 | 80 | 193 | 3.0 | 6.0 | 0.00 | 0.00 | 0.00 | 31 | 1011.6 |
| 20260506192651 | 80 | 193 | 3.0 | 6.0 | 0.00 | 0.00 | 0.00 | 31 | 1011.6 |
| 20260506192525 | 80 | 179 | 2.0 | 6.0 | 0.00 | 0.00 | 0.00 | 31 | 1011.7 |
| 20260506192451 | 80 | 33 | 1.0 | 5.0 | 0.00 | 0.00 | 0.00 | 30 | 1011.7 |
| 20260506192328 | 80 | 33 | 2.0 | 5.0 | 0.00 | 0.00 | 0.00 | 30 | 1011.7 |
| 20260506192235 | 80 | 33 | 2.0 | 5.0 | 0.00 | 0.00 | 0.00 | 31 | 1011.7 |
| 20260506192133 | 80 | 92 | 2.0 | 5.0 | 0.00 | 0.00 | 0.00 | 31 | 1011.7 |
| 20260506192027 | 80 | 92 | 3.0 | 5.0 | 0.00 | 0.00 | 0.00 | 31 | 1011.8 |
| 20260506191936 | 80 | 92 | 3.0 | 5.0 | 0.00 | 0.00 | 0.00 | 32 | 1011.8 |
| 20260506191840 | 80 | 277 | 1.0 | 6.0 | 0.00 | 0.00 | 0.00 | 32 | 1011.8 |
| 20260506191719 | 80 | 275 | 1.0 | 6.0 | 0.00 | 0.00 | 0.00 | 32 | 1011.8 |
| 20260506191614 | 80 | 275 | 2.0 | 7.0 | 0.00 | 0.00 | 0.00 | 31 | 1011.8 |
| 20260506191521 | 80 | 275 | 1.0 | 8.0 | 0.00 | 0.00 | 0.00 | 31 | 1011.9 |
| 20260506191321 | 80 | 181 | 2.0 | 9.0 | 0.00 | 0.00 | 0.00 | 31 | 1011.9 |
| 20260506191226 | 80 | 181 | 3.0 | 9.0 | 0.00 | 0.00 | 0.00 | 31 | 1011.9 |
| 20260506191132 | 80 | 181 | 3.0 | 9.0 | 0.00 | 0.00 | 0.00 | 31 | 1011.9 |
| 20260506191027 | 80 | 251 | 2.0 | 9.0 | 0.00 | 0.00 | 0.00 | 31 | 1011.9 |
| 20260506190924 | 80 | 270 | 3.0 | 9.0 | 0.00 | 0.00 | 0.00 | 31 | 1011.9 |
| 20260506190831 | 80 | 278 | 5.0 | 9.0 | 0.00 | 0.00 | 0.00 | 30 | 1011.9 |
| 20260506190800 | 80 | 287 | 6.0 | 9.0 | 0.00 | 0.00 | 0.00 | 31 | 1011.9 |
| 20260506190620 | 80 | 256 | 5.0 | 9.0 | 0.00 | 0.00 | 0.00 | 31 | 1012.0 |
| 20260506190515 | 80 | 289 | 5.0 | 8.0 | 0.00 | 0.00 | 0.00 | 30 | 1011.9 |
| 20260506190422 | 80 | 306 | 6.0 | 9.0 | 0.00 | 0.00 | 0.00 | 30 | 1011.9 |
| 20260506190320 | 80 | 307 | 5.0 | 9.0 | 0.00 | 0.00 | 0.00 | 30 | 1012.0 |
| 20260506190227 | 80 | 308 | 4.0 | 9.0 | 0.00 | 0.00 | 0.00 | 30 | 1012.0 |
| 20260506190119 | 80 | 331 | 3.0 | 9.0 | 0.00 | 0.00 | 0.00 | 30 | 1012.0 |
| 20260506190024 | 80 | 331 | 4.0 | 9.0 | 0.00 | 0.00 | 0.00 | 30 | 1012.1 |
| 20260506185926 | 80 | 328 | 4.0 | 9.0 | 0.00 | 0.00 | 0.00 | 30 | 1012.1 |
| 20260506185832 | 80 | 316 | 4.0 | 10.0 | 0.00 | 0.00 | 0.00 | 30 | 1012.1 |
| 20260506185729 | 80 | 298 | 4.0 | 10.0 | 0.00 | 0.00 | 0.00 | 30 | 1012.1 |
| 20260506185635 | 80 | 319 | 5.0 | 10.0 | 0.00 | 0.00 | 0.00 | 30 | 1012.0 |
| 20260506185531 | 80 | 304 | 5.0 | 10.0 | 0.00 | 0.00 | 0.00 | 30 | 1012.1 |
| 20260506185437 | 80 | 262 | 4.0 | 10.0 | 0.00 | 0.00 | 0.00 | 30 | 1012.1 |
| 20260506185334 | 80 | 275 | 2.0 | 10.0 | 0.00 | 0.00 | 0.00 | 31 | 1012.0 |
| 20260506185237 | 79 | 210 | 2.0 | 10.0 | 0.00 | 0.00 | 0.00 | 31 | 1012.0 |
| 20260506185136 | 79 | 188 | 5.0 | 10.0 | 0.00 | 0.00 | 0.00 | 30 | 1012.1 |
| 20260506185020 | 79 | 150 | 6.0 | 10.0 | 0.00 | 0.00 | 0.00 | 31 | 1012.1 |
| 20260506184918 | 79 | 167 | 2.0 | 8.0 | 0.00 | 0.00 | 0.00 | 31 | 1012.1 |
| 20260506184815 | 79 | 265 | 1.0 | 6.0 | 0.00 | 0.00 | 0.00 | 32 | 1012.0 |
| 20260506184721 | 79 | 265 | 1.0 | 6.0 | 0.00 | 0.00 | 0.00 | 34 | 1012.1 |
| 20260506184616 | 79 | 314 | 0.0 | 8.0 | 0.00 | 0.00 | 0.00 | 34 | 1012.0 |
| 20260506184520 | 78 | 313 | 1.0 | 9.0 | 0.00 | 0.00 | 0.00 | 33 | 1012.1 |
| 20260506184422 | 78 | 313 | 1.0 | 9.0 | 0.00 | 0.00 | 0.00 | 32 | 1012.1 |
| 20260506184347 | 78 | 313 | 2.0 | 9.0 | 0.00 | 0.00 | 0.00 | 32 | 1012.1 |
| 20260506184232 | 78 | 313 | 2.0 | 9.0 | 0.00 | 0.00 | 0.00 | 33 | 1012.1 |
| 20260506184130 | 78 | 313 | 3.0 | 9.0 | 0.00 | 0.00 | 0.00 | 33 | 1012.1 |
| 20260506184024 | 78 | 348 | 5.0 | 9.0 | 0.00 | 0.00 | 0.00 | 32 | 1012.2 |
| 20260506183929 | 78 | 347 | 5.0 | 9.0 | 0.00 | 0.00 | 0.00 | 32 | 1012.2 |
| 20260506183826 | 78 | 299 | 5.0 | 9.0 | 0.00 | 0.00 | 0.00 | 32 | 1012.2 |
| 20260506183739 | 78 | 299 | 6.0 | 9.0 | 0.00 | 0.00 | 0.00 | 32 | 1012.2 |
| 20260506183615 | 78 | 311 | 5.0 | 9.0 | 0.00 | 0.00 | 0.00 | 32 | 1012.2 |
| 20260506183513 | 78 | 288 | 6.0 | 9.0 | 0.00 | 0.00 | 0.00 | 32 | 1012.3 |
| 20260506183418 | 78 | 287 | 5.0 | 9.0 | 0.00 | 0.00 | 0.00 | 31 | 1012.2 |
| 20260506183314 | 78 | 289 | 4.0 | 9.0 | 0.00 | 0.00 | 0.00 | 31 | 1012.2 |
| 20260506183222 | 78 | 304 | 3.0 | 7.0 | 0.00 | 0.00 | 0.00 | 32 | 1012.2 |
| 20260506183122 | 78 | 305 | 2.0 | 8.0 | 0.00 | 0.00 | 0.00 | 32 | 1012.2 |
| 20260506183028 | 78 | 163 | 3.0 | 8.0 | 0.00 | 0.00 | 0.00 | 32 | 1012.2 |
| 20260506182924 | 78 | 163 | 4.0 | 8.0 | 0.00 | 0.00 | 0.00 | 32 | 1012.1 |
| 20260506182820 | 78 | 190 | 3.0 | 8.0 | 0.00 | 0.00 | 0.00 | 33 | 1012.1 |
| 20260506182726 | 78 | 182 | 2.0 | 8.0 | 0.00 | 0.00 | 0.00 | 32 | 1012.1 |
| 20260506182622 | 78 | 250 | 2.0 | 8.0 | 0.00 | 0.00 | 0.00 | 31 | 1012.2 |
| 20260506182529 | 79 | 250 | 3.0 | 8.0 | 0.00 | 0.00 | 0.00 | 31 | 1012.2 |
| 20260506182431 | 78 | 251 | 5.0 | 8.0 | 0.00 | 0.00 | 0.00 | 32 | 1012.2 |
| 20260506182329 | 78 | 252 | 6.0 | 8.0 | 0.00 | 0.00 | 0.00 | 33 | 1012.2 |
| 20260506182234 | 78 | 242 | 4.0 | 8.0 | 0.00 | 0.00 | 0.00 | 34 | 1012.2 |
| 20260506182202 | 78 | 231 | 2.0 | 6.0 | 0.00 | 0.00 | 0.00 | 33 | 1012.2 |
| 20260506182037 | 78 | 274 | 2.0 | 6.0 | 0.00 | 0.00 | 0.00 | 33 | 1012.2 |
| 20260506181913 | 78 | 274 | 1.0 | 6.0 | 0.00 | 0.00 | 0.00 | 34 | 1012.3 |
| 20260506181841 | 78 | 242 | 1.0 | 6.0 | 0.00 | 0.00 | 0.00 | 33 | 1012.3 |
| 20260506181747 | 78 | 242 | 2.0 | 8.0 | 0.00 | 0.00 | 0.00 | 35 | 1012.3 |
| 20260506181624 | 78 | 242 | 2.0 | 8.0 | 0.00 | 0.00 | 0.00 | 33 | 1012.4 |
| 20260506181529 | 78 | 243 | 3.0 | 8.0 | 0.00 | 0.00 | 0.00 | 33 | 1012.4 |
| 20260506181435 | 78 | 244 | 4.0 | 8.0 | 0.00 | 0.00 | 0.00 | 34 | 1012.3 |
| 20260506181313 | 78 | 244 | 3.0 | 8.0 | 0.00 | 0.00 | 0.00 | 34 | 1012.4 |
| 20260506181243 | 78 | 260 | 3.0 | 8.0 | 0.00 | 0.00 | 0.00 | 34 | 1012.4 |
| 20260506181116 | 78 | 264 | 3.0 | 8.0 | 0.00 | 0.00 | 0.00 | 35 | 1012.4 |
| 20260506181017 | 77 | 264 | 4.0 | 8.0 | 0.00 | 0.00 | 0.00 | 35 | 1012.4 |
| 20260506180943 | 77 | 270 | 5.0 | 8.0 | 0.00 | 0.00 | 0.00 | 36 | 1012.4 |
| 20260506180820 | 77 | 233 | 4.0 | 8.0 | 0.00 | 0.00 | 0.00 | 35 | 1012.5 |
| 20260506180749 | 77 | 204 | 4.0 | 8.0 | 0.00 | 0.00 | 0.00 | 34 | 1012.5 |
| 20260506180623 | 77 | 258 | 4.0 | 8.0 | 0.00 | 0.00 | 0.00 | 34 | 1012.5 |
| 20260506180527 | 77 | 262 | 5.0 | 8.0 | 0.00 | 0.00 | 0.00 | 35 | 1012.5 |
| 20260506180453 | 77 | 262 | 5.0 | 9.0 | 0.00 | 0.00 | 0.00 | 35 | 1012.5 |
| 20260506180329 | 77 | 210 | 4.0 | 9.0 | 0.00 | 0.00 | 0.00 | 35 | 1012.4 |
| 20260506180217 | 77 | 212 | 3.0 | 9.0 | 0.00 | 0.00 | 0.00 | 35 | 1012.5 |
| 20260506180117 | 77 | 214 | 1.0 | 9.0 | 0.00 | 0.00 | 0.00 | 36 | 1012.5 |
| 20260506180024 | 77 | 220 | 1.0 | 9.0 | 0.00 | 0.00 | 0.00 | 35 | 1012.5 |
| 20260506175920 | 76 | 224 | 1.0 | 9.0 | 0.00 | 0.00 | 0.00 | 36 | 1012.5 |
| 20260506175818 | 76 | 224 | 1.0 | 9.0 | 0.00 | 0.00 | 0.00 | 39 | 1012.5 |
| 20260506175727 | 76 | 223 | 4.0 | 9.0 | 0.00 | 0.00 | 0.00 | 37 | 1012.5 |
| 20260506175623 | 76 | 223 | 5.0 | 9.0 | 0.00 | 0.00 | 0.00 | 38 | 1012.4 |
| 20260506175534 | 76 | 223 | 5.0 | 9.0 | 0.00 | 0.00 | 0.00 | 38 | 1012.4 |
| 20260506175451 | 75 | 207 | 3.0 | 6.0 | 0.00 | 0.00 | 0.00 | 38 | 1012.4 |
| 20260506175336 | 75 | 219 | 3.0 | 5.0 | 0.00 | 0.00 | 0.00 | 38 | 1012.4 |
| 20260506175214 | 75 | 215 | 2.0 | 5.0 | 0.00 | 0.00 | 0.00 | 40 | 1012.4 |
| 20260506175142 | 75 | 180 | 2.0 | 6.0 | 0.00 | 0.00 | 0.00 | 38 | 1012.4 |
| 20260506175018 | 75 | 179 | 2.0 | 7.0 | 0.00 | 0.00 | 0.00 | 39 | 1012.5 |
| 20260506174915 | 74 | 179 | 1.0 | 7.0 | 0.00 | 0.00 | 0.00 | 39 | 1012.5 |
| 20260506174826 | 74 | 177 | 1.0 | 7.0 | 0.00 | 0.00 | 0.00 | 39 | 1012.5 |
| 20260506174743 | 74 | 177 | 2.0 | 7.0 | 0.00 | 0.00 | 0.00 | 38 | 1012.6 |
| 20260506174629 | 74 | 177 | 3.0 | 7.0 | 0.00 | 0.00 | 0.00 | 38 | 1012.6 |
| 20260506174521 | 74 | 194 | 3.0 | 7.0 | 0.00 | 0.00 | 0.00 | 38 | 1012.4 |
| 20260506174446 | 74 | 194 | 4.0 | 7.0 | 0.00 | 0.00 | 0.00 | 38 | 1012.4 |
| 20260506174350 | 74 | 195 | 4.0 | 7.0 | 0.00 | 0.00 | 0.00 | 37 | 1012.4 |
| 20260506174229 | 74 | 170 | 3.0 | 7.0 | 0.00 | 0.00 | 0.00 | 38 | 1012.4 |
| 20260506174123 | 74 | 198 | 2.0 | 6.0 | 0.00 | 0.00 | 0.00 | 38 | 1012.4 |
| 20260506174013 | 74 | 198 | 3.0 | 6.0 | 0.00 | 0.00 | 0.00 | 39 | 1012.5 |
| 20260506173931 | 74 | 212 | 3.0 | 7.0 | 0.00 | 0.00 | 0.00 | 38 | 1012.5 |
| 20260506173836 | 74 | 229 | 2.0 | 7.0 | 0.00 | 0.00 | 0.00 | 39 | 1012.5 |
| 20260506173714 | 74 | 231 | 1.0 | 7.0 | 0.00 | 0.00 | 0.00 | 38 | 1012.5 |
| 20260506173643 | 74 | 264 | 2.0 | 7.0 | 0.00 | 0.00 | 0.00 | 38 | 1012.5 |
| 20260506173518 | 74 | 263 | 3.0 | 7.0 | 0.00 | 0.00 | 0.00 | 39 | 1012.5 |
| 20260506173420 | 74 | 245 | 2.0 | 5.0 | 0.00 | 0.00 | 0.00 | 39 | 1012.5 |
| 20260506173316 | 74 | 215 | 1.0 | 6.0 | 0.00 | 0.00 | 0.00 | 39 | 1012.5 |
| 20260506173225 | 73 | 212 | 0.0 | 6.0 | 0.00 | 0.00 | 0.00 | 38 | 1012.5 |
| 20260506173121 | 73 | 212 | 1.0 | 6.0 | 0.00 | 0.00 | 0.00 | 39 | 1012.5 |
| 20260506173027 | 73 | 212 | 2.0 | 6.0 | 0.00 | 0.00 | 0.00 | 39 | 1012.5 |
| 20260506172925 | 73 | 212 | 3.0 | 6.0 | 0.00 | 0.00 | 0.00 | 40 | 1012.5 |
| 20260506172835 | 73 | 211 | 3.0 | 6.0 | 0.00 | 0.00 | 0.00 | 40 | 1012.5 |
| 20260506172714 | 73 | 214 | 4.0 | 6.0 | 0.00 | 0.00 | 0.00 | 39 | 1012.5 |
| 20260506172633 | 73 | 214 | 3.0 | 6.0 | 0.00 | 0.00 | 0.00 | 39 | 1012.5 |
| 20260506172535 | 73 | 214 | 3.0 | 7.0 | 0.00 | 0.00 | 0.00 | 39 | 1012.5 |
| 20260506172431 | 73 | 181 | 4.0 | 7.0 | 0.00 | 0.00 | 0.00 | 40 | 1012.4 |
| 20260506172338 | 73 | 181 | 3.0 | 7.0 | 0.00 | 0.00 | 0.00 | 40 | 1012.5 |
| 20260506172222 | 73 | 178 | 3.0 | 7.0 | 0.00 | 0.00 | 0.00 | 40 | 1012.5 |
| 20260506172117 | 73 | 177 | 2.0 | 7.0 | 0.00 | 0.00 | 0.00 | 41 | 1012.5 |
| 20260506172024 | 73 | 178 | 1.0 | 7.0 | 0.00 | 0.00 | 0.00 | 41 | 1012.5 |
| 20260506171917 | 73 | 177 | 3.0 | 7.0 | 0.00 | 0.00 | 0.00 | 41 | 1012.6 |
| 20260506171813 | 72 | 177 | 5.0 | 7.0 | 0.00 | 0.00 | 0.00 | 41 | 1012.6 |
| 20260506171719 | 72 | 177 | 3.0 | 7.0 | 0.00 | 0.00 | 0.00 | 43 | 1012.6 |
| 20260506171645 | 72 | 180 | 1.0 | 6.0 | 0.00 | 0.00 | 0.00 | 42 | 1012.6 |
| 20260506171525 | 72 | 120 | 0.0 | 6.0 | 0.00 | 0.00 | 0.00 | 42 | 1012.6 |
| 20260506171423 | 72 | 120 | 1.0 | 6.0 | 0.00 | 0.00 | 0.00 | 43 | 1012.6 |
| 20260506171329 | 72 | 120 | 1.0 | 6.0 | 0.00 | 0.00 | 0.00 | 42 | 1012.6 |
| 20260506171224 | 72 | 120 | 2.0 | 6.0 | 0.00 | 0.00 | 0.00 | 43 | 1012.6 |
| 20260506171132 | 72 | 120 | 3.0 | 6.0 | 0.00 | 0.00 | 0.00 | 42 | 1012.6 |
| 20260506171027 | 72 | 120 | 3.0 | 7.0 | 0.00 | 0.00 | 0.00 | 43 | 1012.6 |
| 20260506170923 | 72 | 121 | 3.0 | 8.0 | 0.00 | 0.00 | 0.00 | 44 | 1012.5 |
| 20260506170813 | 72 | 121 | 3.0 | 8.0 | 0.00 | 0.00 | 0.00 | 44 | 1012.5 |
| 20260506170730 | 71 | 125 | 2.0 | 9.0 | 0.00 | 0.00 | 0.00 | 44 | 1012.5 |
| 20260506170638 | 71 | 127 | 2.0 | 9.0 | 0.00 | 0.00 | 0.00 | 45 | 1012.5 |
| 20260506170514 | 71 | 125 | 1.0 | 9.0 | 0.00 | 0.00 | 0.00 | 44 | 1012.5 |
| 20260506170441 | 71 | 125 | 2.0 | 9.0 | 0.00 | 0.00 | 0.00 | 44 | 1012.5 |
| 20260506170338 | 71 | 126 | 4.0 | 9.0 | 0.00 | 0.00 | 0.00 | 44 | 1012.5 |
| 20260506170223 | 71 | 127 | 5.0 | 9.0 | 0.00 | 0.00 | 0.00 | 44 | 1012.5 |
| 20260506170122 | 71 | 129 | 5.0 | 9.0 | 0.00 | 0.00 | 0.00 | 44 | 1012.5 |
| 20260506170029 | 71 | 151 | 5.0 | 9.0 | 0.00 | 0.00 | 0.00 | 44 | 1012.5 |
| 20260506165927 | 71 | 167 | 5.0 | 9.0 | 0.00 | 0.00 | 0.00 | 44 | 1012.5 |
| 20260506165824 | 71 | 172 | 3.0 | 8.0 | 0.00 | 0.00 | 0.00 | 45 | 1012.5 |
| 20260506165752 | 71 | 177 | 3.0 | 6.0 | 0.00 | 0.00 | 0.00 | 45 | 1012.5 |
| 20260506165615 | 71 | 177 | 4.0 | 6.0 | 0.00 | 0.00 | 0.00 | 46 | 1012.5 |
| 20260506165531 | 71 | 178 | 4.0 | 6.0 | 0.00 | 0.00 | 0.00 | 45 | 1012.5 |
| 20260506165442 | 71 | 235 | 2.0 | 6.0 | 0.00 | 0.00 | 0.00 | 46 | 1012.6 |
| 20260506165347 | 71 | 234 | 2.0 | 4.0 | 0.00 | 0.00 | 0.00 | 46 | 1012.6 |
| 20260506165224 | 70 | 233 | 1.0 | 4.0 | 0.00 | 0.00 | 0.00 | 47 | 1012.6 |
| 20260506165134 | 70 | 233 | 1.0 | 4.0 | 0.00 | 0.00 | 0.00 | 47 | 1012.6 |
| 20260506165028 | 70 | 233 | 2.0 | 4.0 | 0.00 | 0.00 | 0.00 | 48 | 1012.6 |
| 20260506164926 | 70 | 233 | 2.0 | 4.0 | 0.00 | 0.00 | 0.00 | 47 | 1012.6 |
| 20260506164831 | 70 | 233 | 2.0 | 4.0 | 0.00 | 0.00 | 0.00 | 47 | 1012.6 |
| 20260506164733 | 69 | 233 | 2.0 | 5.0 | 0.00 | 0.00 | 0.00 | 48 | 1012.6 |
| 20260506164636 | 69 | 234 | 2.0 | 5.0 | 0.00 | 0.00 | 0.00 | 48 | 1012.6 |
| 20260506164532 | 69 | 234 | 2.0 | 5.0 | 0.00 | 0.00 | 0.00 | 49 | 1012.6 |
| 20260506164438 | 69 | 234 | 2.0 | 5.0 | 0.00 | 0.00 | 0.00 | 50 | 1012.6 |
| 20260506164314 | 69 | 235 | 1.0 | 5.0 | 0.00 | 0.00 | 0.00 | 48 | 1012.6 |
| 20260506164243 | 69 | 235 | 1.0 | 5.0 | 0.00 | 0.00 | 0.00 | 48 | 1012.6 |
| 20260506164117 | 69 | 235 | 3.0 | 5.0 | 0.00 | 0.00 | 0.00 | 49 | 1012.6 |
| 20260506164022 | 68 | 235 | 3.0 | 5.0 | 0.00 | 0.00 | 0.00 | 49 | 1012.6 |
| 20260506163922 | 68 | 235 | 2.0 | 5.0 | 0.00 | 0.00 | 0.00 | 49 | 1012.6 |
| 20260506163827 | 68 | 234 | 1.0 | 5.0 | 0.00 | 0.00 | 0.00 | 49 | 1012.6 |
| 20260506163725 | 68 | 207 | 1.0 | 5.0 | 0.00 | 0.00 | 0.00 | 50 | 1012.6 |
| 20260506163632 | 68 | 207 | 1.0 | 5.0 | 0.00 | 0.00 | 0.00 | 51 | 1012.6 |
| 20260506163528 | 68 | 207 | 2.0 | 5.0 | 0.00 | 0.00 | 0.00 | 50 | 1012.6 |
| 20260506163455 | 68 | 207 | 3.0 | 5.0 | 0.00 | 0.00 | 0.00 | 50 | 1012.6 |
| 20260506163339 | 68 | 206 | 3.0 | 5.0 | 0.00 | 0.00 | 0.00 | 51 | 1012.6 |
| 20260506163221 | 67 | 206 | 2.0 | 5.0 | 0.00 | 0.00 | 0.00 | 51 | 1012.6 |
| 20260506163146 | 67 | 206 | 2.0 | 5.0 | 0.00 | 0.00 | 0.00 | 50 | 1012.6 |
| 20260506163023 | 67 | 206 | 3.0 | 5.0 | 0.00 | 0.00 | 0.00 | 51 | 1012.6 |
| 20260506162920 | 67 | 206 | 2.0 | 5.0 | 0.00 | 0.00 | 0.00 | 52 | 1012.6 |
| 20260506162847 | 67 | 212 | 2.0 | 5.0 | 0.00 | 0.00 | 0.00 | 51 | 1012.6 |
| 20260506162753 | 67 | 213 | 2.0 | 5.0 | 0.00 | 0.00 | 0.00 | 52 | 1012.6 |
| 20260506162631 | 67 | 213 | 1.0 | 5.0 | 0.00 | 0.00 | 0.00 | 52 | 1012.7 |
| 20260506162515 | 67 | 166 | 0.0 | 5.0 | 0.00 | 0.00 | 0.00 | 52 | 1012.7 |
| 20260506162415 | 67 | 165 | 1.0 | 5.0 | 0.00 | 0.00 | 0.00 | 52 | 1012.7 |
| 20260506162319 | 66 | 165 | 2.0 | 5.0 | 0.00 | 0.00 | 0.00 | 53 | 1012.7 |
| 20260506162238 | 66 | 165 | 2.0 | 5.0 | 0.00 | 0.00 | 0.00 | 53 | 1012.7 |
| 20260506162121 | 66 | 165 | 1.0 | 5.0 | 0.00 | 0.00 | 0.00 | 53 | 1012.7 |
| 20260506162047 | 66 | 165 | 1.0 | 5.0 | 0.00 | 0.00 | 0.00 | 53 | 1012.7 |
| 20260506161923 | 66 | 165 | 2.0 | 5.0 | 0.00 | 0.00 | 0.00 | 53 | 1012.6 |
| 20260506161849 | 66 | 165 | 2.0 | 5.0 | 0.00 | 0.00 | 0.00 | 54 | 1012.6 |
| 20260506161727 | 66 | 165 | 2.0 | 5.0 | 0.00 | 0.00 | 0.00 | 54 | 1012.7 |
| 20260506161634 | 65 | 165 | 1.0 | 4.0 | 0.00 | 0.00 | 0.00 | 54 | 1012.8 |
| 20260506161531 | 65 | 204 | 1.0 | 4.0 | 0.00 | 0.00 | 0.00 | 54 | 1012.8 |
| 20260506161414 | 65 | 205 | 1.0 | 4.0 | 0.00 | 0.00 | 0.00 | 54 | 1012.7 |
| 20260506161336 | 65 | 205 | 1.0 | 4.0 | 0.00 | 0.00 | 0.00 | 55 | 1012.7 |
| 20260506161232 | 65 | 205 | 1.0 | 4.0 | 0.00 | 0.00 | 0.00 | 55 | 1012.8 |
| 20260506161132 | 65 | 205 | 1.0 | 4.0 | 0.00 | 0.00 | 0.00 | 55 | 1012.8 |
| 20260506161036 | 65 | 205 | 1.0 | 4.0 | 0.00 | 0.00 | 0.00 | 55 | 1012.8 |
| 20260506161002 | 65 | 205 | 2.0 | 6.0 | 0.00 | 0.00 | 0.00 | 55 | 1012.8 |
| 20260506160820 | 64 | 205 | 3.0 | 6.0 | 0.00 | 0.00 | 0.00 | 56 | 1012.8 |
| 20260506160717 | 64 | 205 | 3.0 | 6.0 | 0.00 | 0.00 | 0.00 | 57 | 1012.8 |
| 20260506160619 | 64 | 200 | 2.0 | 6.0 | 0.00 | 0.00 | 0.00 | 56 | 1012.8 |
| 20260506160546 | 64 | 187 | 2.0 | 7.0 | 0.00 | 0.00 | 0.00 | 57 | 1012.8 |
| 20260506160422 | 64 | 173 | 2.0 | 7.0 | 0.00 | 0.00 | 0.00 | 57 | 1012.8 |
| 20260506160320 | 64 | 173 | 2.0 | 7.0 | 0.00 | 0.00 | 0.00 | 57 | 1012.8 |
| 20260506160226 | 63 | 172 | 3.0 | 7.0 | 0.00 | 0.00 | 0.00 | 58 | 1012.8 |
| 20260506160129 | 63 | 172 | 4.0 | 7.0 | 0.00 | 0.00 | 0.00 | 59 | 1012.8 |
| 20260506160032 | 63 | 171 | 4.0 | 7.0 | 0.00 | 0.00 | 0.00 | 59 | 1012.8 |
| 20260506155928 | 63 | 170 | 4.0 | 7.0 | 0.00 | 0.00 | 0.00 | 58 | 1012.7 |
| 20260506155853 | 63 | 170 | 4.0 | 7.0 | 0.00 | 0.00 | 0.00 | 59 | 1012.7 |
| 20260506155758 | 63 | 171 | 3.0 | 7.0 | 0.00 | 0.00 | 0.00 | 60 | 1012.8 |
| 20260506155651 | 62 | 170 | 2.0 | 5.0 | 0.00 | 0.00 | 0.00 | 60 | 1012.8 |
| 20260506155534 | 62 | 170 | 2.0 | 5.0 | 0.00 | 0.00 | 0.00 | 59 | 1012.7 |
| 20260506155500 | 62 | 170 | 2.0 | 7.0 | 0.00 | 0.00 | 0.00 | 59 | 1012.7 |
| 20260506155319 | 62 | 168 | 3.0 | 7.0 | 0.00 | 0.00 | 0.00 | 60 | 1012.7 |
| 20260506155218 | 62 | 168 | 2.0 | 7.0 | 0.00 | 0.00 | 0.00 | 60 | 1012.6 |
| 20260506155114 | 62 | 168 | 2.0 | 7.0 | 0.00 | 0.00 | 0.00 | 60 | 1012.7 |
| 20260506155039 | 62 | 169 | 1.0 | 7.0 | 0.00 | 0.00 | 0.00 | 60 | 1012.7 |
| 20260506154923 | 61 | 168 | 1.0 | 7.0 | 0.00 | 0.00 | 0.00 | 60 | 1012.7 |
| 20260506154820 | 61 | 168 | 2.0 | 7.0 | 0.00 | 0.00 | 0.00 | 61 | 1012.7 |
| 20260506154726 | 61 | 167 | 4.0 | 7.0 | 0.00 | 0.00 | 0.00 | 61 | 1012.7 |
| 20260506154619 | 61 | 166 | 3.0 | 7.0 | 0.00 | 0.00 | 0.00 | 62 | 1012.7 |
| 20260506154549 | 61 | 166 | 2.0 | 6.0 | 0.00 | 0.00 | 0.00 | 62 | 1012.7 |
| 20260506154426 | 61 | 212 | 2.0 | 4.0 | 0.00 | 0.00 | 0.00 | 62 | 1012.7 |
| 20260506154332 | 61 | 212 | 2.0 | 4.0 | 0.00 | 0.00 | 0.00 | 62 | 1012.6 |
| 20260506154230 | 60 | 212 | 1.0 | 5.0 | 0.00 | 0.00 | 0.00 | 62 | 1012.6 |
| 20260506154139 | 60 | 211 | 1.0 | 5.0 | 0.00 | 0.00 | 0.00 | 62 | 1012.7 |
| 20260506154013 | 60 | 211 | 2.0 | 6.0 | 0.00 | 0.00 | 0.00 | 62 | 1012.7 |
| 20260506153914 | 60 | 212 | 2.0 | 6.0 | 0.00 | 0.00 | 0.00 | 63 | 1012.7 |
| 20260506153819 | 60 | 212 | 2.0 | 6.0 | 0.00 | 0.00 | 0.00 | 64 | 1012.7 |
| 20260506153718 | 60 | 212 | 2.0 | 6.0 | 0.00 | 0.00 | 0.00 | 63 | 1012.8 |
| 20260506153614 | 60 | 212 | 3.0 | 6.0 | 0.00 | 0.00 | 0.00 | 63 | 1012.8 |
| 20260506153521 | 60 | 212 | 3.0 | 6.0 | 0.00 | 0.00 | 0.00 | 64 | 1012.8 |
| 20260506153419 | 59 | 212 | 3.0 | 6.0 | 0.00 | 0.00 | 0.00 | 64 | 1012.8 |
| 20260506153325 | 59 | 212 | 2.0 | 6.0 | 0.00 | 0.00 | 0.00 | 64 | 1012.8 |
| 20260506153227 | 59 | 211 | 4.0 | 6.0 | 0.00 | 0.00 | 0.00 | 64 | 1012.8 |
| 20260506153121 | 59 | 211 | 4.0 | 6.0 | 0.00 | 0.00 | 0.00 | 64 | 1012.7 |
| 20260506153026 | 59 | 220 | 4.0 | 6.0 | 0.00 | 0.00 | 0.00 | 65 | 1012.7 |
| 20260506152951 | 59 | 221 | 4.0 | 6.0 | 0.00 | 0.00 | 0.00 | 65 | 1012.8 |
| 20260506152828 | 59 | 221 | 5.0 | 6.0 | 0.00 | 0.00 | 0.00 | 66 | 1012.8 |
| 20260506152734 | 58 | 219 | 4.0 | 6.0 | 0.00 | 0.00 | 0.00 | 65 | 1012.8 |
| 20260506152639 | 58 | 217 | 3.0 | 6.0 | 0.00 | 0.00 | 0.00 | 66 | 1012.8 |
| 20260506152517 | 58 | 217 | 3.0 | 7.0 | 0.00 | 0.00 | 0.00 | 67 | 1012.8 |
| 20260506152415 | 58 | 217 | 3.0 | 7.0 | 0.00 | 0.00 | 0.00 | 66 | 1012.8 |
| 20260506152341 | 58 | 216 | 3.0 | 7.0 | 0.00 | 0.00 | 0.00 | 66 | 1012.8 |
| 20260506152220 | 58 | 217 | 3.0 | 7.0 | 0.00 | 0.00 | 0.00 | 68 | 1012.8 |
| 20260506152115 | 57 | 215 | 3.0 | 7.0 | 0.00 | 0.00 | 0.00 | 68 | 1012.8 |
| 20260506152042 | 57 | 215 | 4.0 | 7.0 | 0.00 | 0.00 | 0.00 | 68 | 1012.8 |
| 20260506151918 | 57 | 212 | 4.0 | 7.0 | 0.00 | 0.00 | 0.00 | 68 | 1012.8 |
| 20260506151827 | 57 | 212 | 4.0 | 7.0 | 0.00 | 0.00 | 0.00 | 68 | 1012.8 |
| 20260506151724 | 57 | 223 | 4.0 | 7.0 | 0.00 | 0.00 | 0.00 | 69 | 1012.8 |
| 20260506151633 | 56 | 223 | 4.0 | 7.0 | 0.00 | 0.00 | 0.00 | 69 | 1012.8 |
| 20260506151524 | 56 | 223 | 3.0 | 7.0 | 0.00 | 0.00 | 0.00 | 69 | 1012.8 |
| 20260506151449 | 56 | 223 | 4.0 | 7.0 | 0.00 | 0.00 | 0.00 | 70 | 1012.8 |
| 20260506151334 | 56 | 225 | 4.0 | 7.0 | 0.00 | 0.00 | 0.00 | 70 | 1012.8 |
| 20260506151231 | 56 | 225 | 4.0 | 7.0 | 0.00 | 0.00 | 0.00 | 71 | 1012.8 |
| 20260506151126 | 55 | 225 | 4.0 | 7.0 | 0.00 | 0.00 | 0.00 | 72 | 1012.7 |
| 20260506151017 | 55 | 217 | 3.0 | 5.0 | 0.00 | 0.00 | 0.00 | 72 | 1012.7 |
| 20260506150914 | 55 | 216 | 3.0 | 7.0 | 0.00 | 0.00 | 0.00 | 73 | 1012.7 |
| 20260506150841 | 55 | 215 | 3.0 | 7.0 | 0.00 | 0.00 | 0.00 | 73 | 1012.7 |
| 20260506150721 | 54 | 210 | 3.0 | 8.0 | 0.00 | 0.00 | 0.00 | 73 | 1012.7 |
| 20260506150624 | 54 | 200 | 3.0 | 8.0 | 0.00 | 0.00 | 0.00 | 73 | 1012.7 |
| 20260506150520 | 54 | 210 | 3.0 | 8.0 | 0.00 | 0.00 | 0.00 | 74 | 1012.7 |
| 20260506150421 | 54 | 210 | 2.0 | 8.0 | 0.00 | 0.00 | 0.00 | 74 | 1012.6 |
| 20260506150327 | 54 | 184 | 2.0 | 8.0 | 0.00 | 0.00 | 0.00 | 74 | 1012.6 |
| 20260506150253 | 53 | 181 | 4.0 | 8.0 | 0.00 | 0.00 | 0.00 | 74 | 1012.6 |
| 20260506150132 | 53 | 199 | 5.0 | 8.0 | 0.00 | 0.00 | 0.00 | 75 | 1012.7 |
| 20260506150025 | 53 | 179 | 5.0 | 8.0 | 0.00 | 0.00 | 0.00 | 75 | 1012.7 |
| 20260506145931 | 53 | 188 | 3.0 | 8.0 | 0.00 | 0.00 | 0.00 | 76 | 1012.7 |
| 20260506145858 | 53 | 160 | 2.0 | 8.0 | 0.00 | 0.00 | 0.00 | 76 | 1012.7 |
| 20260506145718 | 52 | 160 | 3.0 | 8.0 | 0.00 | 0.00 | 0.00 | 76 | 1012.6 |
| 20260506145633 | 52 | 160 | 4.0 | 8.0 | 0.00 | 0.00 | 0.00 | 76 | 1012.6 |
| 20260506145538 | 52 | 159 | 5.0 | 8.0 | 0.00 | 0.00 | 0.00 | 77 | 1012.6 |
| 20260506145414 | 52 | 178 | 3.0 | 8.0 | 0.00 | 0.00 | 0.00 | 76 | 1012.7 |
| 20260506145341 | 52 | 162 | 2.0 | 7.0 | 0.00 | 0.00 | 0.00 | 77 | 1012.7 |
| 20260506145239 | 52 | 187 | 3.0 | 7.0 | 0.00 | 0.00 | 0.00 | 77 | 1012.7 |
| 20260506145113 | 52 | 144 | 2.0 | 6.0 | 0.00 | 0.00 | 0.00 | 77 | 1012.7 |
| 20260506145023 | 52 | 191 | 1.0 | 3.0 | 0.00 | 0.00 | 0.00 | 77 | 1012.7 |
| 20260506144920 | 51 | 191 | 1.0 | 3.0 | 0.00 | 0.00 | 0.00 | 77 | 1012.7 |
| 20260506144827 | 51 | 191 | 1.0 | 3.0 | 0.00 | 0.00 | 0.00 | 77 | 1012.7 |
| 20260506144744 | 51 | 191 | 1.0 | 3.0 | 0.00 | 0.00 | 0.00 | 77 | 1012.7 |
| 20260506144631 | 51 | 191 | 1.0 | 3.0 | 0.00 | 0.00 | 0.00 | 77 | 1012.7 |
| 20260506144526 | 51 | 191 | 2.0 | 3.0 | 0.00 | 0.00 | 0.00 | 77 | 1012.7 |
| 20260506144431 | 51 | 191 | 2.0 | 3.0 | 0.00 | 0.00 | 0.00 | 77 | 1012.7 |
| 20260506144331 | 51 | 191 | 2.0 | 3.0 | 0.00 | 0.00 | 0.00 | 77 | 1012.7 |
| 20260506144240 | 51 | 191 | 1.0 | 3.0 | 0.00 | 0.00 | 0.00 | 77 | 1012.7 |
| 20260506144114 | 51 | 191 | 1.0 | 3.0 | 0.00 | 0.00 | 0.00 | 77 | 1012.7 |
| 20260506144032 | 51 | 191 | 1.0 | 3.0 | 0.00 | 0.00 | 0.00 | 77 | 1012.7 |
| 20260506143939 | 51 | 191 | 1.0 | 3.0 | 0.00 | 0.00 | 0.00 | 77 | 1012.7 |
| 20260506143817 | 51 | 191 | 1.0 | 3.0 | 0.00 | 0.00 | 0.00 | 77 | 1012.7 |
| 20260506143745 | 51 | 191 | 1.0 | 3.0 | 0.00 | 0.00 | 0.00 | 77 | 1012.7 |
| 20260506143623 | 51 | 191 | 1.0 | 3.0 | 0.00 | 0.00 | 0.00 | 77 | 1012.6 |
| 20260506143521 | 51 | 191 | 2.0 | 3.0 | 0.00 | 0.00 | 0.00 | 77 | 1012.6 |
| 20260506143428 | 51 | 191 | 1.0 | 3.0 | 0.00 | 0.00 | 0.00 | 77 | 1012.6 |
| 20260506143324 | 51 | 191 | 1.0 | 5.0 | 0.00 | 0.00 | 0.00 | 77 | 1012.5 |
| 20260506143231 | 51 | 191 | 1.0 | 5.0 | 0.00 | 0.00 | 0.00 | 77 | 1012.5 |
| 20260506143129 | 51 | 191 | 2.0 | 5.0 | 0.00 | 0.00 | 0.00 | 77 | 1012.4 |
| 20260506143040 | 51 | 191 | 2.0 | 5.0 | 0.00 | 0.00 | 0.00 | 77 | 1012.5 |
| 20260506142935 | 51 | 191 | 1.0 | 5.0 | 0.00 | 0.00 | 0.00 | 77 | 1012.4 |
| 20260506142839 | 51 | 191 | 1.0 | 5.0 | 0.00 | 0.00 | 0.00 | 77 | 1012.4 |
| 20260506142736 | 51 | 191 | 1.0 | 5.0 | 0.00 | 0.00 | 0.00 | 77 | 1012.4 |
| 20260506142620 | 51 | 191 | 2.0 | 5.0 | 0.00 | 0.00 | 0.00 | 77 | 1012.4 |
| 20260506142537 | 51 | 191 | 2.0 | 5.0 | 0.00 | 0.00 | 0.00 | 77 | 1012.4 |
| 20260506142423 | 50 | 200 | 2.0 | 4.0 | 0.00 | 0.00 | 0.00 | 77 | 1012.4 |
| 20260506142321 | 50 | 200 | 2.0 | 4.0 | 0.00 | 0.00 | 0.00 | 77 | 1012.4 |
| 20260506142232 | 50 | 196 | 1.0 | 3.0 | 0.00 | 0.00 | 0.00 | 76 | 1012.4 |
| 20260506142128 | 50 | 196 | 1.0 | 3.0 | 0.00 | 0.00 | 0.00 | 76 | 1012.4 |
| 20260506142025 | 50 | 196 | 1.0 | 3.0 | 0.00 | 0.00 | 0.00 | 76 | 1012.4 |
| 20260506141913 | 50 | 196 | 2.0 | 3.0 | 0.00 | 0.00 | 0.00 | 76 | 1012.4 |
| 20260506141830 | 50 | 196 | 1.0 | 3.0 | 0.00 | 0.00 | 0.00 | 76 | 1012.4 |
| 20260506141736 | 50 | 196 | 1.0 | 3.0 | 0.00 | 0.00 | 0.00 | 76 | 1012.4 |
| 20260506141637 | 50 | 196 | 0.0 | 2.0 | 0.00 | 0.00 | 0.00 | 76 | 1012.4 |
| 20260506141523 | 50 | 196 | 0.0 | 2.0 | 0.00 | 0.00 | 0.00 | 76 | 1012.4 |
| 20260506141418 | 50 | 196 | 0.0 | 2.0 | 0.00 | 0.00 | 0.00 | 76 | 1012.4 |
| 20260506141315 | 50 | 196 | 0.0 | 2.0 | 0.00 | 0.00 | 0.00 | 76 | 1012.4 |
| 20260506141222 | 50 | 196 | 0.0 | 2.0 | 0.00 | 0.00 | 0.00 | 76 | 1012.4 |
| 20260506141118 | 50 | 196 | 1.0 | 2.0 | 0.00 | 0.00 | 0.00 | 76 | 1012.4 |
| 20260506141024 | 50 | 196 | 0.0 | 2.0 | 0.00 | 0.00 | 0.00 | 76 | 1012.4 |
| 20260506140926 | 50 | 196 | 0.0 | 2.0 | 0.00 | 0.00 | 0.00 | 76 | 1012.4 |
| 20260506140821 | 50 | 196 | 0.0 | 2.0 | 0.00 | 0.00 | 0.00 | 76 | 1012.4 |
| 20260506140728 | 50 | 196 | 0.0 | 3.0 | 0.00 | 0.00 | 0.00 | 76 | 1012.4 |
| 20260506140624 | 50 | 196 | 1.0 | 3.0 | 0.00 | 0.00 | 0.00 | 76 | 1012.4 |
| 20260506140528 | 50 | 196 | 0.0 | 3.0 | 0.00 | 0.00 | 0.00 | 76 | 1012.4 |
| 20260506140426 | 50 | 196 | 0.0 | 4.0 | 0.00 | 0.00 | 0.00 | 76 | 1012.4 |
| 20260506140336 | 50 | 196 | 1.0 | 4.0 | 0.00 | 0.00 | 0.00 | 76 | 1012.4 |
| 20260506140230 | 50 | 196 | 1.0 | 4.0 | 0.00 | 0.00 | 0.00 | 76 | 1012.3 |
| 20260506140125 | 50 | 196 | 1.0 | 4.0 | 0.00 | 0.00 | 0.00 | 76 | 1012.3 |
| 20260506140032 | 50 | 196 | 1.0 | 4.0 | 0.00 | 0.00 | 0.00 | 76 | 1012.3 |
| 20260506135929 | 50 | 196 | 1.0 | 5.0 | 0.00 | 0.00 | 0.00 | 76 | 1012.3 |
| 20260506135836 | 50 | 196 | 2.0 | 8.0 | 0.00 | 0.00 | 0.00 | 76 | 1012.2 |
| 20260506135715 | 50 | 196 | 2.0 | 8.0 | 0.00 | 0.00 | 0.00 | 76 | 1012.1 |
| 20260506135614 | 50 | 196 | 1.0 | 8.0 | 0.00 | 0.00 | 0.00 | 76 | 1012.1 |
| 20260506135521 | 50 | 196 | 1.0 | 8.0 | 0.00 | 0.00 | 0.00 | 76 | 1012.1 |
| 20260506135418 | 50 | 196 | 2.0 | 8.0 | 0.00 | 0.00 | 0.00 | 76 | 1012.1 |
| 20260506135321 | 50 | 194 | 2.0 | 9.0 | 0.00 | 0.00 | 0.00 | 76 | 1012.1 |
| 20260506135236 | 50 | 195 | 3.0 | 9.0 | 0.00 | 0.00 | 0.00 | 76 | 1012.0 |
| 20260506135120 | 50 | 182 | 4.0 | 9.0 | 0.00 | 0.00 | 0.00 | 76 | 1012.0 |
| 20260506135024 | 50 | 183 | 5.0 | 9.0 | 0.00 | 0.00 | 0.00 | 76 | 1011.9 |
| 20260506134925 | 50 | 157 | 4.0 | 9.0 | 0.00 | 0.00 | 0.00 | 76 | 1011.9 |
| 20260506134820 | 50 | 178 | 4.0 | 9.0 | 0.00 | 0.00 | 0.00 | 76 | 1011.9 |
| 20260506134728 | 50 | 180 | 4.0 | 9.0 | 0.00 | 0.00 | 0.00 | 76 | 1011.9 |
| 20260506134624 | 50 | 173 | 4.0 | 9.0 | 0.00 | 0.00 | 0.00 | 76 | 1011.9 |
| 20260506134529 | 50 | 156 | 5.0 | 11.0 | 0.00 | 0.00 | 0.00 | 76 | 1011.9 |
| 20260506134426 | 50 | 183 | 6.0 | 11.0 | 0.00 | 0.00 | 0.00 | 76 | 1011.9 |
| 20260506134331 | 50 | 170 | 6.0 | 11.0 | 0.00 | 0.00 | 0.00 | 76 | 1011.9 |
| 20260506134231 | 50 | 151 | 6.0 | 11.0 | 0.00 | 0.00 | 0.00 | 76 | 1011.9 |
| 20260506134131 | 50 | 150 | 7.0 | 11.0 | 0.00 | 0.00 | 0.00 | 76 | 1011.8 |
| 20260506134035 | 50 | 158 | 7.0 | 11.0 | 0.00 | 0.00 | 0.00 | 76 | 1011.9 |
| 20260506133932 | 50 | 156 | 7.0 | 11.0 | 0.00 | 0.00 | 0.00 | 76 | 1011.8 |
| 20260506133838 | 50 | 173 | 7.0 | 11.0 | 0.00 | 0.00 | 0.00 | 76 | 1011.9 |
| 20260506133716 | 50 | 152 | 6.0 | 11.0 | 0.00 | 0.00 | 0.00 | 76 | 1011.8 |
| 20260506133616 | 50 | 160 | 6.0 | 9.0 | 0.00 | 0.00 | 0.00 | 76 | 1011.8 |
| 20260506133523 | 50 | 161 | 6.0 | 9.0 | 0.00 | 0.00 | 0.00 | 76 | 1011.8 |
| 20260506133440 | 50 | 169 | 5.0 | 9.0 | 0.00 | 0.00 | 0.00 | 76 | 1011.9 |
| 20260506133325 | 50 | 163 | 5.0 | 9.0 | 0.00 | 0.00 | 0.00 | 76 | 1011.9 |
| 20260506133221 | 50 | 158 | 6.0 | 9.0 | 0.00 | 0.00 | 0.00 | 76 | 1011.9 |
| 20260506133130 | 50 | 159 | 6.0 | 9.0 | 0.00 | 0.00 | 0.00 | 76 | 1011.9 |
| 20260506133044 | 50 | 158 | 6.0 | 9.0 | 0.00 | 0.00 | 0.00 | 76 | 1011.9 |
| 20260506132928 | 50 | 162 | 5.0 | 9.0 | 0.00 | 0.00 | 0.00 | 76 | 1011.9 |
| 20260506132837 | 50 | 173 | 5.0 | 9.0 | 0.00 | 0.00 | 0.00 | 76 | 1011.9 |
| 20260506132732 | 50 | 154 | 6.0 | 9.0 | 0.00 | 0.00 | 0.00 | 76 | 1011.8 |
| 20260506132638 | 50 | 127 | 6.0 | 9.0 | 0.00 | 0.00 | 0.00 | 76 | 1011.8 |
| 20260506132513 | 50 | 175 | 5.0 | 9.0 | 0.00 | 0.00 | 0.00 | 76 | 1011.8 |
| 20260506132430 | 50 | 159 | 5.0 | 9.0 | 0.00 | 0.00 | 0.00 | 76 | 1011.8 |
| 20260506132336 | 50 | 162 | 5.0 | 9.0 | 0.00 | 0.00 | 0.00 | 76 | 1011.8 |
| 20260506132218 | 50 | 155 | 4.0 | 9.0 | 0.00 | 0.00 | 0.00 | 76 | 1011.8 |
| 20260506132113 | 50 | 143 | 5.0 | 9.0 | 0.00 | 0.00 | 0.00 | 76 | 1011.7 |
| 20260506132019 | 50 | 125 | 5.0 | 8.0 | 0.00 | 0.00 | 0.00 | 76 | 1011.7 |
| 20260506131915 | 50 | 150 | 4.0 | 8.0 | 0.00 | 0.00 | 0.00 | 76 | 1011.8 |
| 20260506131822 | 50 | 134 | 4.0 | 11.0 | 0.00 | 0.00 | 0.00 | 76 | 1011.7 |
| 20260506131722 | 50 | 148 | 5.0 | 11.0 | 0.00 | 0.00 | 0.00 | 76 | 1011.8 |
| 20260506131618 | 50 | 159 | 5.0 | 11.0 | 0.00 | 0.00 | 0.00 | 76 | 1011.8 |
| 20260506131548 | 50 | 149 | 4.0 | 11.0 | 0.00 | 0.00 | 0.00 | 76 | 1011.8 |
| 20260506131432 | 50 | 150 | 4.0 | 11.0 | 0.00 | 0.00 | 0.00 | 76 | 1011.7 |
| 20260506131330 | 50 | 163 | 3.0 | 11.0 | 0.00 | 0.00 | 0.00 | 76 | 1011.8 |
| 20260506131255 | 50 | 170 | 3.0 | 11.0 | 0.00 | 0.00 | 0.00 | 76 | 1011.7 |
| 20260506131133 | 50 | 170 | 5.0 | 11.0 | 0.00 | 0.00 | 0.00 | 76 | 1011.7 |
| 20260506131039 | 50 | 151 | 5.0 | 11.0 | 0.00 | 0.00 | 0.00 | 76 | 1011.7 |
| 20260506130937 | 50 | 160 | 5.0 | 10.0 | 0.00 | 0.00 | 0.00 | 76 | 1011.7 |
| 20260506130816 | 50 | 166 | 5.0 | 10.0 | 0.00 | 0.00 | 0.00 | 76 | 1011.7 |
| 20260506130725 | 50 | 157 | 5.0 | 10.0 | 0.00 | 0.00 | 0.00 | 76 | 1011.6 |
| 20260506130621 | 50 | 150 | 4.0 | 10.0 | 0.00 | 0.00 | 0.00 | 76 | 1011.6 |
| 20260506130547 | 50 | 146 | 5.0 | 10.0 | 0.00 | 0.00 | 0.00 | 76 | 1011.6 |
| 20260506130422 | 50 | 149 | 5.0 | 10.0 | 0.00 | 0.00 | 0.00 | 76 | 1011.6 |
| 20260506130328 | 50 | 144 | 5.0 | 10.0 | 0.00 | 0.00 | 0.00 | 76 | 1011.6 |
| 20260506130225 | 50 | 152 | 3.0 | 10.0 | 0.00 | 0.00 | 0.00 | 76 | 1011.6 |
| 20260506130137 | 50 | 163 | 4.0 | 10.0 | 0.00 | 0.00 | 0.00 | 76 | 1011.6 |
| 20260506130049 | 50 | 150 | 5.0 | 10.0 | 0.00 | 0.00 | 0.00 | 77 | 1011.6 |
| 20260506125932 | 50 | 145 | 5.0 | 10.0 | 0.00 | 0.00 | 0.00 | 76 | 1011.5 |
| 20260506125828 | 50 | 147 | 5.0 | 10.0 | 0.00 | 0.00 | 0.00 | 76 | 1011.5 |
| 20260506125734 | 50 | 145 | 4.0 | 10.0 | 0.00 | 0.00 | 0.00 | 76 | 1011.5 |
| 20260506125654 | 50 | 155 | 3.0 | 10.0 | 0.00 | 0.00 | 0.00 | 76 | 1011.4 |
| 20260506125535 | 50 | 157 | 4.0 | 10.0 | 0.00 | 0.00 | 0.00 | 76 | 1011.5 |
| 20260506125417 | 50 | 172 | 6.0 | 11.0 | 0.00 | 0.00 | 0.00 | 76 | 1011.4 |
| 20260506125316 | 50 | 136 | 6.0 | 11.0 | 0.00 | 0.00 | 0.00 | 76 | 1011.4 |
| 20260506125223 | 50 | 144 | 6.0 | 11.0 | 0.00 | 0.00 | 0.00 | 76 | 1011.4 |
| 20260506125119 | 50 | 160 | 6.0 | 11.0 | 0.00 | 0.00 | 0.00 | 77 | 1011.4 |
| 20260506125024 | 50 | 149 | 6.0 | 11.0 | 0.00 | 0.00 | 0.00 | 77 | 1011.4 |
| 20260506124920 | 50 | 151 | 6.0 | 11.0 | 0.00 | 0.00 | 0.00 | 77 | 1011.4 |
| 20260506124817 | 50 | 144 | 6.0 | 11.0 | 0.00 | 0.00 | 0.00 | 77 | 1011.4 |
| 20260506124730 | 50 | 156 | 6.0 | 11.0 | 0.00 | 0.00 | 0.00 | 77 | 1011.4 |
| 20260506124625 | 50 | 140 | 6.0 | 11.0 | 0.00 | 0.00 | 0.00 | 77 | 1011.4 |
| 20260506124532 | 50 | 152 | 7.0 | 11.0 | 0.00 | 0.00 | 0.00 | 77 | 1011.4 |
| 20260506124428 | 50 | 150 | 6.0 | 11.0 | 0.00 | 0.00 | 0.00 | 77 | 1011.4 |
| 20260506124333 | 50 | 162 | 5.0 | 9.0 | 0.00 | 0.00 | 0.00 | 77 | 1011.4 |
| 20260506124240 | 50 | 150 | 5.0 | 9.0 | 0.00 | 0.00 | 0.00 | 77 | 1011.4 |
| 20260506124115 | 51 | 152 | 6.0 | 9.0 | 0.00 | 0.00 | 0.00 | 77 | 1011.4 |
| 20260506124024 | 51 | 150 | 6.0 | 9.0 | 0.00 | 0.00 | 0.00 | 77 | 1011.4 |
| 20260506123940 | 51 | 160 | 5.0 | 9.0 | 0.00 | 0.00 | 0.00 | 77 | 1011.4 |
| 20260506123825 | 51 | 158 | 5.0 | 9.0 | 0.00 | 0.00 | 0.00 | 77 | 1011.4 |
| 20260506123722 | 51 | 150 | 5.0 | 9.0 | 0.00 | 0.00 | 0.00 | 77 | 1011.4 |
| 20260506123651 | 51 | 170 | 5.0 | 8.0 | 0.00 | 0.00 | 0.00 | 77 | 1011.4 |
| 20260506123523 | 51 | 165 | 5.0 | 8.0 | 0.00 | 0.00 | 0.00 | 77 | 1011.4 |
| 20260506123450 | 51 | 153 | 5.0 | 8.0 | 0.00 | 0.00 | 0.00 | 77 | 1011.4 |
| 20260506123327 | 51 | 141 | 4.0 | 8.0 | 0.00 | 0.00 | 0.00 | 76 | 1011.3 |
| 20260506123238 | 51 | 152 | 4.0 | 8.0 | 0.00 | 0.00 | 0.00 | 76 | 1011.4 |
| 20260506123140 | 51 | 152 | 4.0 | 8.0 | 0.00 | 0.00 | 0.00 | 76 | 1011.3 |
| 20260506123015 | 51 | 154 | 4.0 | 9.0 | 0.00 | 0.00 | 0.00 | 76 | 1011.4 |
| 20260506122914 | 51 | 154 | 4.0 | 9.0 | 0.00 | 0.00 | 0.00 | 76 | 1011.3 |
| 20260506122819 | 51 | 154 | 4.0 | 9.0 | 0.00 | 0.00 | 0.00 | 76 | 1011.4 |
| 20260506122718 | 51 | 154 | 4.0 | 9.0 | 0.00 | 0.00 | 0.00 | 76 | 1011.3 |
| 20260506122622 | 51 | 156 | 5.0 | 9.0 | 0.00 | 0.00 | 0.00 | 76 | 1011.4 |
| 20260506122538 | 51 | 155 | 4.0 | 9.0 | 0.00 | 0.00 | 0.00 | 76 | 1011.3 |
| 20260506122426 | 51 | 152 | 4.0 | 9.0 | 0.00 | 0.00 | 0.00 | 76 | 1011.3 |
| 20260506122324 | 51 | 156 | 5.0 | 9.0 | 0.00 | 0.00 | 0.00 | 76 | 1011.3 |
| 20260506122231 | 51 | 158 | 5.0 | 9.0 | 0.00 | 0.00 | 0.00 | 76 | 1011.3 |
| 20260506122150 | 51 | 156 | 4.0 | 8.0 | 0.00 | 0.00 | 0.00 | 76 | 1011.3 |
| 20260506122033 | 51 | 157 | 5.0 | 8.0 | 0.00 | 0.00 | 0.00 | 76 | 1011.3 |
| 20260506122000 | 51 | 163 | 5.0 | 8.0 | 0.00 | 0.00 | 0.00 | 76 | 1011.3 |
| 20260506121817 | 51 | 144 | 4.0 | 8.0 | 0.00 | 0.00 | 0.00 | 76 | 1011.3 |
| 20260506121720 | 51 | 155 | 4.0 | 8.0 | 0.00 | 0.00 | 0.00 | 76 | 1011.3 |
| 20260506121626 | 51 | 142 | 4.0 | 8.0 | 0.00 | 0.00 | 0.00 | 76 | 1011.3 |
| 20260506121523 | 51 | 144 | 4.0 | 8.0 | 0.00 | 0.00 | 0.00 | 76 | 1011.3 |
| 20260506121420 | 51 | 164 | 4.0 | 8.0 | 0.00 | 0.00 | 0.00 | 76 | 1011.3 |
| 20260506121325 | 52 | 150 | 5.0 | 8.0 | 0.00 | 0.00 | 0.00 | 76 | 1011.3 |
| 20260506121221 | 52 | 163 | 4.0 | 8.0 | 0.00 | 0.00 | 0.00 | 76 | 1011.3 |
| 20260506121134 | 52 | 140 | 5.0 | 8.0 | 0.00 | 0.00 | 0.00 | 76 | 1011.3 |
| 20260506121030 | 52 | 139 | 5.0 | 8.0 | 0.00 | 0.00 | 0.00 | 76 | 1011.3 |
| 20260506120926 | 52 | 144 | 5.0 | 8.0 | 0.00 | 0.00 | 0.00 | 76 | 1011.3 |
| 20260506120832 | 52 | 171 | 4.0 | 8.0 | 0.00 | 0.00 | 0.00 | 76 | 1011.3 |
| 20260506120729 | 52 | 150 | 4.0 | 8.0 | 0.00 | 0.00 | 0.00 | 76 | 1011.2 |
| 20260506120637 | 52 | 153 | 4.0 | 8.0 | 0.00 | 0.00 | 0.00 | 76 | 1011.2 |
| 20260506120516 | 52 | 156 | 4.0 | 8.0 | 0.00 | 0.00 | 0.00 | 75 | 1011.2 |
| 20260506120414 | 52 | 158 | 4.0 | 8.0 | 0.00 | 0.00 | 0.00 | 75 | 1011.2 |
| 20260506120319 | 52 | 155 | 4.0 | 8.0 | 0.00 | 0.00 | 0.00 | 75 | 1011.2 |
| 20260506120217 | 52 | 154 | 4.0 | 8.0 | 0.00 | 0.00 | 0.00 | 75 | 1011.2 |
| 20260506120122 | 52 | 154 | 4.0 | 8.0 | 0.00 | 0.00 | 0.00 | 75 | 1011.2 |
| 20260506120019 | 52 | 155 | 4.0 | 8.0 | 0.00 | 0.00 | 0.00 | 75 | 1011.2 |
| 20260506115914 | 52 | 158 | 5.0 | 8.0 | 0.00 | 0.00 | 0.00 | 75 | 1011.1 |
| 20260506115825 | 52 | 144 | 5.0 | 8.0 | 0.00 | 0.00 | 0.00 | 75 | 1011.1 |
| 20260506115721 | 52 | 164 | 5.0 | 8.0 | 0.00 | 0.00 | 0.00 | 74 | 1011.1 |
| 20260506115630 | 52 | 151 | 4.0 | 8.0 | 0.00 | 0.00 | 0.00 | 74 | 1011.1 |
| 20260506115524 | 52 | 173 | 3.0 | 7.0 | 0.00 | 0.00 | 0.00 | 74 | 1011.1 |
| 20260506115430 | 52 | 143 | 3.0 | 7.0 | 0.00 | 0.00 | 0.00 | 74 | 1011.1 |
| 20260506115348 | 52 | 142 | 4.0 | 7.0 | 0.00 | 0.00 | 0.00 | 73 | 1011.2 |
| 20260506115230 | 52 | 143 | 4.0 | 7.0 | 0.00 | 0.00 | 0.00 | 73 | 1011.1 |
| 20260506115132 | 52 | 144 | 4.0 | 7.0 | 0.00 | 0.00 | 0.00 | 73 | 1011.1 |
| 20260506115037 | 52 | 146 | 3.0 | 7.0 | 0.00 | 0.00 | 0.00 | 72 | 1011.1 |
| 20260506114914 | 52 | 162 | 3.0 | 7.0 | 0.00 | 0.00 | 0.00 | 72 | 1011.0 |
| 20260506114831 | 52 | 162 | 3.0 | 7.0 | 0.00 | 0.00 | 0.00 | 72 | 1011.0 |
| 20260506114737 | 52 | 164 | 4.0 | 7.0 | 0.00 | 0.00 | 0.00 | 72 | 1011.0 |
| 20260506114635 | 52 | 166 | 4.0 | 6.0 | 0.00 | 0.00 | 0.00 | 72 | 1011.0 |
| 20260506114537 | 52 | 175 | 4.0 | 6.0 | 0.00 | 0.00 | 0.00 | 72 | 1011.0 |
| 20260506114418 | 52 | 153 | 3.0 | 7.0 | 0.00 | 0.00 | 0.00 | 72 | 1011.0 |
| 20260506114316 | 52 | 153 | 3.0 | 7.0 | 0.00 | 0.00 | 0.00 | 73 | 1011.0 |
| 20260506114224 | 52 | 153 | 3.0 | 7.0 | 0.00 | 0.00 | 0.00 | 73 | 1010.9 |
| 20260506114119 | 52 | 154 | 4.0 | 7.0 | 0.00 | 0.00 | 0.00 | 73 | 1010.9 |
| 20260506114014 | 53 | 146 | 4.0 | 7.0 | 0.00 | 0.00 | 0.00 | 73 | 1010.9 |
| 20260506113922 | 53 | 146 | 4.0 | 7.0 | 0.00 | 0.00 | 0.00 | 73 | 1010.9 |
| 20260506113823 | 53 | 147 | 4.0 | 7.0 | 0.00 | 0.00 | 0.00 | 73 | 1010.9 |
| 20260506113731 | 53 | 148 | 4.0 | 7.0 | 0.00 | 0.00 | 0.00 | 73 | 1010.9 |
| 20260506113626 | 53 | 148 | 4.0 | 7.0 | 0.00 | 0.00 | 0.00 | 73 | 1010.9 |
| 20260506113531 | 53 | 148 | 4.0 | 7.0 | 0.00 | 0.00 | 0.00 | 73 | 1010.9 |
| 20260506113430 | 53 | 150 | 4.0 | 7.0 | 0.00 | 0.00 | 0.00 | 73 | 1010.9 |
| 20260506113336 | 53 | 150 | 4.0 | 7.0 | 0.00 | 0.00 | 0.00 | 73 | 1010.9 |
| 20260506113215 | 53 | 151 | 4.0 | 7.0 | 0.00 | 0.00 | 0.00 | 73 | 1010.9 |
| 20260506113124 | 53 | 152 | 4.0 | 7.0 | 0.00 | 0.00 | 0.00 | 73 | 1010.9 |
| 20260506113039 | 53 | 153 | 5.0 | 7.0 | 0.00 | 0.00 | 0.00 | 73 | 1010.8 |
| 20260506112925 | 53 | 155 | 4.0 | 7.0 | 0.00 | 0.00 | 0.00 | 73 | 1010.9 |
| 20260506112822 | 53 | 156 | 4.0 | 7.0 | 0.00 | 0.00 | 0.00 | 74 | 1010.8 |
| 20260506112731 | 53 | 159 | 4.0 | 7.0 | 0.00 | 0.00 | 0.00 | 74 | 1010.8 |
| 20260506112625 | 53 | 160 | 4.0 | 7.0 | 0.00 | 0.00 | 0.00 | 74 | 1010.9 |
| 20260506112523 | 53 | 160 | 4.0 | 7.0 | 0.00 | 0.00 | 0.00 | 74 | 1010.8 |
| 20260506112434 | 53 | 160 | 4.0 | 7.0 | 0.00 | 0.00 | 0.00 | 74 | 1010.8 |
| 20260506112330 | 53 | 160 | 4.0 | 7.0 | 0.00 | 0.00 | 0.00 | 74 | 1010.8 |
| 20260506112239 | 53 | 160 | 4.0 | 7.0 | 0.00 | 0.00 | 0.00 | 74 | 1010.8 |
| 20260506112114 | 53 | 161 | 4.0 | 7.0 | 0.00 | 0.00 | 0.00 | 75 | 1010.8 |
| 20260506112030 | 53 | 162 | 4.0 | 7.0 | 0.00 | 0.00 | 0.00 | 75 | 1010.8 |
| 20260506111937 | 53 | 162 | 4.0 | 7.0 | 0.00 | 0.00 | 0.00 | 75 | 1010.8 |
| 20260506111819 | 53 | 162 | 4.0 | 7.0 | 0.00 | 0.00 | 0.00 | 75 | 1010.8 |
| 20260506111719 | 53 | 163 | 4.0 | 7.0 | 0.00 | 0.00 | 0.00 | 75 | 1010.8 |
| 20260506111623 | 53 | 163 | 4.0 | 7.0 | 0.00 | 0.00 | 0.00 | 75 | 1010.8 |
| 20260506111519 | 53 | 163 | 4.0 | 7.0 | 0.00 | 0.00 | 0.00 | 75 | 1010.8 |
| 20260506111427 | 53 | 163 | 4.0 | 7.0 | 0.00 | 0.00 | 0.00 | 75 | 1010.8 |
| 20260506111323 | 53 | 163 | 3.0 | 8.0 | 0.00 | 0.00 | 0.00 | 75 | 1010.8 |
| 20260506111224 | 53 | 165 | 3.0 | 8.0 | 0.00 | 0.00 | 0.00 | 75 | 1010.8 |
| 20260506111132 | 53 | 164 | 3.0 | 8.0 | 0.00 | 0.00 | 0.00 | 75 | 1010.8 |
| 20260506111028 | 53 | 164 | 4.0 | 8.0 | 0.00 | 0.00 | 0.00 | 75 | 1010.7 |
| 20260506110933 | 53 | 164 | 4.0 | 8.0 | 0.00 | 0.00 | 0.00 | 75 | 1010.7 |
| 20260506110830 | 53 | 166 | 3.0 | 8.0 | 0.00 | 0.00 | 0.00 | 75 | 1010.7 |
| 20260506110755 | 53 | 163 | 3.0 | 9.0 | 0.00 | 0.00 | 0.00 | 74 | 1010.7 |
| 20260506110633 | 53 | 161 | 4.0 | 9.0 | 0.00 | 0.00 | 0.00 | 74 | 1010.7 |
| 20260506110520 | 53 | 162 | 4.0 | 9.0 | 0.00 | 0.00 | 0.00 | 74 | 1010.7 |
| 20260506110418 | 53 | 164 | 3.0 | 9.0 | 0.00 | 0.00 | 0.00 | 74 | 1010.7 |
| 20260506110345 | 53 | 164 | 3.0 | 9.0 | 0.00 | 0.00 | 0.00 | 74 | 1010.7 |
| 20260506110230 | 53 | 165 | 3.0 | 9.0 | 0.00 | 0.00 | 0.00 | 73 | 1010.7 |
| 20260506110125 | 53 | 165 | 4.0 | 9.0 | 0.00 | 0.00 | 0.00 | 73 | 1010.7 |
| 20260506110023 | 53 | 166 | 5.0 | 9.0 | 0.00 | 0.00 | 0.00 | 73 | 1010.7 |
| 20260506105928 | 53 | 161 | 5.0 | 9.0 | 0.00 | 0.00 | 0.00 | 73 | 1010.7 |
| 20260506105824 | 53 | 160 | 6.0 | 9.0 | 0.00 | 0.00 | 0.00 | 73 | 1010.7 |
| 20260506105734 | 53 | 162 | 6.0 | 9.0 | 0.00 | 0.00 | 0.00 | 73 | 1010.7 |
| 20260506105631 | 53 | 162 | 5.0 | 9.0 | 0.00 | 0.00 | 0.00 | 73 | 1010.7 |
| 20260506105517 | 53 | 167 | 4.0 | 9.0 | 0.00 | 0.00 | 0.00 | 73 | 1010.7 |
| 20260506105412 | 53 | 149 | 4.0 | 9.0 | 0.00 | 0.00 | 0.00 | 73 | 1010.7 |
| 20260506105339 | 53 | 150 | 5.0 | 9.0 | 0.00 | 0.00 | 0.00 | 73 | 1010.7 |
| 20260506105218 | 53 | 150 | 5.0 | 9.0 | 0.00 | 0.00 | 0.00 | 73 | 1010.6 |
| 20260506105116 | 53 | 148 | 5.0 | 9.0 | 0.00 | 0.00 | 0.00 | 73 | 1010.7 |
| 20260506105023 | 53 | 167 | 5.0 | 9.0 | 0.00 | 0.00 | 0.00 | 73 | 1010.7 |
| 20260506104921 | 53 | 146 | 4.0 | 9.0 | 0.00 | 0.00 | 0.00 | 73 | 1010.6 |
| 20260506104847 | 53 | 169 | 4.0 | 9.0 | 0.00 | 0.00 | 0.00 | 72 | 1010.6 |
| 20260506104721 | 53 | 142 | 5.0 | 9.0 | 0.00 | 0.00 | 0.00 | 72 | 1010.6 |
| 20260506104628 | 53 | 142 | 5.0 | 9.0 | 0.00 | 0.00 | 0.00 | 72 | 1010.6 |
| 20260506104522 | 53 | 148 | 5.0 | 9.0 | 0.00 | 0.00 | 0.00 | 71 | 1010.6 |
| 20260506104448 | 53 | 142 | 5.0 | 9.0 | 0.00 | 0.00 | 0.00 | 71 | 1010.6 |
| 20260506104338 | 53 | 136 | 6.0 | 9.0 | 0.00 | 0.00 | 0.00 | 70 | 1010.5 |
| 20260506104235 | 53 | 138 | 5.0 | 8.0 | 0.00 | 0.00 | 0.00 | 70 | 1010.6 |
| 20260506104137 | 54 | 136 | 6.0 | 8.0 | 0.00 | 0.00 | 0.00 | 70 | 1010.6 |
| 20260506104014 | 54 | 141 | 6.0 | 8.0 | 0.00 | 0.00 | 0.00 | 69 | 1010.5 |
| 20260506103920 | 54 | 150 | 5.0 | 8.0 | 0.00 | 0.00 | 0.00 | 69 | 1010.5 |
| 20260506103816 | 54 | 140 | 5.0 | 8.0 | 0.00 | 0.00 | 0.00 | 69 | 1010.6 |
| 20260506103715 | 54 | 139 | 5.0 | 8.0 | 0.00 | 0.00 | 0.00 | 69 | 1010.5 |
| 20260506103624 | 54 | 136 | 5.0 | 8.0 | 0.00 | 0.00 | 0.00 | 69 | 1010.5 |
| 20260506103549 | 54 | 140 | 6.0 | 8.0 | 0.00 | 0.00 | 0.00 | 70 | 1010.5 |
| 20260506103424 | 54 | 142 | 5.0 | 8.0 | 0.00 | 0.00 | 0.00 | 70 | 1010.5 |
| 20260506103322 | 54 | 146 | 5.0 | 8.0 | 0.00 | 0.00 | 0.00 | 70 | 1010.5 |
| 20260506103230 | 54 | 149 | 5.0 | 8.0 | 0.00 | 0.00 | 0.00 | 71 | 1010.5 |
| 20260506103126 | 54 | 148 | 5.0 | 8.0 | 0.00 | 0.00 | 0.00 | 71 | 1010.5 |
| 20260506103032 | 54 | 158 | 4.0 | 7.0 | 0.00 | 0.00 | 0.00 | 71 | 1010.5 |
| 20260506102947 | 55 | 159 | 4.0 | 7.0 | 0.00 | 0.00 | 0.00 | 71 | 1010.4 |
| 20260506102833 | 55 | 160 | 4.0 | 7.0 | 0.00 | 0.00 | 0.00 | 71 | 1010.5 |
| 20260506102802 | 55 | 161 | 3.0 | 6.0 | 0.00 | 0.00 | 0.00 | 72 | 1010.4 |
| 20260506102615 | 55 | 162 | 4.0 | 6.0 | 0.00 | 0.00 | 0.00 | 72 | 1010.4 |
| 20260506102512 | 55 | 162 | 3.0 | 6.0 | 0.00 | 0.00 | 0.00 | 72 | 1010.4 |
| 20260506102437 | 55 | 162 | 3.0 | 6.0 | 0.00 | 0.00 | 0.00 | 72 | 1010.4 |
| 20260506102315 | 55 | 163 | 3.0 | 6.0 | 0.00 | 0.00 | 0.00 | 71 | 1010.4 |
| 20260506102220 | 55 | 163 | 3.0 | 6.0 | 0.00 | 0.00 | 0.00 | 71 | 1010.4 |
| 20260506102119 | 55 | 163 | 3.0 | 6.0 | 0.00 | 0.00 | 0.00 | 71 | 1010.4 |
| 20260506102016 | 55 | 163 | 3.0 | 6.0 | 0.00 | 0.00 | 0.00 | 71 | 1010.4 |
| 20260506101942 | 55 | 163 | 3.0 | 6.0 | 0.00 | 0.00 | 0.00 | 71 | 1010.4 |
| 20260506101827 | 55 | 163 | 4.0 | 6.0 | 0.00 | 0.00 | 0.00 | 71 | 1010.4 |
| 20260506101725 | 55 | 163 | 3.0 | 7.0 | 0.00 | 0.00 | 0.00 | 71 | 1010.4 |
| 20260506101621 | 55 | 163 | 3.0 | 7.0 | 0.00 | 0.00 | 0.00 | 72 | 1010.4 |
| 20260506101525 | 55 | 163 | 3.0 | 7.0 | 0.00 | 0.00 | 0.00 | 72 | 1010.4 |
| 20260506101434 | 55 | 163 | 3.0 | 7.0 | 0.00 | 0.00 | 0.00 | 72 | 1010.4 |
| 20260506101312 | 56 | 163 | 3.0 | 7.0 | 0.00 | 0.00 | 0.00 | 72 | 1010.4 |
| 20260506101240 | 56 | 163 | 3.0 | 7.0 | 0.00 | 0.00 | 0.00 | 72 | 1010.4 |
| 20260506101114 | 56 | 163 | 3.0 | 7.0 | 0.00 | 0.00 | 0.00 | 72 | 1010.4 |
| 20260506101031 | 56 | 163 | 4.0 | 7.0 | 0.00 | 0.00 | 0.00 | 72 | 1010.4 |
| 20260506100937 | 56 | 163 | 4.0 | 7.0 | 0.00 | 0.00 | 0.00 | 72 | 1010.4 |
| 20260506100818 | 56 | 163 | 3.0 | 7.0 | 0.00 | 0.00 | 0.00 | 72 | 1010.4 |
| 20260506100717 | 56 | 163 | 3.0 | 7.0 | 0.00 | 0.00 | 0.00 | 72 | 1010.4 |
| 20260506100620 | 56 | 164 | 4.0 | 7.0 | 0.00 | 0.00 | 0.00 | 72 | 1010.4 |
| 20260506100518 | 56 | 164 | 4.0 | 6.0 | 0.00 | 0.00 | 0.00 | 72 | 1010.4 |
| 20260506100415 | 56 | 164 | 3.0 | 6.0 | 0.00 | 0.00 | 0.00 | 72 | 1010.4 |
| 20260506100320 | 56 | 165 | 4.0 | 6.0 | 0.00 | 0.00 | 0.00 | 72 | 1010.4 |
| 20260506100215 | 56 | 164 | 4.0 | 6.0 | 0.00 | 0.00 | 0.00 | 72 | 1010.4 |
| 20260506100124 | 56 | 165 | 3.0 | 6.0 | 0.00 | 0.00 | 0.00 | 72 | 1010.3 |
| 20260506100021 | 56 | 165 | 3.0 | 6.0 | 0.00 | 0.00 | 0.00 | 72 | 1010.4 |
| 20260506095925 | 56 | 165 | 3.0 | 6.0 | 0.00 | 0.00 | 0.00 | 72 | 1010.3 |
| 20260506095822 | 56 | 165 | 3.0 | 7.0 | 0.00 | 0.00 | 0.00 | 72 | 1010.4 |
| 20260506095749 | 57 | 165 | 3.0 | 7.0 | 0.00 | 0.00 | 0.00 | 72 | 1010.4 |
| 20260506095622 | 57 | 165 | 3.0 | 7.0 | 0.00 | 0.00 | 0.00 | 71 | 1010.3 |
| 20260506095517 | 57 | 165 | 3.0 | 7.0 | 0.00 | 0.00 | 0.00 | 71 | 1010.3 |
| 20260506095425 | 57 | 165 | 4.0 | 7.0 | 0.00 | 0.00 | 0.00 | 71 | 1010.3 |
| 20260506095332 | 57 | 165 | 4.0 | 7.0 | 0.00 | 0.00 | 0.00 | 71 | 1010.3 |
| 20260506095228 | 57 | 166 | 4.0 | 7.0 | 0.00 | 0.00 | 0.00 | 71 | 1010.3 |
| 20260506095137 | 57 | 166 | 4.0 | 7.0 | 0.00 | 0.00 | 0.00 | 71 | 1010.4 |
| 20260506095012 | 57 | 166 | 4.0 | 7.0 | 0.00 | 0.00 | 0.00 | 71 | 1010.3 |
| 20260506094930 | 57 | 194 | 3.0 | 5.0 | 0.00 | 0.00 | 0.00 | 71 | 1010.3 |
| 20260506094835 | 57 | 194 | 3.0 | 5.0 | 0.00 | 0.00 | 0.00 | 70 | 1010.3 |
| 20260506094719 | 57 | 200 | 3.0 | 5.0 | 0.00 | 0.00 | 0.00 | 70 | 1010.3 |
| 20260506094614 | 57 | 200 | 3.0 | 5.0 | 0.00 | 0.00 | 0.00 | 70 | 1010.4 |
| 20260506094541 | 58 | 200 | 2.0 | 4.0 | 0.00 | 0.00 | 0.00 | 70 | 1010.3 |
| 20260506094446 | 58 | 201 | 2.0 | 4.0 | 0.00 | 0.00 | 0.00 | 70 | 1010.3 |
| 20260506094322 | 58 | 201 | 2.0 | 4.0 | 0.00 | 0.00 | 0.00 | 70 | 1010.3 |
| 20260506094229 | 58 | 201 | 2.0 | 4.0 | 0.00 | 0.00 | 0.00 | 70 | 1010.3 |
| 20260506094127 | 58 | 201 | 1.0 | 4.0 | 0.00 | 0.00 | 0.00 | 70 | 1010.3 |
| 20260506094037 | 58 | 201 | 1.0 | 4.0 | 0.00 | 0.00 | 0.00 | 70 | 1010.3 |
| 20260506093912 | 58 | 201 | 1.0 | 4.0 | 0.00 | 0.00 | 0.00 | 70 | 1010.4 |
| 20260506093829 | 58 | 201 | 1.0 | 4.0 | 0.00 | 0.00 | 0.00 | 70 | 1010.4 |
| 20260506093734 | 58 | 201 | 1.0 | 4.0 | 0.00 | 0.00 | 0.00 | 70 | 1010.3 |
| 20260506093643 | 58 | 201 | 1.0 | 4.0 | 0.00 | 0.00 | 0.00 | 70 | 1010.3 |
| 20260506093517 | 58 | 201 | 1.0 | 4.0 | 0.00 | 0.00 | 0.00 | 70 | 1010.3 |
| 20260506093418 | 58 | 201 | 1.0 | 4.0 | 0.00 | 0.00 | 0.00 | 70 | 1010.3 |
| 20260506093323 | 58 | 201 | 1.0 | 4.0 | 0.00 | 0.00 | 0.00 | 70 | 1010.3 |
| 20260506093221 | 58 | 201 | 1.0 | 4.0 | 0.00 | 0.00 | 0.00 | 70 | 1010.3 |
| 20260506093125 | 58 | 201 | 1.0 | 4.0 | 0.00 | 0.00 | 0.00 | 70 | 1010.3 |
| 20260506093042 | 58 | 201 | 0.0 | 4.0 | 0.00 | 0.00 | 0.00 | 70 | 1010.4 |
| 20260506092927 | 58 | 201 | 1.0 | 4.0 | 0.00 | 0.00 | 0.00 | 70 | 1010.4 |
| 20260506092823 | 58 | 201 | 2.0 | 4.0 | 0.00 | 0.00 | 0.00 | 70 | 1010.3 |
| 20260506092729 | 58 | 201 | 2.0 | 4.0 | 0.00 | 0.00 | 0.00 | 70 | 1010.3 |
| 20260506092632 | 58 | 201 | 2.0 | 4.0 | 0.00 | 0.00 | 0.00 | 70 | 1010.3 |
| 20260506092535 | 58 | 201 | 2.0 | 4.0 | 0.00 | 0.00 | 0.00 | 70 | 1010.3 |
| 20260506092432 | 58 | 201 | 2.0 | 4.0 | 0.00 | 0.00 | 0.00 | 70 | 1010.3 |
| 20260506092338 | 58 | 201 | 3.0 | 4.0 | 0.00 | 0.00 | 0.00 | 70 | 1010.3 |
| 20260506092215 | 59 | 201 | 2.0 | 5.0 | 0.00 | 0.00 | 0.00 | 70 | 1010.2 |
| 20260506092118 | 59 | 201 | 2.0 | 5.0 | 0.00 | 0.00 | 0.00 | 70 | 1010.2 |
| 20260506092013 | 59 | 201 | 3.0 | 5.0 | 0.00 | 0.00 | 0.00 | 70 | 1010.2 |
| 20260506091922 | 59 | 201 | 2.0 | 5.0 | 0.00 | 0.00 | 0.00 | 70 | 1010.2 |
| 20260506091820 | 59 | 201 | 3.0 | 5.0 | 0.00 | 0.00 | 0.00 | 70 | 1010.2 |
| 20260506091718 | 59 | 201 | 3.0 | 5.0 | 0.00 | 0.00 | 0.00 | 70 | 1010.3 |
| 20260506091621 | 59 | 201 | 3.0 | 5.0 | 0.00 | 0.00 | 0.00 | 70 | 1010.3 |
| 20260506091526 | 59 | 201 | 3.0 | 5.0 | 0.00 | 0.00 | 0.00 | 70 | 1010.3 |
| 20260506091421 | 59 | 202 | 3.0 | 5.0 | 0.00 | 0.00 | 0.00 | 70 | 1010.3 |
| 20260506091318 | 59 | 202 | 3.0 | 5.0 | 0.00 | 0.00 | 0.00 | 70 | 1010.3 |
| 20260506091245 | 59 | 202 | 3.0 | 5.0 | 0.00 | 0.00 | 0.00 | 70 | 1010.3 |
| 20260506091137 | 59 | 202 | 3.0 | 5.0 | 0.00 | 0.00 | 0.00 | 70 | 1010.3 |
| 20260506091032 | 59 | 202 | 3.0 | 5.0 | 0.00 | 0.00 | 0.00 | 70 | 1010.3 |
| 20260506090930 | 59 | 202 | 3.0 | 5.0 | 0.00 | 0.00 | 0.00 | 69 | 1010.3 |
| 20260506090835 | 59 | 206 | 3.0 | 5.0 | 0.00 | 0.00 | 0.00 | 69 | 1010.3 |
| 20260506090713 | 59 | 206 | 3.0 | 5.0 | 0.00 | 0.00 | 0.00 | 69 | 1010.3 |
| 20260506090641 | 59 | 206 | 3.0 | 5.0 | 0.00 | 0.00 | 0.00 | 69 | 1010.3 |
| 20260506090539 | 59 | 206 | 3.0 | 4.0 | 0.00 | 0.00 | 0.00 | 69 | 1010.2 |
| 20260506090445 | 59 | 206 | 3.0 | 5.0 | 0.00 | 0.00 | 0.00 | 69 | 1010.2 |
| 20260506090321 | 59 | 206 | 3.0 | 5.0 | 0.00 | 0.00 | 0.00 | 69 | 1010.2 |
| 20260506090229 | 59 | 206 | 3.0 | 5.0 | 0.00 | 0.00 | 0.00 | 69 | 1010.2 |
| 20260506090123 | 59 | 206 | 3.0 | 5.0 | 0.00 | 0.00 | 0.00 | 69 | 1010.2 |
| 20260506090049 | 59 | 206 | 3.0 | 5.0 | 0.00 | 0.00 | 0.00 | 69 | 1010.2 |
| 20260506085923 | 59 | 206 | 3.0 | 5.0 | 0.00 | 0.00 | 0.00 | 69 | 1010.2 |
| 20260506085829 | 59 | 206 | 3.0 | 5.0 | 0.00 | 0.00 | 0.00 | 69 | 1010.2 |
| 20260506085752 | 59 | 207 | 3.0 | 5.0 | 0.00 | 0.00 | 0.00 | 69 | 1010.2 |
| 20260506085705 | 59 | 207 | 3.0 | 5.0 | 0.00 | 0.00 | 0.00 | 69 | 1010.2 |
| 20260506085515 | 59 | 208 | 3.0 | 5.0 | 0.00 | 0.00 | 0.00 | 69 | 1010.2 |
| 20260506085413 | 59 | 208 | 3.0 | 5.0 | 0.00 | 0.00 | 0.00 | 69 | 1010.2 |
| 20260506085319 | 59 | 210 | 3.0 | 5.0 | 0.00 | 0.00 | 0.00 | 69 | 1010.2 |
| 20260506085219 | 59 | 210 | 3.0 | 5.0 | 0.00 | 0.00 | 0.00 | 69 | 1010.2 |
| 20260506085143 | 59 | 210 | 3.0 | 5.0 | 0.00 | 0.00 | 0.00 | 69 | 1010.2 |
| 20260506085018 | 59 | 210 | 3.0 | 5.0 | 0.00 | 0.00 | 0.00 | 69 | 1010.2 |
| 20260506084929 | 59 | 210 | 3.0 | 5.0 | 0.00 | 0.00 | 0.00 | 69 | 1010.2 |
| 20260506084828 | 59 | 210 | 3.0 | 4.0 | 0.00 | 0.00 | 0.00 | 69 | 1010.2 |
| 20260506084733 | 59 | 210 | 3.0 | 4.0 | 0.00 | 0.00 | 0.00 | 69 | 1010.3 |
| 20260506084631 | 59 | 210 | 3.0 | 4.0 | 0.00 | 0.00 | 0.00 | 69 | 1010.3 |
| 20260506084535 | 60 | 210 | 3.0 | 4.0 | 0.00 | 0.00 | 0.00 | 69 | 1010.3 |
| 20260506084425 | 60 | 210 | 3.0 | 4.0 | 0.00 | 0.00 | 0.00 | 69 | 1010.2 |
| 20260506084330 | 60 | 210 | 2.0 | 4.0 | 0.00 | 0.00 | 0.00 | 69 | 1010.2 |
| 20260506084232 | 60 | 210 | 2.0 | 4.0 | 0.00 | 0.00 | 0.00 | 69 | 1010.2 |
| 20260506084131 | 60 | 210 | 2.0 | 4.0 | 0.00 | 0.00 | 0.00 | 69 | 1010.3 |
| 20260506084018 | 60 | 210 | 2.0 | 4.0 | 0.00 | 0.00 | 0.00 | 69 | 1010.3 |
| 20260506083915 | 60 | 210 | 3.0 | 4.0 | 0.00 | 0.00 | 0.00 | 69 | 1010.3 |
| 20260506083840 | 60 | 210 | 3.0 | 4.0 | 0.00 | 0.00 | 0.00 | 69 | 1010.3 |
| 20260506083719 | 60 | 210 | 2.0 | 4.0 | 0.00 | 0.00 | 0.00 | 69 | 1010.3 |
| 20260506083644 | 60 | 210 | 2.0 | 4.0 | 0.00 | 0.00 | 0.00 | 69 | 1010.3 |
| 20260506083518 | 60 | 210 | 2.0 | 4.0 | 0.00 | 0.00 | 0.00 | 69 | 1010.3 |
| 20260506083424 | 60 | 210 | 2.0 | 4.0 | 0.00 | 0.00 | 0.00 | 69 | 1010.3 |
| 20260506083321 | 60 | 210 | 3.0 | 4.0 | 0.00 | 0.00 | 0.00 | 69 | 1010.3 |
| 20260506083220 | 60 | 210 | 3.0 | 4.0 | 0.00 | 0.00 | 0.00 | 69 | 1010.3 |
| 20260506083125 | 60 | 210 | 3.0 | 4.0 | 0.00 | 0.00 | 0.00 | 69 | 1010.3 |